[[{"header":{"parameterUnit":"m.s-1","parameterCategory":1,"la1":31.0,"la2":29.5877,"lo1":-88.7671,"lo2":-86.6584,"dy":0.0162,"dx":0.0185,"nx":115,"ny":88,"refTime":"2025-02-22T18:00:00:Z","depth":0,"parameterNumber":2,"parameterNumberName":"U-component_of_WINDS"},"data":[0.0,0.0,0.0,0.0,0.0,0.0,0.0,0.0,0.0,0.0,0.0,0.0,0.0,0.0,0.0,0.0,0.0,0.0,0.0,0.0,0.0,0.0,0.0,0.0,0.0,0.0,0.0,0.0,0.0,0.0,0.0,0.0,0.0,0.0,0.0,0.0,0.0,0.0,0.0,0.0,0.0,0.0,0.0,0.0,0.0,0.0,0.0,0.0,0.0,0.0,0.0,0.0,0.0,0.0,0.0,0.0,0.0,0.0,0.0,0.0,0.0,0.0,0.0,0.0,0.0,0.0,0.0,0.0,0.0,0.0,0.0,0.0,0.0,0.0,0.0,0.0,0.0,0.0,0.0,0.0,0.0,0.0,0.0,0.0,0.0,0.0,0.0,0.0,0.0,0.0,0.0,0.0,0.0,0.0,0.0,0.0,0.0,0.0,0.0,0.0,0.0,0.0,0.0,0.0,0.0,0.0,0.0,0.0,0.0,0.0,0.0,0.0,0.0,0.0,0.0,0.0,0.0,0.0,0.0,0.0,0.0,0.0,0.0,0.0,0.0,0.0,0.0,0.0,0.0,0.0,0.0,0.0,0.0,0.0,0.0,0.0,0.0,0.0,0.0,0.0,0.0,0.0,0.0,0.0,0.0,0.0,0.0,0.0,0.0,0.0,0.0,0.0,0.0,0.0,0.0,0.0,0.0,0.0,0.0,0.0,0.0,0.0,0.0,0.0,0.0,0.0,0.0,0.0,0.0,0.0,0.0,0.0,0.0,0.0,0.0,0.0,0.0,0.0,0.0,0.0,0.0,0.0,0.0,0.0,0.0,0.0,0.0,0.0,0.0,0.0,0.0,0.0,0.0,0.0,0.0,0.0,0.0,0.0,0.0,0.0,0.0,0.0,0.0,0.0,0.0,0.0,0.0,0.0,0.0,0.0,0.0,0.0,0.0,0.0,0.0,0.0,0.0,0.0,0.0,0.0,0.0,0.0,0.0,0.0,0.0,0.0,0.0,0.0,0.0,0.0,0.0,0.0,0.0,0.0,0.0,0.0,0.0,0.0,0.0,0.0,0.0,0.0,0.0,0.0,0.0,0.0,0.0,0.0,0.0,0.0,0.0,0.0,0.0,0.0,0.0,0.0,0.0,0.0,0.0,0.0,0.0,0.0,0.0,0.0,0.0,0.0,0.0,0.0,0.0,0.0,0.0,0.0,0.0,0.0,0.0,0.0,0.0,0.0,0.0,0.0,0.0,0.0,0.0,0.0,0.0,0.0,0.0,0.0,0.0,0.0,0.0,0.0,0.0,0.0,0.0,0.0,0.0,0.0,0.0,0.0,0.0,0.0,0.0,0.0,0.0,0.0,0.0,0.0,0.0,0.0,0.0,0.0,0.0,0.0,0.0,0.0,0.0,0.0,0.0,0.0,0.0,0.0,0.0,0.0,0.0,0.0,0.0,0.0,0.0,0.0,0.0,0.0,0.0,0.0,0.0,0.0,0.0,0.0,0.0,0.0,0.0,0.0,0.0,0.0,0.0,0.0,0.0,0.0,0.0,0.0,0.0,0.0,0.0,0.0,0.0,0.0,0.0,0.0,0.0,0.0,0.0,0.0,0.0,0.0,0.0,0.0,0.0,0.0,0.0,0.0,0.0,0.0,0.0,0.0,0.0,0.0,0.0,0.0,0.0,0.0,0.0,0.0,0.0,0.0,0.0,0.0,0.0,0.0,0.0,0.0,0.0,0.0,0.0,0.0,0.0,0.0,0.0,0.0,0.0,0.0,0.0,0.0,0.0,0.0,0.0,0.0,0.0,0.0,0.0,0.0,0.0,0.0,0.0,0.0,0.0,0.0,0.0,0.0,0.0,0.0,0.0,0.0,0.0,0.0,0.0,0.0,0.0,0.0,0.0,0.0,0.0,0.0,0.0,0.0,0.0,0.0,0.0,0.0,0.0,0.0,0.0,0.0,0.0,0.0,0.0,0.0,0.0,0.0,0.0,0.0,0.0,0.0,0.0,0.0,0.0,0.0,0.0,0.0,0.0,0.0,0.0,0.0,0.0,0.0,0.0,0.0,0.0,0.0,0.0,0.0,0.0,0.0,0.0,0.0,0.0,0.0,0.0,0.0,0.0,0.0,0.0,0.0,0.0,0.0,0.0,0.0,0.0,0.0,0.0,0.0,0.0,0.0,0.0,0.0,0.0,0.0,0.0,0.0,0.0,0.0,0.0,0.0,0.0,0.0,0.0,0.0,0.0,0.0,0.0,0.0,0.0,0.0,0.0,0.0,0.0,0.0,0.0,0.0,0.0,0.0,0.0,0.0,0.0,0.0,0.0,0.0,0.0,0.0,0.0,0.0,0.0,0.0,0.0,0.0,0.0,0.0,0.0,0.0,0.0,0.0,0.0,0.0,0.0,0.0,0.0,0.0,0.0,0.0,0.0,0.0,0.0,0.0,0.0,0.0,0.0,0.0,0.0,0.0,0.0,0.0,0.0,0.0,0.0,0.0,0.0,0.0,0.0,0.0,0.0,0.0,0.0,0.0,0.0,0.0,0.0,0.0,0.0,0.0,0.0,0.0,0.0,0.0,0.0,0.0,0.0,0.0,0.0,0.0,0.0,0.0,0.0,0.0,0.0,0.0,0.0,0.0,0.0,0.0,0.0,0.0,0.0,0.0,0.0,0.0,0.0,0.0,0.0,0.0,0.0,0.0,0.0,0.0,0.0,0.0,0.0,0.0,0.0,0.0,0.0,0.0,0.0,0.0,0.0,0.0,0.0,0.0,0.0,0.0,0.0,0.0,0.0,0.0,0.0,0.0,0.0,0.0,0.0,0.0,0.0,0.0,0.0,0.0,0.0,0.0,0.0,0.0,0.0,0.0,0.0,0.0,0.0,0.0,0.0,0.0,0.0,0.0,0.0,0.0,0.0,0.0,0.0,0.0,0.0,0.0,0.0,0.0,0.0,0.0,0.0,0.0,0.0,0.0,0.0,0.0,0.0,0.0,0.0,0.0,0.0,0.0,0.0,0.0,0.0,0.0,0.0,0.0,0.0,0.0,0.0,0.0,0.0,0.0,0.0,0.0,0.0,0.0,0.0,0.0,0.0,0.0,0.0,0.0,0.0,0.0,0.0,0.0,0.0,0.0,0.0,0.0,0.0,0.0,0.0,0.0,0.0,0.0,0.0,0.0,0.0,0.0,0.0,0.0,0.0,0.0,0.0,0.0,0.0,0.0,0.0,0.0,0.0,0.0,0.0,0.0,0.0,0.0,0.0,0.0,0.0,0.0,0.0,0.0,0.0,0.0,0.0,0.0,0.0,0.0,0.0,0.0,0.0,0.0,0.0,0.0,0.0,0.0,0.0,0.0,0.0,0.0,0.0,0.0,0.0,0.0,0.0,0.0,0.0,0.0,0.0,0.0,0.0,0.0,0.0,0.0,0.0,0.0,0.0,0.0,0.0,0.0,0.0,0.0,0.0,0.0,0.0,0.0,0.0,0.0,0.0,0.0,0.0,0.0,0.0,0.0,0.0,0.0,0.0,0.0,0.0,0.0,0.0,0.0,0.0,0.0,0.0,0.0,0.0,0.0,0.0,0.0,0.0,0.0,0.0,0.0,0.0,0.0,0.0,0.0,0.0,0.0,0.0,0.0,0.0,0.0,0.0,0.0,0.0,0.0,0.0,0.0,0.0,0.0,0.0,0.0,0.0,0.0,0.0,0.0,0.0,0.0,0.0,0.0,0.0,0.0,0.0,0.0,0.0,0.0,0.0,0.0,0.0,0.0,0.0,0.0,0.0,0.0,0.0,0.0,0.0,0.0,0.0,0.0,0.0,0.0,0.0,0.0,0.0,0.0,0.0,0.0,0.0,0.0,0.0,0.0,0.0,0.0,0.0,0.0,0.0,0.0,0.0,0.0,0.0,0.0,0.0,0.0,0.0,0.0,0.0,0.0,0.0,0.0,0.0,0.0,0.0,0.0,0.0,0.0,0.0,0.0,0.0,0.0,0.0,0.0,0.0,0.0,0.0,0.0,0.0,0.0,0.0,0.0,0.0,0.0,0.0,0.0,0.0,0.0,0.0,0.0,0.0,0.0,0.0,0.0,0.0,0.0,0.0,0.0,0.0,0.0,0.0,0.0,0.0,0.0,0.0,0.0,0.0,0.0,0.0,0.0,0.0,0.0,0.0,0.0,0.0,0.0,0.0,0.0,0.0,0.0,0.0,0.0,0.0,0.0,0.0,0.0,0.0,0.0,0.0,0.0,0.0,0.0,0.0,0.0,0.0,0.0,0.9188,0.0,0.0,0.0,0.0,0.0,0.0,0.0,0.0,0.0,0.0,0.0,0.0,0.0,0.0,0.0,0.0,0.0,0.0,0.0,0.0,0.0,0.0,0.0,0.0,0.0,0.0,0.0,0.0,0.0,0.0,0.0,0.0,0.0,0.0,0.0,0.0,0.0,0.0,0.0,0.0,0.0,0.0,0.0,0.0,0.0,0.0,0.0,0.0,0.0,0.0,0.0,0.0,0.0,0.0,0.0,0.0,0.0,0.0,0.0,0.0,0.0,0.0,0.0,0.0,0.0,0.0,0.0,0.0,0.0,0.0,0.0,0.0,0.0,0.0,0.0,0.0,0.0,0.0,0.0,0.0,0.0,0.0,0.0,0.0,0.0,0.0,0.0,0.0,0.0,0.0,0.0,0.0,0.0,0.0,0.0,0.0,0.0,0.0,0.0,0.0,0.0,0.0,0.0,0.0,0.0,0.0,0.0,0.0,0.0,0.0,0.7971,0.8687,0.9143,0.9481,0.9654,0.0,0.0,0.0,0.0,0.0,0.0,0.0,0.0,0.0,0.0,0.0,0.0,0.0,0.0,0.0,0.0,0.0,0.0,0.0,0.0,0.0,0.0,0.0,0.0,0.0,0.0,0.0,0.0,0.0,0.0,0.0,0.0,0.0,0.0,0.0,0.0,0.0,0.0,0.0,0.0,0.0,0.0,0.0,0.0,0.0,0.0,0.0,0.0,0.0,0.0,0.0,0.0,0.0,0.0,0.0,0.0,0.0,0.0,0.0,0.0,0.0,0.0,0.0,0.0,0.0,0.0,0.0,0.0,0.0,0.0,0.0,0.0,0.0,0.0,0.0,0.0,0.0,0.0,0.0,0.0,0.0,0.0,0.0,0.0,0.0,0.0,0.0,0.0,0.0,0.0,0.0,0.0,0.0,0.0,0.0,0.0,0.0,0.0,0.0,0.0,0.0,0.0,0.0,0.0,0.0,0.0,0.0,0.0,0.0,0.0,0.0,0.0,0.9665,0.983,0.9927,0.0,0.0,0.0,0.0,0.0,0.0,0.0,0.0,0.0,0.0,0.0,0.0,0.0,0.0,0.0,0.0,0.0,0.0,0.0,0.0,0.0,0.0,0.0,0.0,0.0,0.0,0.0,0.0,0.0,0.0,0.0,0.0,0.0,0.0,0.0,0.0,0.0,0.0,0.0,0.0,0.0,0.0,0.0,0.0,0.0,0.0,0.0,0.0,0.0,0.0,0.0,0.0,0.0,0.0,0.0,0.0,0.0,0.0,0.0,0.0,0.0,0.0,0.0,0.0,0.0,0.0,0.0,0.0,0.0,0.0,0.0,0.0,0.0,0.0,0.0,0.0,0.0,0.0,0.0,0.0,0.0,0.0,0.0,0.0,0.0,0.0,0.0,0.0,0.0,0.0,0.0,0.0,0.0,0.0,0.0,0.0,0.0,0.0,0.0,0.0,0.0,0.0,0.0,0.0,0.0,0.0,0.0,0.0,0.0,0.0,0.9624,0.9853,0.9977,0.0,1.0077,0.0,0.0,0.0,0.0,0.0,0.0,0.0,0.0,0.0,0.0,0.0,0.0,0.0,0.0,0.0,0.0,0.0,0.0,0.0,0.0,0.0,0.0,0.0,0.0,0.0,0.0,0.0,0.0,0.0,0.0,0.0,0.0,0.0,0.0,0.0,0.0,0.0,0.0,0.0,0.0,0.0,0.0,0.0,0.0,0.0,0.0,0.0,0.0,0.0,0.0,0.0,0.0,0.0,0.0,0.0,0.0,0.0,0.0,0.0,0.0,0.0,0.0,0.0,0.0,0.0,0.0,0.0,0.0,0.0,0.0,0.0,0.0,0.0,0.0,0.0,0.0,0.0,0.0,0.0,0.0,0.0,0.0,0.0,0.0,0.0,0.0,0.0,0.0,0.0,0.0,0.0,0.0,0.0,0.0,0.0,0.0,0.0,0.0,0.0,0.0,0.0,0.0,0.0,0.0,0.0,0.0,0.0,0.0,0.0,0.0,0.9899,1.0024,1.0112,1.016,0.0,0.0,0.0,0.0,0.0,0.0,0.0,0.0,0.0,0.0,0.0,0.0,0.0,0.0,0.0,0.0,0.0,0.0,0.0,0.0,0.0,0.0,0.0,0.0,0.0,0.0,0.0,0.0,0.0,0.0,0.0,0.0,0.0,0.0,0.0,0.0,0.0,0.0,0.0,0.0,0.0,0.0,0.0,0.0,0.0,0.0,0.0,0.0,0.0,0.0,0.0,0.0,0.0,0.0,0.0,0.0,0.0,0.0,0.0,0.0,0.0,0.0,0.0,0.0,0.0,0.0,0.0,0.0,0.0,0.0,0.0,0.0,0.0,0.0,0.0,0.0,0.0,0.0,0.0,0.0,0.0,0.0,0.0,0.0,0.0,0.0,0.0,0.0,0.0,0.0,0.0,0.0,0.0,0.0,0.0,0.0,0.0,0.0,0.0,0.0,0.0,0.0,0.0,0.0,0.0,0.0,0.0,0.0,0.0,0.0,1.0006,0.0,1.0128,1.018,1.0193,1.0195,0.0,0.0,0.0,0.0,0.0,0.0,0.0,0.0,0.0,0.0,0.0,0.0,0.0,0.0,0.0,0.0,0.0,0.0,0.0,0.0,0.0,0.0,0.0,0.0,0.0,0.0,0.0,0.0,0.0,0.0,0.0,0.0,0.0,0.0,0.0,0.0,0.0,0.0,0.0,0.0,0.0,0.0,0.0,0.0,0.0,0.0,0.0,0.0,0.0,0.0,0.0,0.0,0.0,0.0,0.0,0.0,0.0,0.0,0.0,0.0,0.0,0.0,0.0,0.0,0.0,0.0,0.0,0.0,0.0,0.0,0.0,0.0,0.0,0.0,0.0,0.0,0.0,0.0,0.0,0.0,0.0,0.0,0.0,0.0,0.0,0.0,0.0,0.0,0.0,0.0,0.0,0.0,0.0,0.0,0.0,0.0,0.0,0.0,0.0,0.0,0.0,0.0,0.0,0.0,0.0,0.0,0.0,0.0,0.0,1.0148,1.0185,1.0191,1.0191,1.0197,0.0,0.0,0.0,0.0,0.0,0.0,0.0,0.0,0.0,0.0,0.0,0.0,0.0,0.0,0.0,0.0,0.0,0.0,0.0,0.0,0.0,0.0,0.0,0.0,0.0,0.0,0.0,0.0,0.0,0.0,0.0,0.0,0.0,0.0,0.0,0.0,0.0,0.0,0.0,0.0,0.0,0.0,0.0,0.0,0.0,0.0,0.0,0.0,0.0,0.0,0.0,0.0,0.0,0.0,0.0,0.0,0.0,0.0,0.0,0.0,0.0,0.0,0.0,0.0,0.0,0.0,0.0,0.0,0.0,0.0,0.0,0.0,0.0,0.0,0.0,0.0,0.0,0.0,0.0,0.0,0.0,0.0,0.0,0.0,0.0,0.0,0.0,0.0,0.0,0.0,0.0,0.0,0.0,0.0,0.0,0.0,0.0,0.0,0.0,0.0,0.0,0.0,0.0,0.0,0.0,0.0,0.0,0.0,0.0,1.0158,1.0191,1.0194,1.0194,1.0195,1.0195,0.0,0.0,0.0,0.0,0.0,0.0,0.0,0.0,0.0,0.0,0.0,0.0,0.0,0.0,0.0,0.0,0.0,0.0,0.0,0.0,0.0,0.0,0.0,0.0,0.0,0.0,0.0,0.0,0.0,0.0,0.0,0.0,0.0,0.0,0.0,0.0,0.0,0.0,0.0,0.0,0.0,0.0,0.0,0.0,0.0,0.0,0.0,0.0,0.0,0.0,0.0,0.0,0.0,0.0,0.0,0.0,0.0,0.0,0.0,0.0,0.0,0.0,0.0,0.0,0.0,0.0,0.0,0.0,0.0,0.0,0.0,0.0,0.0,0.0,0.0,0.0,0.0,0.0,0.0,0.0,0.0,0.0,0.0,0.0,0.0,0.0,0.0,0.0,0.0,0.0,0.0,0.0,0.0,0.0,0.0,0.0,0.0,0.0,0.0,0.0,0.0,0.0,0.0,0.0,0.0,0.0,0.0,0.0,0.0,1.0193,0.0,1.0161,0.0,1.0144,1.0135,0.0,0.0,0.0,0.0,0.0,0.0,0.0,0.0,0.0,0.0,0.0,0.0,0.0,0.0,0.0,0.0,0.0,0.0,0.0,0.0,0.0,0.0,0.0,0.0,0.0,0.0,0.0,0.0,0.0,0.0,0.0,0.0,0.0,0.0,0.0,0.0,0.0,0.0,0.0,0.0,0.0,0.0,0.0,0.0,0.0,0.0,0.0,0.0,0.0,0.0,0.0,0.0,0.0,0.0,0.0,0.0,0.0,0.0,0.0,0.0,0.0,0.0,0.0,0.0,0.0,0.0,0.0,0.0,0.0,0.0,0.0,0.0,0.0,0.0,0.0,0.0,0.0,0.0,0.0,0.0,0.0,0.0,0.0,0.0,0.0,0.0,0.0,0.0,0.0,0.0,0.0,0.0,0.0,0.0,0.0,0.0,0.0,0.0,0.0,0.0,0.0,0.0,0.0,0.0,0.0,0.0,0.0,0.0,1.0191,1.0197,1.0129,1.0096,1.0096,1.0036,0.9991,0.0,0.0,0.0,0.0,0.0,0.0,0.0,0.0,0.0,0.0,0.0,0.0,0.0,0.0,0.0,0.0,0.0,0.0,0.0,0.0,0.0,0.0,0.0,0.0,0.0,0.0,0.0,0.0,0.0,0.0,0.0,0.0,0.0,0.0,0.0,0.0,0.0,0.0,0.0,0.0,0.0,0.0,0.0,0.0,0.0,0.0,0.0,0.0,0.0,0.0,0.0,0.0,0.0,0.0,0.0,0.0,0.0,0.0,0.0,0.0,0.0,0.0,0.0,0.0,0.0,0.0,0.0,0.0,0.0,0.0,0.0,0.0,0.0,0.0,0.0,0.0,0.0,0.0,0.0,0.0,0.0,0.0,0.0,0.0,0.0,0.0,0.0,0.0,0.0,0.0,0.0,0.0,0.0,0.0,0.0,0.0,0.0,0.0,0.0,0.0,0.0,0.0,0.0,0.0,0.0,0.0,0.0,0.0,0.0,1.0137,1.0074,1.0011,0.9973,0.9933,0.9889,0.0,0.0,0.0,0.0,0.0,0.0,0.0,0.0,0.0,0.0,0.0,0.0,0.0,0.0,0.0,0.0,0.0,0.0,0.0,0.0,0.0,0.0,0.0,0.0,0.0,0.0,0.0,0.0,0.0,0.0,0.0,0.0,0.0,0.0,0.0,0.0,0.0,0.0,0.0,0.0,0.0,0.0,0.0,0.0,0.0,0.0,0.0,0.0,0.0,0.0,0.0,0.0,0.0,0.0,0.0,0.0,0.0,0.0,0.0,0.0,0.0,0.0,0.0,0.0,0.0,0.0,0.0,0.0,0.0,0.0,0.0,0.0,0.0,0.0,0.0,0.0,0.0,0.0,0.0,0.0,0.0,0.0,0.0,0.0,0.0,0.0,0.0,0.0,0.0,0.0,0.0,0.0,0.0,0.0,0.0,0.0,0.0,0.0,0.0,0.0,0.0,0.0,0.0,0.0,0.0,0.0,0.0,0.0,0.0,1.006,0.9968,0.9901,0.9825,0.9791,0.9729,0.9594,0.0,0.0,0.0,0.0,0.0,0.0,0.0,0.0,0.0,0.0,0.0,0.0,0.0,0.0,0.0,0.0,0.0,0.0,0.0,0.0,0.0,0.0,0.0,0.0,0.0,0.0,0.0,0.0,0.0,0.0,0.0,0.0,0.0,0.0,0.0,0.0,0.0,0.0,0.0,0.0,0.0,0.0,0.0,0.0,0.0,0.0,0.0,0.0,0.0,0.0,0.0,0.0,0.0,0.0,0.0,0.0,0.0,0.0,0.0,0.0,0.0,0.0,0.0,0.0,0.0,0.0,0.0,0.0,0.0,0.0,0.0,0.0,0.0,0.0,0.0,0.0,0.0,0.0,0.0,0.0,0.0,0.0,0.0,0.0,0.0,0.0,0.0,0.0,0.0,0.0,0.0,0.0,0.0,0.0,0.0,0.0,0.0,0.0,0.0,0.0,0.0,0.0,0.0,0.0,0.0,0.0,0.0,0.0,1.0009,0.9881,0.9774,0.971,0.9617,0.9521,0.0,0.0,0.0,0.0,0.0,0.0,0.0,0.0,0.0,0.0,0.0,0.0,0.0,0.0,0.0,0.0,0.0,0.0,0.0,0.0,0.0,0.0,0.0,0.0,0.0,0.0,0.0,0.0,0.0,0.0,0.0,0.0,0.0,0.0,0.0,0.0,0.0,0.0,0.0,0.0,0.0,0.0,0.0,0.0,0.0,0.0,0.0,0.0,0.0,0.0,0.0,0.0,0.0,0.0,0.0,0.0,0.0,0.0,0.0,0.0,0.0,0.0,0.0,0.0,0.0,0.0,0.0,0.0,0.0,0.0,0.0,0.0,0.0,0.0,0.0,0.0,0.0,0.0,0.0,0.0,0.0,0.0,0.0,0.0,0.0,0.0,0.0,0.0,0.0,0.0,0.0,0.0,0.0,0.0,0.0,0.0,0.0,0.0,0.0,0.0,0.0,0.0,0.0,0.0,0.0,0.0,0.0,0.0,0.0,0.9994,0.9869,0.9747,0.9631,0.9563,0.9447,0.0,0.0,0.0,0.0,0.0,0.0,0.0,0.0,0.0,0.0,0.0,0.0,0.0,0.0,0.0,0.0,0.0,0.0,0.0,0.0,0.0,0.0,0.0,0.0,0.0,0.0,0.0,0.0,0.0,0.0,0.0,0.0,0.0,0.0,0.0,0.0,0.0,0.0,0.0,0.0,0.0,0.0,0.0,0.0,0.0,0.0,0.0,0.0,0.0,0.0,0.0,0.0,0.0,0.0,0.0,0.0,0.0,0.0,0.0,0.0,0.0,0.0,0.0,0.0,0.0,0.0,0.0,0.0,0.0,0.0,0.0,0.0,0.0,0.0,0.0,0.0,0.0,0.0,0.0,0.0,0.0,0.0,0.0,0.0,0.0,0.0,0.0,0.0,0.0,0.0,0.0,0.0,0.0,0.0,0.0,0.0,0.0,0.0,0.0,0.0,0.0,0.0,0.0,0.0,0.0,0.0,0.0,0.0,1.0011,1.0007,0.9884,0.9783,0.9684,0.9563,0.9412,0.0,0.0,0.0,0.0,0.0,0.0,0.0,0.0,0.0,0.0,0.0,0.0,0.0,0.0,0.0,0.0,0.0,0.0,0.0,0.0,0.0,0.0,0.0,0.0,0.0,0.0,0.0,0.0,0.0,0.0,0.0,0.0,0.0,0.0,0.0,0.0,0.0,0.0,0.0,0.0,0.0,0.0,0.0,0.0,0.0,0.0,0.0,0.0,0.0,0.0,0.0,0.0,0.0,0.0,0.0,0.0,0.0,0.0,0.0,0.0,0.0,0.0,0.0,0.0,0.0,0.0,0.0,0.0,0.0,0.0,0.0,0.0,0.0,0.0,0.0,0.0,0.0,0.0,0.0,0.0,0.0,0.0,0.0,0.0,0.0,0.0,0.0,0.0,0.0,0.0,0.0,0.0,0.0,0.0,0.0,0.0,0.0,0.0,0.0,0.0,0.0,0.0,0.0,0.0,0.0,0.0,0.0,0.0,1.0014,0.9986,0.9931,0.9857,0.9791,0.9615,0.9448,0.0,0.0,0.0,0.0,0.0,0.0,0.0,0.0,0.0,0.0,0.0,0.0,0.0,0.0,0.0,0.0,0.0,0.0,0.0,0.0,0.0,0.0,0.0,0.0,0.0,0.0,0.0,0.0,0.0,0.0,0.0,0.0,0.0,0.0,0.0,0.0,0.0,0.0,0.0,0.0,0.0,0.0,0.0,0.0,0.0,0.0,0.0,0.0,0.0,0.0,0.0,0.0,0.0,0.0,0.0,0.0,0.0,0.0,0.0,0.0,0.0,0.0,0.0,0.0,0.0,0.0,0.0,0.0,0.0,0.0,0.0,0.0,0.0,0.0,0.0,0.0,0.0,0.0,0.0,0.0,0.0,0.0,0.0,0.0,0.0,0.0,0.0,0.0,0.0,0.0,0.0,0.0,0.0,0.0,0.0,0.0,0.0,0.0,0.0,0.0,0.0,0.0,0.0,0.0,0.0,0.0,0.0,0.0,0.9983,0.9929,0.9912,0.986,0.9807,0.9663,0.9517,0.0,0.0,0.0,0.0,0.0,0.0,0.0,0.0,0.0,0.0,0.0,0.0,0.0,0.0,0.0,0.0,0.0,0.0,0.0,0.0,0.0,0.0,0.0,0.0,0.0,0.0,0.0,0.0,0.0,0.0,0.0,0.0,0.0,0.0,0.0,0.0,0.0,0.0,0.0,0.0,0.0,0.0,0.0,0.0,0.0,0.0,0.0,0.0,0.9712,0.0,0.0,0.0,0.0,0.0,0.0,0.0,0.0,0.0,0.0,0.0,0.0,0.0,0.0,0.0,0.0,0.0,0.0,0.0,0.0,0.0,0.0,0.0,0.0,0.0,0.0,0.0,0.0,0.0,0.0,0.0,0.0,0.0,0.0,0.0,0.0,0.0,0.0,0.0,0.0,0.0,0.0,0.0,0.0,0.0,0.0,0.0,0.0,0.0,0.0,0.0,0.0,0.0,0.0,0.0,0.0,0.0,0.0,0.0,1.0316,0.9935,1.0238,1.0217,0.9836,0.9671,0.9524,0.0,0.0,0.0,0.0,0.0,0.0,0.0,0.0,0.0,0.0,0.0,0.0,0.0,0.0,0.0,0.0,0.0,0.0,0.0,0.0,0.0,0.0,0.0,0.0,0.0,0.0,0.0,0.0,0.0,0.0,0.0,0.0,0.0,0.0,0.0,0.0,0.0,0.0,0.0,0.0,0.0,0.0,0.0,0.0,0.0,0.0,0.0,0.0,0.0,0.0,0.0,0.0,0.0,0.0,0.0,0.0,0.0,0.0,0.0,0.0,0.0,0.0,0.0,0.0,0.0,0.0,0.0,0.0,0.0,0.0,0.0,0.0,0.0,0.0,0.0,0.0,0.0,0.0,0.0,0.0,0.0,0.0,0.0,0.0,0.0,0.0,0.0,0.0,0.0,0.0,0.0,0.0,0.0,0.0,0.0,0.0,0.0,0.0,0.0,0.0,0.0,0.0,0.0,0.0,0.0,0.0,0.0,1.0719,1.0765,1.0138,1.0686,1.066,0.9995,0.9727,0.9549,0.9394,0.0,0.0,0.0,0.0,0.0,0.0,0.0,0.0,0.0,0.0,0.0,0.0,0.0,0.0,0.0,0.0,0.0,0.0,0.0,0.0,0.0,0.0,0.0,0.0,0.0,0.0,0.0,0.0,0.0,0.0,0.0,0.0,0.0,0.0,0.0,0.0,0.0,0.0,0.7364,0.8781,0.0,0.0,0.0,0.0,0.0,0.0,0.0,0.0,0.9637,0.0,0.0,0.0,0.0,0.0,0.0,0.0,0.0,0.0,0.0,0.0,0.0,0.0,0.0,0.0,0.0,0.0,0.0,0.0,0.0,0.0,0.0,0.0,0.0,0.0,0.0,0.0,0.0,0.0,0.0,0.0,0.0,0.0,0.0,0.0,0.0,0.0,0.0,0.0,0.0,0.0,0.0,0.0,0.0,0.0,0.0,0.0,0.0,0.0,0.0,0.0,0.0,0.0,0.0,0.0,0.0,0.9923,1.0706,1.103,1.0915,1.0952,1.0916,1.0718,0.9998,0.9535,0.9412,0.0,0.0,0.0,0.0,0.0,0.0,0.0,0.0,0.0,0.0,0.0,0.0,0.0,0.0,0.0,0.0,0.0,0.0,0.0,0.0,0.0,0.0,0.0,0.0,0.0,0.0,0.0,0.0,0.0,0.0,0.0,0.0,0.0,0.0,0.0,0.0,0.0,0.0,0.0,0.9164,0.9782,0.0,0.0,0.0,0.0,0.0,0.0,0.0,0.0,0.9618,0.0,0.0,0.0,0.0,0.0,0.0,0.0,0.0,0.0,0.0,0.0,0.0,0.0,0.0,0.0,0.0,0.0,0.0,0.0,0.0,0.0,0.0,0.0,0.0,0.0,0.0,0.0,0.0,0.0,0.0,0.0,0.0,0.0,0.0,0.0,0.0,0.0,0.0,0.0,0.0,0.0,0.0,0.0,0.0,0.0,0.0,0.0,0.0,0.0,0.0,0.0,0.0,0.0,0.0,0.0,0.9968,1.111,1.1515,1.1151,1.1847,1.1806,1.0943,1.0411,0.9933,0.0,0.0,0.0,0.0,0.0,0.0,0.0,0.0,0.0,0.0,0.0,0.0,0.0,0.0,0.0,0.0,0.0,0.0,0.0,0.0,0.0,0.0,0.0,0.0,0.0,0.0,0.0,0.0,0.0,0.0,0.0,0.0,0.0,0.0,0.0,0.0,0.0,0.0,0.0,0.0,0.9546,0.9791,0.9794,0.0,0.0,0.0,0.0,0.0,0.0,0.9648,0.9619,0.0,0.0,0.0,0.0,0.0,0.0,0.0,0.0,0.0,0.0,0.0,0.0,0.0,0.0,0.0,0.0,0.0,0.0,0.0,0.0,0.0,0.0,0.0,0.0,0.0,0.0,0.0,0.0,0.0,0.0,0.0,0.0,0.0,0.0,0.0,0.0,0.0,0.0,0.0,0.0,0.0,0.0,0.0,0.0,0.0,0.0,0.0,0.0,0.0,0.0,0.0,0.0,0.0,0.0,0.0,1.0207,1.1593,1.2105,1.1661,1.2622,1.2539,1.1202,1.0722,1.0132,0.0,0.0,0.0,0.0,0.0,0.0,0.0,0.0,0.0,0.0,0.0,0.0,0.0,0.0,0.0,0.0,0.0,0.0,0.0,0.0,0.0,0.0,0.0,0.0,0.0,0.0,0.0,0.0,0.0,0.0,0.0,0.0,0.0,0.0,0.0,0.0,0.0,0.0,0.0,0.0,0.0,0.98,0.9791,0.9796,0.0,0.0,0.0,0.0,0.9942,0.9886,0.0,0.0,0.0,0.0,0.0,0.0,0.0,0.0,0.0,0.0,0.0,0.0,0.0,0.0,0.0,0.0,0.0,0.0,0.0,0.0,0.0,0.0,0.0,0.0,0.0,0.0,0.0,0.0,0.0,0.0,0.0,0.0,0.0,0.0,0.0,0.0,0.0,0.0,0.0,0.0,0.0,0.0,0.0,0.0,0.0,0.0,0.0,0.0,0.0,0.0,0.0,0.0,0.0,0.0,0.0,0.0,1.1055,1.1944,1.2692,1.3237,1.2728,1.2305,1.204,1.0547,0.9626,0.0,0.0,0.0,0.0,0.0,0.0,0.0,0.0,0.0,0.0,0.0,0.0,0.0,0.0,0.0,0.0,0.0,0.0,0.0,0.0,0.0,0.0,0.0,0.0,0.0,0.0,0.0,0.0,0.0,0.0,0.0,0.0,0.0,0.0,0.0,0.0,0.0,0.0,0.0,0.0,0.0,0.9794,0.9798,0.9796,1.0017,0.0,0.0,0.0,1.0756,1.071,0.0,0.0,0.0,0.0,0.0,0.0,0.0,0.0,0.0,0.0,0.0,0.0,0.0,0.0,0.0,0.0,0.0,0.0,0.0,0.0,0.0,0.0,0.0,0.0,0.0,0.0,0.0,0.0,0.0,0.0,0.0,0.0,0.0,0.0,0.0,0.0,0.0,0.0,0.0,0.0,0.0,0.0,0.0,0.0,0.0,0.0,0.0,0.0,0.0,0.0,0.0,0.0,0.0,0.0,0.0,1.0367,1.1193,1.1996,1.28,1.3553,1.3195,1.2732,1.2205,1.0965,1.0004,0.0,0.0,0.0,0.0,0.0,0.0,0.0,0.0,0.0,0.0,0.0,0.0,0.0,0.0,0.0,0.0,0.0,0.0,0.0,0.0,0.0,0.0,0.0,0.0,0.0,0.0,0.0,0.0,0.0,0.0,0.0,0.0,0.0,0.0,0.0,0.0,0.0,0.0,0.0,0.0,0.0,0.0,1.0488,1.0827,0.0,0.0,0.0,1.159,1.159,0.0,0.0,0.0,0.0,0.0,0.0,0.0,0.0,0.0,0.0,0.0,0.0,0.0,0.0,0.0,0.0,0.0,0.0,0.0,0.0,0.0,0.0,0.0,0.0,0.0,0.0,0.0,0.0,0.0,0.0,0.0,0.0,0.0,0.0,0.0,0.0,0.0,0.0,0.0,0.0,0.0,0.0,0.0,0.0,0.0,0.0,0.0,0.0,0.0,0.0,0.0,0.0,0.0,0.0,0.0,0.0,0.0,1.148,1.2095,1.2891,1.388,1.3455,1.2907,1.2238,1.1145,0.0,0.0,0.0,0.0,0.0,0.0,0.0,0.0,0.0,0.0,0.0,0.0,0.0,0.0,0.0,0.0,0.0,0.0,0.0,0.0,0.0,0.0,0.0,0.0,0.0,0.0,0.0,0.3609,0.0,0.0,0.0,0.0,0.0,0.0,0.0,0.0,0.0,0.0,0.0,0.0,0.0,0.0,1.1063,1.1268,1.178,1.2188,0.0,0.0,1.2398,1.2398,1.17,1.1022,0.0,0.0,0.0,0.0,0.0,0.0,0.0,0.0,0.0,0.0,0.0,0.0,0.0,0.0,0.0,0.0,0.0,0.0,0.0,0.0,0.0,0.0,0.0,0.0,0.0,0.0,0.0,0.0,0.0,0.0,0.0,0.0,0.0,0.0,0.0,0.0,0.0,0.0,0.0,0.0,0.0,0.0,0.0,0.0,0.0,0.0,0.0,0.0,0.0,0.0,0.0,0.0,0.0,0.0,0.0,1.2251,1.2374,1.3178,1.4697,1.3278,1.2413,1.2269,1.0727,0.9785,0.0,0.0,0.0,0.0,0.0,0.0,0.0,0.0,0.0,0.0,0.0,0.0,0.0,0.0,0.0,0.0,0.0,0.0,0.0,0.0,0.0,0.0,0.0,0.0,0.0,0.0,0.0,0.0,0.0,0.0,0.0,0.0,0.0,0.0,0.0,0.0,0.0,0.0,0.0,0.0,0.0,1.1283,1.2011,1.2166,1.2455,0.0,0.0,1.3219,1.3217,1.2553,1.1726,1.0847,0.0,0.0,0.0,0.0,0.0,0.0,0.0,0.0,0.0,0.0,0.0,0.0,0.0,0.0,0.0,0.0,0.0,0.0,0.0,0.0,0.0,0.0,0.0,0.0,0.0,0.0,0.0,0.0,0.0,0.0,0.0,0.0,0.0,0.0,0.0,0.0,0.0,0.0,0.0,0.0,0.0,0.0,0.0,0.0,0.0,0.0,0.0,0.0,0.0,0.0,0.0,0.0,0.0,1.0734,1.2355,1.239,1.3219,1.4753,1.3259,1.239,1.2365,1.0707,0.9761,0.0,0.0,0.0,0.0,0.0,0.0,0.0,0.0,0.0,0.0,0.0,0.0,0.0,0.0,0.0,0.0,0.0,0.0,0.0,0.0,0.0,0.0,0.0,0.0,0.0,0.0,0.0,0.0,0.7165,0.8084,0.8815,0.0,0.0,0.0,0.0,0.0,0.0,0.0,0.0,0.0,0.0,1.2639,1.2891,1.3325,0.0,0.0,1.4042,1.4042,1.4031,1.3335,1.2478,1.1581,1.0665,0.0,0.0,0.0,0.0,0.0,0.0,0.0,0.0,0.0,0.0,0.0,0.0,0.0,0.0,0.0,0.0,0.0,0.0,0.0,0.0,0.0,0.0,0.0,0.0,0.0,0.0,0.0,0.0,0.0,0.0,0.0,0.0,0.0,0.0,0.0,0.0,0.0,0.0,0.0,0.0,0.0,0.0,0.0,0.0,0.0,0.0,0.0,0.0,0.0,0.0,0.0,0.0,1.0728,1.2374,1.2392,1.3211,1.4857,1.3258,1.2395,1.2343,1.0707,0.9775,0.0,0.0,0.0,0.0,0.0,0.0,0.0,0.0,0.0,0.0,0.0,0.0,0.0,0.0,0.0,0.0,0.0,0.0,0.0,0.0,0.0,0.0,0.0,0.0,0.0,0.0,0.0,0.0,0.783,0.8709,0.9464,0.0,0.0,0.0,0.0,0.0,0.0,0.0,0.0,0.0,0.0,1.3598,1.3763,1.4218,1.4533,1.4499,1.4497,1.4497,1.4497,1.3769,1.2991,1.2347,0.0,0.0,0.0,0.0,0.0,0.0,0.0,0.0,0.0,0.0,0.0,0.0,0.0,0.0,0.0,0.0,0.0,0.0,0.0,0.0,0.0,0.0,0.0,0.0,0.0,0.0,0.0,0.0,0.0,0.0,1.0004,0.0,0.0,0.0,0.0,0.0,0.0,0.0,0.0,0.0,0.0,0.0,0.0,0.0,0.0,0.0,0.0,0.0,0.0,0.0,0.0,0.0,0.0,0.0,1.2364,1.2385,1.3215,1.4801,1.3266,1.2412,1.2388,1.0721,0.9805,0.9791,0.0,0.0,0.0,0.0,0.0,0.0,0.0,0.0,0.0,0.0,0.0,0.0,0.0,0.0,0.0,0.0,0.0,0.0,0.0,0.0,0.0,0.0,0.0,0.0,0.0,0.0,0.7961,0.8815,0.9412,0.0,0.0,0.0,0.0,0.0,0.0,0.0,0.0,0.0,0.0,1.3078,1.3849,1.4544,1.462,1.4563,1.4499,1.4497,1.4497,1.4501,1.3785,1.3159,0.0,0.0,0.0,0.0,0.0,0.0,0.0,0.0,0.0,0.0,0.0,0.0,0.0,0.0,0.0,0.0,0.0,0.0,0.0,0.0,0.0,0.0,0.0,0.0,0.0,0.0,0.0,1.0251,1.0194,0.0,0.0,0.0,0.0,0.0,0.0,0.0,0.0,0.0,0.0,0.0,1.0009,1.0012,0.0,0.0,0.0,0.0,0.0,0.0,0.0,0.0,0.0,0.0,0.0,0.0,1.0734,1.2312,1.2392,1.3211,1.482,1.3787,1.3188,1.3179,1.1543,1.038,0.9761,0.0,0.0,0.0,0.0,0.0,0.0,0.0,0.0,0.0,0.0,0.0,0.0,0.0,0.0,0.0,0.0,0.0,0.0,0.0,0.0,0.0,0.0,0.0,0.0,0.0,0.893,0.0,0.0,0.0,0.0,0.0,0.0,0.0,0.0,0.0,0.0,0.0,1.226,1.3079,1.3849,1.44,1.4607,1.4569,1.4533,0.0,0.0,0.0,0.0,0.0,0.0,0.0,0.0,0.0,0.0,0.0,0.0,0.0,0.0,1.0928,1.0364,1.0352,1.0318,1.0089,0.0,0.0,0.0,0.0,0.0,0.0,0.0,0.0,0.0,0.0,0.0,0.0,0.0,0.0,1.1139,0.0,1.1082,0.0,0.0,0.0,0.0,0.0,0.0,0.0,0.0,0.9971,0.9969,0.9963,0.9973,1.0078,0.0,1.0308,1.0308,0.0,0.0,0.0,0.0,0.0,0.0,0.0,0.0,1.1006,1.2354,1.2678,1.3486,1.4793,1.4043,1.3612,1.3574,1.1982,1.0814,1.0163,0.9857,0.9634,0.0,0.0,0.0,0.0,0.0,0.0,0.0,0.0,0.0,0.0,0.0,0.0,0.0,0.0,0.0,0.0,0.0,0.0,0.0,0.0,0.0,0.0,0.0,0.9508,0.0,0.0,0.0,0.0,0.0,0.0,0.0,0.0,0.0,1.1039,1.2051,1.2985,1.3493,1.4223,1.4677,1.4603,0.0,0.0,0.0,0.0,0.0,0.0,0.0,1.4096,1.3482,1.3232,1.2891,1.2278,1.2069,1.212,1.2502,0.0,0.0,1.1246,1.1155,1.1116,1.0852,1.0985,1.1149,1.1142,1.1106,1.1204,0.0,0.0,0.0,0.0,0.0,0.0,0.0,0.0,1.2756,1.274,0.0,1.267,0.0,0.0,0.0,0.0,0.0,0.0,0.0,0.0,1.0025,0.9978,1.0006,1.0025,1.0383,1.1108,1.1145,1.1143,1.1115,1.0367,0.0,0.0,0.0,0.0,0.0,0.0,1.1556,1.2439,1.3195,1.4013,1.484,1.4089,1.364,1.3565,1.2021,1.1109,1.0975,1.0209,0.9743,0.9612,0.9541,0.0,0.0,0.0,0.0,0.0,0.0,0.0,0.0,0.0,0.0,0.0,0.0,0.0,0.0,0.0,0.0,0.0,0.0,0.0,0.0,0.9562,0.0,0.0,0.0,0.0,0.0,0.0,0.0,0.0,0.0,0.0,1.1306,1.255,1.3504,1.355,0.0,0.0,0.0,0.0,1.4538,1.4554,1.457,1.4577,1.452,1.4444,1.4336,1.4154,0.0,0.0,1.3626,1.3536,1.3461,1.3487,1.3337,1.2991,1.2064,1.234,1.2483,1.1849,1.2277,1.2699,1.2684,1.2711,1.2743,1.2069,0.0,0.0,0.0,0.0,1.2447,1.2593,1.2784,1.2785,1.2765,1.2726,1.271,0.0,0.0,0.0,0.0,0.0,0.0,1.114,1.1676,1.1683,1.1678,1.1671,1.169,1.1805,1.2023,1.2033,1.2023,1.2012,1.1803,1.1065,0.9932,0.0,0.0,0.0,0.0,1.2425,1.3215,1.3489,1.4005,1.4813,1.4579,1.4175,1.3621,1.2535,1.1676,1.1081,1.0257,0.9763,0.9671,0.9663,0.0,0.0,0.0,0.0,0.0,0.0,0.0,0.0,0.0,0.0,0.0,0.0,0.0,0.0,0.0,0.0,0.0,0.0,0.0,0.9626,0.9654,0.9675,0.0,0.0,0.0,0.0,0.0,0.0,0.0,0.0,0.0,1.3588,1.3551,1.3719,0.0,0.0,1.46,1.4537,1.4991,1.5365,1.5362,0.0,0.0,0.0,1.6096,1.5827,1.5083,1.437,1.385,1.3695,1.3664,1.3608,1.3577,1.3469,1.3413,1.3635,1.3587,1.3487,1.3334,1.3754,1.4194,1.4232,1.4202,1.4173,1.3814,1.3768,1.3077,1.2994,1.3312,1.3322,1.3514,1.3826,1.382,1.3801,1.3735,1.373,1.3504,1.3097,1.276,0.0,0.0,0.0,1.1968,1.2397,1.239,1.2392,1.2395,1.2395,1.2566,1.2859,1.2869,1.2878,1.2869,1.2868,1.2206,1.0963,0.0,0.0,1.1629,1.2488,1.3137,1.3592,1.3948,1.4343,1.4794,1.4794,1.4569,1.4072,1.2937,1.2111,1.1607,1.0434,0.9771,0.97,0.9669,0.9583,0.0,0.0,0.0,0.0,0.0,0.0,0.0,0.0,0.0,0.0,0.0,0.9076,0.0,0.0,0.0,0.0,0.9501,0.9721,1.0146,1.0194,0.0,0.0,0.0,0.0,0.0,0.0,0.0,1.3105,1.3644,1.4417,1.5486,1.5233,1.5111,1.559,1.557,1.5502,1.5457,0.0,1.6188,1.6188,1.6578,1.6872,1.6835,1.6811,1.6467,1.5463,1.4787,1.4204,1.3831,1.3741,1.3686,1.3675,1.3783,1.3991,1.4369,1.468,1.4796,1.45,1.49,1.5222,1.5002,1.5103,1.5203,1.535,1.526,1.3681,1.3479,1.4191,1.4205,1.4648,1.54,1.5374,1.5351,1.5288,1.5289,1.4815,1.3955,1.307,0.0,0.0,1.2626,1.2596,1.26,1.2604,1.2599,1.2597,1.2612,1.2981,1.3696,1.3705,1.3696,1.3705,1.37,1.3316,1.2616,1.2602,1.2574,1.254,1.3365,1.3789,1.3729,1.4491,1.4859,1.4804,1.4804,1.4794,1.4776,1.3244,1.239,1.2333,1.0731,0.9763,0.9708,0.9643,0.9566,0.951,0.0,0.0,0.0,0.0,0.0,0.0,0.0,0.0,0.0,0.0,0.0,0.0,0.0,0.0,0.0,0.963,0.0,1.0925,1.1061,0.0,0.0,0.0,1.2307,1.2307,1.2409,1.3086,1.4628,0.0,0.0,0.0,0.0,1.7229,1.7294,1.7084,1.6913,1.6908,1.694,1.7023,1.7014,1.7064,1.7105,1.7224,1.7071,1.666,1.5807,1.5232,1.4768,1.4143,1.3837,1.3735,1.3695,1.4186,1.4613,1.4595,1.56,1.6305,1.5536,1.5835,1.5976,1.5462,1.572,1.5925,1.5346,1.5352,1.4951,1.4917,1.5098,1.5086,1.5204,1.538,1.5349,1.5323,1.5287,1.5294,1.5113,1.4756,1.3911,1.3842,1.4373,1.3723,1.373,1.4281,1.4302,1.4312,1.4312,1.424,1.4316,1.4513,1.4522,1.4532,1.4586,1.4578,1.4492,1.4326,1.4357,1.4052,1.3454,1.4254,1.4679,1.468,1.4816,1.4895,1.4878,1.4869,1.4869,1.4785,1.3254,1.239,1.2361,1.0714,0.9795,0.9766,0.9669,0.9582,0.9491,0.9412,0.0,0.0,0.0,0.0,0.0,0.0,0.0,0.0,0.0,0.9243,0.9365,0.0,0.943,0.0,1.0154,1.0954,1.181,1.1901,0.0,0.0,1.2799,1.3179,1.3207,1.4274,1.5185,1.5636,1.6215,1.7009,1.8049,1.8081,1.8261,1.8878,1.7829,1.6964,1.7005,1.7513,1.7886,1.7928,1.8346,1.8724,1.8624,1.8103,1.7532,1.7182,1.6076,1.513,1.477,1.4239,1.3811,1.3761,1.4288,1.4872,1.5328,1.6089,1.6779,1.702,1.7075,1.6961,1.679,1.6832,1.684,1.6455,1.6513,1.6506,1.6518,1.6493,1.5729,1.541,1.5393,1.536,1.5355,1.535,1.5318,1.523,1.5112,1.4648,1.4644,1.5015,1.4905,1.5092,1.5532,1.5893,1.6045,1.6017,1.5979,1.5752,1.5386,1.5386,1.5217,1.4905,1.4894,1.493,1.4952,1.4984,1.4772,1.4361,1.4774,1.5014,1.4987,1.4937,1.4894,1.4887,1.4887,1.4897,1.4813,1.3263,1.2395,1.2392,1.0748,0.9831,0.9796,0.969,0.9614,0.9551,0.9492,0.9439,0.0,0.0,0.0,0.0,0.0,0.0,0.0,0.0,0.0,0.0,0.0,1.0159,0.0,1.1352,0.0,1.2669,1.2771,1.2919,1.3272,1.3737,1.4044,1.4092,1.518,1.6094,1.6498,1.7263,1.8096,1.8924,1.8979,1.9089,1.9582,1.8815,1.8172,1.8171,1.8523,1.8771,1.8808,1.9101,1.9332,1.9307,1.8811,1.8279,1.7758,1.6682,1.568,1.5165,1.4434,1.3979,1.4267,1.483,1.5492,1.6156,1.6831,1.7403,1.7606,1.7635,1.7489,1.737,1.7314,1.7215,1.7821,1.7883,1.7887,1.7948,1.7864,1.6369,1.5731,1.5729,1.573,1.5725,1.5715,1.5654,1.5599,1.5537,1.5532,1.5479,1.5489,1.6155,1.6468,1.6502,1.7169,1.7463,1.7413,1.7393,1.6996,1.628,1.6148,1.5763,1.508,1.4967,1.4952,1.5015,1.5023,1.5045,1.5104,1.5045,1.5017,1.5011,1.4962,1.493,1.4914,1.4896,1.4896,1.483,1.3278,1.241,1.2374,1.0791,0.9872,0.9823,0.9761,0.9669,0.9616,0.9559,0.9517,0.0,0.9509,0.0,0.0,0.0,0.0,0.0,0.0,0.0,0.0,1.0358,1.1196,1.2177,1.2648,1.3093,1.352,1.3625,1.3932,1.4623,1.481,1.4894,1.498,1.5764,1.6595,1.7296,1.8129,1.8946,1.9582,1.9709,1.9709,1.9699,1.963,1.9488,1.9518,1.9447,1.9442,1.9505,1.9457,1.9366,1.9314,1.918,1.8826,1.8066,1.7125,1.6279,1.5524,1.4574,1.4131,1.4828,1.5462,1.6143,1.6863,1.7538,1.794,1.7856,1.7811,1.7704,1.7496,1.737,1.7322,1.7816,1.7825,1.7883,1.7917,1.7897,1.7632,1.7505,1.7499,1.7521,1.7487,1.7419,1.7421,1.7379,1.7317,1.7254,1.7204,1.7222,1.7304,1.7358,1.7351,1.7462,1.7492,1.7482,1.7424,1.7319,1.7121,1.6489,1.6101,1.5938,1.5299,1.5015,1.5069,1.5073,1.5078,1.5104,0.0,0.0,0.0,1.5076,1.5047,1.4992,1.4929,1.4893,1.4855,1.3269,0.0,1.2423,1.0819,0.9888,0.9888,0.9822,0.0,0.0,0.0,0.0,0.0,0.0,0.0,0.0,0.0,0.0,0.0,1.0585,1.0585,1.0567,1.094,1.1719,1.2943,1.3076,1.3457,1.4367,1.4501,1.4606,1.4774,1.5372,1.5773,1.582,1.7092,1.8104,1.8231,1.897,1.9545,1.9726,1.9732,1.971,1.9719,1.9712,1.9696,1.9679,1.962,1.9601,1.9578,1.9521,1.9435,1.9314,1.9265,1.915,1.8738,1.7605,1.6637,1.6197,1.4965,1.4253,1.4911,1.5625,1.6307,1.692,1.7647,1.81,1.7974,1.7931,1.7825,1.7604,1.7472,1.7377,1.9043,0.0,1.911,1.9147,0.0,1.9222,1.9246,1.9228,1.8366,1.7975,1.7913,1.7911,1.7888,1.7849,1.7781,1.7751,1.7764,1.8126,1.8281,1.827,1.8656,1.882,1.8774,1.8754,1.8498,1.808,1.7681,1.7308,1.6923,1.6538,1.6368,1.6359,1.5966,1.5753,1.5782,1.5364,1.5136,1.5107,1.5107,1.507,1.4997,1.4952,1.4954,1.4917,0.0,0.0,0.0,0.0,0.0,0.0,0.0,0.0,0.0,0.0,0.0,0.9714,1.0065,1.029,1.0305,1.0619,1.103,1.1461,1.192,1.2151,1.2087,1.1847,1.2327,1.3846,1.396,1.4325,1.5228,1.5371,1.556,1.5982,1.6402,1.6647,1.681,1.7778,1.8531,1.8619,1.9298,1.9816,1.9837,1.9825,1.9797,1.9806,1.9782,1.9801,1.9798,1.9712,1.9642,1.9597,1.9587,1.9521,1.9402,1.9357,1.9292,1.9064,1.8138,1.7185,1.6617,1.5517,1.4867,1.5526,1.599,1.6501,1.7518,1.8041,1.821,1.813,1.8078,1.8005,1.7833,1.7689,1.7557,2.0332,2.0386,2.0388,2.0444,2.0513,2.0507,2.0543,2.0493,0.0,0.0,0.0,1.8364,1.8349,1.8362,1.8295,1.8258,1.8299,1.8918,1.9211,1.9177,1.9879,2.0171,2.0107,2.0108,1.9745,1.9066,1.8913,1.8528,1.7926,1.779,1.7728,1.7646,1.7005,1.6657,1.6673,1.5859,1.5405,1.5338,1.5178,1.5073,1.5013,1.5011,1.5011,1.5022,1.4223,1.3467,1.2757,1.1895,1.113,1.0491,1.0379,1.0285,1.0149,1.0212,1.0218,1.0151,1.0835,1.1224,1.1241,1.179,1.2224,1.2408,1.3374,1.3794,1.3449,1.29,1.3234,1.4791,1.511,1.5513,1.6176,1.6243,1.6525,1.7251,1.7429,1.7545,1.7635,1.8335,1.8872,1.8903,1.9479,1.9896,1.9896,1.9915,1.9917,1.9917,1.9917,1.9896,1.9894,1.9788,1.9696,1.9652,1.9634,1.9592,1.9521,1.944,1.9357,1.927,1.851,1.769,1.6953,1.6124,1.5911,1.6474,1.6516,1.7047,1.8162,1.8408,1.8316,1.8227,1.8215,1.8185,1.8061,1.7914,1.7786,2.0292,2.0318,2.0375,2.0448,2.0507,2.0505,2.0533,2.0571,2.0331,2.0186,2.0129,2.013,2.0136,2.014,2.0056,2.003,2.0034,2.0089,2.0115,0.0,2.0165,2.0201,2.0185,2.0179,2.0122,1.995,1.9305,1.8928,1.8753,1.8145,1.778,1.7806,1.7668,1.761,1.7546,1.6756,1.6314,1.6289,1.5504,1.5101,1.5088,1.5081,1.509,1.505,1.4255,1.3765,1.3612,1.2826,1.2319,1.2167,1.2137,1.1899,1.141,1.1756,1.1822,1.1414,1.1897,1.2179,1.2113,1.2227,1.2591,1.3308,1.4756,1.5046,1.3644,1.4064,1.4811,1.5736,1.6489,1.6998,1.7107,1.7169,1.7256,1.7456,1.8013,1.841,1.844,1.9149,1.9669,1.9651,1.9813,1.99,1.9921,1.9951,1.9982,1.9982,1.9973,1.9981,1.9919,1.9847,1.9795,1.977,1.9722,1.9656,1.9597,1.9578,1.9479,1.9323,1.8654,1.8039,1.7696,1.701,1.6718,1.7305,1.7317,1.7675,1.8459,1.8531,1.8445,1.8403,1.8333,1.8266,1.8175,1.8133,1.807,2.0271,2.0309,2.0363,2.0416,2.0444,2.0482,2.0504,2.0558,2.0585,2.0575,2.0557,2.0504,2.0506,2.0503,2.0462,2.0454,2.0459,2.0414,2.0392,2.0353,2.0325,2.0324,2.0316,2.0301,2.0311,2.0292,1.9942,1.9747,1.9718,1.9371,1.9214,1.9175,1.8753,1.827,1.7796,1.7399,1.7209,1.7172,1.5849,1.5133,1.5107,1.511,1.5104,1.5106,1.4689,1.4284,1.387,1.3475,1.3039,1.2573,1.2519,1.2379,1.2125,1.2324,1.2738,1.3372,1.324,1.3004,1.2803,1.3772,1.4504,1.486,1.5984,1.6427,1.5666,1.5113,1.5328,1.6601,1.7894,1.852,1.8065,1.8032,1.8231,1.8713,1.9111,1.9301,1.9391,1.9665,1.9943,1.9946,1.9967,1.9949,1.9949,1.9989,1.9989,1.9989,1.9989,1.9998,1.9969,1.9934,1.9884,1.9806,1.9776,1.9716,1.9655,1.9625,1.9569,1.946,1.9068,1.8571,1.8149,1.7597,1.7541,1.7687,1.7712,1.7958,1.8581,1.8648,1.8582,1.8522,1.8483,1.8426,1.8328,1.8278,1.8187,2.0779,2.086,2.0918,2.0969,2.1001,2.1052,2.1071,2.1083,2.116,2.116,2.1122,2.0725,2.051,2.0518,2.051,2.0509,2.0508,2.0509,2.0473,2.0424,2.0434,2.0418,2.0429,2.0433,2.0414,2.0423,2.0433,2.0414,2.0414,2.0423,2.0414,2.0346,1.9747,1.906,1.8401,1.8198,1.8115,1.7997,1.6571,1.5769,1.5709,1.5709,1.5635,1.5427,1.5411,1.5018,1.4258,1.414,1.3825,1.3221,1.3106,1.3071,1.3059,1.3076,1.3655,1.478,1.4378,1.3967,1.3981,1.5433,1.6364,1.6353,1.7094,1.7604,1.7561,1.6646,1.6363,1.7567,1.8947,1.9573,1.9024,1.8894,1.9179,1.9832,1.9938,1.9885,1.9976,1.9996,1.9997,2.002,2.0031,2.0031,2.0041,2.0041,2.005,2.005,2.005,2.005,2.0041,2.004,1.9978,1.9881,1.983,1.9801,1.9735,1.9677,1.9647,1.9606,1.9442,1.9074,1.8583,1.8304,1.8209,1.8216,1.8109,1.8285,1.8726,1.8797,1.8732,1.8675,1.8628,1.8572,1.8456,1.8417,1.8307,2.2431,2.2573,2.2509,2.2648,2.2691,2.2707,2.2726,2.2799,2.2849,2.2883,2.264,2.1259,2.0636,2.0581,2.0572,2.0592,2.0552,2.0507,2.0513,2.0494,2.05,2.0481,2.0493,2.0502,2.0483,2.0502,2.0498,2.0493,2.0488,2.0498,2.0478,2.0502,2.0395,2.026,2.0065,1.9415,1.9052,1.8959,1.8111,1.7624,1.7562,1.7555,1.7177,1.6381,1.6353,1.5962,1.5171,1.5075,1.5022,1.488,1.4863,1.4833,1.4741,1.4762,1.485,1.5073,1.497,1.5163,1.5875,1.6781,1.7272,1.7328,1.8016,1.8496,1.8536,1.9026,1.9092,1.8856,1.9347,1.9811,1.9783,1.9728,1.9779,1.9916,1.9995,1.9979,2.0001,1.9982,2.004,2.0069,2.0098,2.0107,2.0145,2.0163,2.0171,2.0162,2.0162,2.0153,2.0098,2.0108,2.006,1.999,1.9955,1.9875,1.9813,1.9795,1.9741,1.9634,1.9583,1.9392,1.9157,1.9078,1.9115,1.882,1.8894,1.8899,1.8894,1.8932,1.8869,1.8797,1.8733,1.8651,1.8594,1.8563,1.8474,2.2659,2.2738,2.2784,2.2848,2.2937,2.2939,2.2979,2.3037,2.3034,2.3059,2.303,2.2374,2.208,2.2064,2.2061,2.1774,2.1286,2.127,2.0979,2.0542,2.0507,2.051,2.0509,2.0509,2.0505,2.0509,2.0505,2.0505,2.0505,2.0508,2.0508,2.0508,2.0509,2.0495,2.0428,2.0131,1.9958,1.9929,1.9614,1.9401,1.9209,1.8334,1.7644,1.7304,1.7278,1.71,1.6734,1.6689,1.666,1.6637,1.6637,1.6146,1.5119,1.5977,1.6985,1.785,1.737,1.7006,1.6971,1.7718,1.8162,1.8112,1.8885,1.9367,1.9377,1.9707,1.9738,1.9555,1.9754,1.996,1.996,1.9963,1.9957,1.9999,2.0039,2.0059,2.0069,2.0089,2.0136,2.0154,2.0153,2.0162,2.0199,2.0208,2.0198,2.0198,2.0198,2.018,2.0172,2.0173,2.0136,2.0069,2.003,1.9986,1.9917,1.9844,1.9782,1.9722,1.9647,1.9546,1.9508,1.9389,1.9335,1.9243,1.9207,1.9161,1.9043,1.9036,1.8984,1.8905,1.8861,1.8807,1.8779,1.8751,1.8648,2.3325,2.3398,2.3467,2.353,2.3584,2.3601,2.3637,2.3682,2.3713,2.3752,2.3793,2.3784,2.3802,2.374,2.334,2.2733,2.2211,2.2158,2.1684,2.0929,2.0857,2.0741,2.0545,2.0525,2.0525,2.0532,2.0506,2.0506,2.0503,2.051,2.0503,2.0513,2.0506,2.0513,2.0509,2.0509,2.0505,2.0494,2.0509,2.0481,2.025,1.9197,1.8429,1.82,1.8148,1.8033,1.7732,1.7725,1.7722,1.7723,1.7706,1.7138,1.5974,1.6978,1.816,1.9217,1.8872,1.8325,1.789,1.8611,1.9027,1.9043,1.961,1.9932,1.9934,1.993,1.9962,1.996,2.0028,2.0027,1.9986,1.9989,2.002,2.0031,2.0088,2.0108,2.0136,2.0173,2.0209,2.0215,2.0234,2.0223,2.024,2.023,2.0222,2.0222,2.0233,2.0215,2.0215,2.0208,2.019,2.0145,2.0117,2.0078,2.0004,1.9926,1.9856,1.9798,1.9716,1.9651,1.9634,1.9527,1.9442,1.9368,1.9317,1.9264,1.9184,1.9161,1.9104,1.9001,1.8931,1.8914,1.8869,1.8843,1.8825,2.5046,2.505,2.5138,2.513,2.526,2.5273,2.5321,2.5218,2.5366,2.5434,2.5357,2.54,2.5488,2.5366,2.3919,2.3101,2.3047,2.3047,2.2568,2.1794,2.1695,2.1326,2.0626,2.0594,2.0597,2.0579,2.0543,2.0511,2.0519,2.0507,2.0507,2.0507,2.0504,2.0511,2.0503,2.0513,2.0513,2.0507,2.0506,2.0503,2.048,2.0373,1.9852,1.9133,1.9043,1.8684,1.8009,1.7837,1.7847,1.7825,1.7854,1.7701,1.7598,1.7694,1.7849,1.794,1.8473,1.8791,1.8848,1.9459,1.9868,1.9916,1.9915,1.9982,1.9971,2.0007,2.0007,1.9992,2.006,2.0079,2.0021,2.0011,2.0031,2.0088,2.0098,2.0135,2.0198,2.0188,2.0225,2.0267,2.0285,2.0281,2.0289,2.0292,2.0286,2.0279,2.0291,2.0275,2.023,2.0211,2.0195,2.0179,2.0144,2.0088,2.0005,1.9962,1.9928,1.9861,1.9813,1.9751,1.9696,1.9629,1.9569,1.9489,1.9398,1.9338,1.9301,1.9248,1.9177,1.9095,1.9035,1.8992,1.8975,1.8931,1.8904,2.5098,2.5201,2.5228,2.5273,2.5341,2.5351,2.5404,2.5443,2.5512,2.5528,2.5531,2.5539,2.5576,2.5589,2.4997,2.4414,2.3968,2.3939,2.3468,2.2626,2.2069,2.166,2.1413,2.0875,2.0601,2.0601,2.0571,2.0567,2.056,2.0558,2.0558,2.0557,2.056,2.0555,2.0553,2.0507,2.0507,2.0504,2.0509,2.0503,2.051,2.051,2.0321,2.0025,1.9964,1.9797,1.9479,1.9463,1.9435,1.9397,1.9365,1.9367,1.9371,1.9357,1.9328,1.9302,1.9526,1.9702,1.9715,1.9945,2.0108,2.0069,2.0059,2.0059,2.0021,2.003,2.0079,2.0089,2.0116,2.0134,2.0135,2.0088,2.0098,2.0153,2.0151,2.0187,2.0241,2.0256,2.0271,2.0294,2.0292,2.0299,2.0296,2.0296,2.0296,2.0296,2.0299,2.0284,2.0269,2.0273,2.0248,2.0204,2.0188,2.0154,2.0079,2.0018,1.9976,1.9941,1.9896,1.9825,1.9763,1.9735,1.9686,1.9601,1.9489,1.9422,1.9396,1.932,1.9251,1.9177,1.9119,1.911,1.9093,1.906,1.9042,2.5063,2.5156,2.5193,2.5209,2.5262,2.5292,2.5322,2.5378,2.5432,2.5464,2.5466,2.5505,2.5528,2.556,2.5575,2.5313,2.4822,2.4784,2.4325,2.3522,2.2906,2.2517,2.217,2.1392,2.0994,2.0937,2.0693,2.0604,2.0601,2.0601,2.0599,2.0599,2.0604,2.0601,2.059,2.0552,2.0531,2.0537,2.0535,2.0531,2.0526,2.0514,2.0509,2.0487,2.0459,2.0425,2.0428,2.0417,2.0387,2.0349,2.0328,2.0331,2.0328,2.033,2.0304,2.0248,2.0215,2.0229,2.0225,2.0208,2.0182,2.0145,2.0146,2.0117,2.0069,2.0107,2.0145,2.0153,2.0188,2.0222,2.0225,2.0198,2.0188,2.0225,2.024,2.0246,2.0298,2.0294,2.0296,2.0291,2.0327,2.0343,2.0324,2.0298,2.0298,2.0298,2.0291,2.0296,2.0299,2.0294,2.0281,2.0235,2.023,2.0197,2.0153,2.0098,2.002,1.9989,1.9963,1.9908,1.9849,1.9832,1.9792,1.9701,1.9611,1.9531,1.9474,1.9399,1.9329,1.9257,1.9223,1.9189,1.9182,1.9184,1.915,2.5025,2.5104,2.5175,2.5191,2.5214,2.525,2.5291,2.5302,2.5369,2.5387,2.5395,2.5458,2.5485,2.5495,2.5492,2.5502,2.5481,2.5454,2.5099,2.4417,2.4244,2.3787,2.3098,2.222,2.1827,2.1777,2.1051,2.0732,2.084,2.0879,2.0849,2.0732,2.084,2.0859,2.0653,2.0722,2.0661,2.0607,2.0586,2.0604,2.0593,2.0549,2.0523,2.0511,2.0501,2.049,2.0481,2.043,2.04,2.0405,2.0398,2.0388,2.0405,2.0405,2.0379,2.0321,2.0306,2.0294,2.0286,2.0244,2.0211,2.0203,2.0205,2.0179,2.0188,2.0199,2.0208,2.0197,2.0249,2.0292,2.0283,2.0281,2.0269,2.0292,2.0283,2.0296,2.0289,2.0294,2.0291,2.0302,2.0354,2.0379,2.0379,2.035,2.0315,2.0318,2.0314,2.0308,2.031,2.0304,2.0296,2.0294,2.0279,2.0256,2.023,2.0196,2.0107,2.0041,2.0019,1.9974,1.994,1.9903,1.9844,1.9757,1.9675,1.9597,1.9536,1.9468,1.942,1.9357,1.9323,1.9292,1.9295,1.9282,1.9232,2.5015,2.5038,2.5095,2.5132,2.5125,2.516,2.5195,2.5239,2.5273,2.5293,2.5332,2.5341,2.5377,2.5421,2.5439,2.5472,2.5529,2.5518,2.5403,2.5133,2.4625,2.4257,2.3882,2.3104,2.2705,2.2664,2.2444,2.2309,2.2278,2.2268,2.2334,2.2326,2.2297,2.199,2.1451,2.1413,2.119,2.0654,2.0605,2.0604,2.0603,2.0582,2.0579,2.0572,2.0568,2.055,2.0506,2.047,2.0474,2.0462,2.0478,2.0449,2.0418,2.0428,2.0452,2.0394,2.0376,2.0337,2.0308,2.0291,2.026,2.0267,2.0271,2.0275,2.0267,2.0256,2.0254,2.0262,2.0284,2.0292,2.0299,2.0289,2.0306,2.0299,2.0299,2.0296,2.0305,2.0331,2.0379,2.0372,2.0379,2.0385,2.0387,2.0361,2.0361,2.0365,2.0369,2.035,2.0347,2.0321,2.0298,2.0296,2.0299,2.0304,2.0271,2.0246,2.0205,2.0125,2.0079,2.0048,2.0005,1.9949,1.9892,1.9807,1.9741,1.9661,1.9592,1.955,1.9508,1.9464,1.9426,1.942,1.9408,1.9393,1.9344,2.4999,2.4999,2.5044,2.506,2.5066,2.5079,2.5125,2.516,2.5164,2.5187,2.5219,2.5222,2.5264,2.5332,2.5322,2.5369,2.5415,2.5433,2.5453,2.547,2.5043,2.4791,2.4719,2.3942,2.333,2.3105,2.3085,2.3104,2.3098,2.3098,2.3098,2.3088,2.3101,2.2837,2.2313,2.228,2.2,2.1544,2.1235,2.1052,2.0976,2.0752,2.0595,2.0602,2.0601,2.0578,2.0554,2.0548,2.0519,2.0503,2.0508,2.0481,2.0453,2.0482,2.0493,2.0454,2.0448,2.0417,2.0336,2.0349,2.0331,2.0343,2.0339,2.0342,2.0337,2.0325,2.0323,2.0323,2.0334,2.0331,2.0337,2.0344,2.0344,2.0344,2.034,2.0328,2.0337,2.0369,2.0385,2.0387,2.0392,2.0388,2.0384,2.0384,2.0384,2.0384,2.0383,2.0387,2.0385,2.0359,2.0341,2.0331,2.0353,2.0332,2.0304,2.0289,2.0291,2.0225,2.0154,2.0098,2.0049,1.9995,1.9938,1.9844,1.9766,1.9728,1.9665,1.9638,1.9606,1.956,1.9526,1.9507,1.9492,1.9477,1.9438,2.4987,2.4987,2.4985,2.4989,2.5002,2.5032,2.5073,2.5092,2.5098,2.5091,2.5084,2.508,2.5126,2.5171,2.5191,2.5233,2.5274,2.5293,2.5313,2.5385,2.5325,2.5372,2.5315,2.4684,2.4044,2.3475,2.34,2.3389,2.3544,2.3515,2.3243,2.3447,2.3503,2.3241,2.3189,2.3169,2.3074,2.2779,2.2216,2.1874,2.1824,2.1126,2.0727,2.0731,2.0654,2.0595,2.0594,2.0579,2.0557,2.0518,2.0506,2.0492,2.0505,2.0511,2.0508,2.049,2.0506,2.0463,2.042,2.041,2.0403,2.0406,2.0408,2.0395,2.0395,2.0411,2.0401,2.0401,2.0404,2.0406,2.0396,2.0392,2.0403,2.0413,2.0394,2.0388,2.0388,2.0384,2.0384,2.0403,2.0403,2.0399,2.0404,2.0404,2.0395,2.0404,2.0404,2.0399,2.0394,2.0398,2.0387,2.0394,2.0395,2.0376,2.033,2.0332,2.0328,2.0271,2.0215,2.0154,2.0088,2.0037,1.9992,1.9892,1.9807,1.9782,1.9735,1.9699,1.966,1.9625,1.9592,1.9573,1.9573,1.9564,1.9536,2.4851,2.4856,2.4856,2.487,2.4861,2.4884,2.4916,2.4959,2.4954,2.4972,2.4961,2.4955,2.4994,2.5053,2.5065,2.5082,2.5128,2.5139,2.5172,2.5244,2.5274,2.5367,2.549,2.5305,2.5033,2.4781,2.4733,2.4948,2.4938,2.4802,2.4836,2.4953,2.4793,2.4549,2.4086,2.3977,2.3649,2.3189,2.2932,2.2753,2.2618,2.1922,2.1495,2.1438,2.0929,2.065,2.0604,2.0595,2.0568,2.0511,2.0513,2.0513,2.0513,2.0513,2.0513,2.0513,2.0506,2.0505,2.048,2.0472,2.0482,2.0473,2.0468,2.0473,2.0463,2.0483,2.0483,2.0473,2.0468,2.0483,2.0473,2.0473,2.0459,2.0463,2.0433,2.0398,2.0394,2.0384,2.0389,2.04,2.0449,2.0454,2.0463,2.0458,2.0458,2.0477,2.0468,2.0454,2.0444,2.0424,2.0414,2.0413,2.0406,2.0398,2.0379,2.0383,2.0353,2.0306,2.0254,2.0217,2.0136,2.0038,2.0015,1.9959,1.9861,1.9825,1.9767,1.9732,1.9699,1.9683,1.9669,1.9647,1.9665,1.9665,1.9629,2.4813,2.4813,2.4813,2.4813,2.4813,2.4808,2.4828,2.4851,2.4864,2.4855,2.4856,2.4851,2.4889,2.4911,2.4938,2.4958,2.5009,2.5022,2.5058,2.5122,2.5153,2.5262,2.5387,2.5426,2.5449,2.5459,2.5534,2.5518,2.5518,2.5557,2.557,2.5499,2.555,2.5261,2.4856,2.4812,2.4637,2.418,2.3838,2.3593,2.354,2.2777,2.2139,2.185,2.1304,2.1007,2.069,2.0602,2.0586,2.0548,2.0535,2.0546,2.0555,2.0552,2.0552,2.0536,2.0524,2.0506,2.0507,2.051,2.0509,2.0508,2.0508,2.0508,2.0508,2.0508,2.0508,2.0508,2.0508,2.0508,2.0508,2.0513,2.0509,2.0505,2.0473,2.043,2.0459,2.0439,2.0444,2.0449,2.0473,2.0506,2.0505,2.0513,2.0508,2.0504,2.0509,2.0501,2.0496,2.0468,2.0454,2.0444,2.0497,2.0525,2.0557,2.0565,2.0579,2.0508,2.0484,2.0411,2.0173,2.0078,2.0037,1.9995,1.9921,1.9866,1.9818,1.9794,1.9791,1.9767,1.9745,1.9719,1.9729,1.9738,1.9703,2.4779,2.4779,2.4779,2.4789,2.4798,2.4779,2.4774,2.4787,2.4779,2.4764,2.4785,2.4766,2.4787,2.4807,2.4832,2.4875,2.4874,2.4865,2.4906,2.4974,2.5041,2.5146,2.5233,2.5332,2.5359,2.5378,2.545,2.5476,2.5476,2.5476,2.5492,2.5488,2.549,2.5492,2.5357,2.5476,2.5576,2.5286,2.4728,2.4428,2.4282,2.3645,2.2962,2.2406,2.1834,2.1294,2.0784,2.0568,2.057,2.0596,2.0601,2.0596,2.0596,2.0596,2.0597,2.0596,2.0552,2.0527,2.0523,2.0524,2.0525,2.0529,2.0529,2.051,2.051,2.0526,2.0526,2.0526,2.051,2.0597,2.0734,2.064,2.0623,2.0675,2.0661,2.0505,2.0511,2.0511,2.0508,2.0508,2.0508,2.0511,2.0511,2.0511,2.0505,2.051,2.0503,2.0509,2.0505,2.0492,2.0484,2.0495,2.0579,2.0696,2.074,2.0788,2.0793,2.0782,2.079,2.0664,2.0256,2.0117,2.0069,2.0018,1.9955,1.9932,1.9908,1.9884,1.9863,1.984,1.9816,1.9773,1.9751,1.976,1.9748,2.4713,2.4713,2.4713,2.4726,2.472,2.4717,2.4701,2.4654,2.4641,2.4643,2.4647,2.4647,2.4673,2.4704,2.4711,2.4742,2.4744,2.4749,2.4789,2.4837,2.4918,2.4954,2.5016,2.5136,2.5232,2.5263,2.5312,2.5341,2.5341,2.5341,2.5378,2.5423,2.5412,2.5437,2.5497,2.5505,2.5532,2.5485,2.5276,2.5189,2.5032,2.447,2.3917,2.3519,2.245,2.1403,2.0723,2.0514,2.0513,2.0526,2.0575,2.0595,2.0604,2.0596,2.0596,2.0595,2.0583,2.057,2.0573,2.057,2.0574,2.0577,2.0577,2.0572,2.0572,2.0575,2.0572,2.0582,2.0602,2.0909,2.1387,2.0897,2.0999,2.1269,2.1025,2.0652,2.0545,2.0526,2.0511,2.0505,2.0503,2.0513,2.0503,2.051,2.0503,2.0509,2.0545,2.0535,2.0591,2.0672,2.088,2.1077,2.1265,2.149,2.156,2.159,2.1558,2.1475,2.1397,2.1295,2.0871,2.0478,2.0547,2.0336,2.0018,1.9986,1.9954,1.993,1.9898,1.9887,1.9922,2.0035,2.008,1.9986,2.0207,2.4692,2.4686,2.4686,2.4689,2.4666,2.4663,2.4613,2.4556,2.4545,2.4527,2.4517,2.4507,2.4515,2.4568,2.4556,2.4545,2.4561,2.4568,2.4619,2.4692,2.4754,2.4776,2.4808,2.4911,2.5003,2.5111,2.5176,2.5208,2.5221,2.5213,2.5234,2.5303,2.5313,2.5322,2.5397,2.5396,2.5432,2.5447,2.5443,2.5466,2.5391,2.5114,2.4597,2.4061,2.2707,2.148,2.1138,2.0662,2.0545,2.0511,2.0531,2.0581,2.0603,2.0601,2.0601,2.0602,2.0595,2.0596,2.0594,2.0602,2.0601,2.0597,2.0597,2.0597,2.0597,2.0597,2.0841,2.1085,2.1289,2.1541,2.226,2.211,2.2059,2.2162,2.1994,2.1721,2.1582,2.1032,2.0503,2.0507,2.0503,2.0506,2.0511,2.0741,2.0633,2.068,2.1238,2.1267,2.1472,2.1596,2.1896,2.2104,2.2257,2.2403,2.2471,2.2508,2.2507,2.2396,2.2272,2.2177,2.1951,2.1543,2.1177,2.0814,2.0412,2.0049,1.999,1.9957,2.0096,2.0069,2.0194,2.038,2.0693,2.1015,2.1294,2.4695,2.4682,2.4691,2.4641,2.4599,2.458,2.4538,2.4462,2.4487,2.4432,2.4385,2.4367,2.4366,2.4358,2.4366,2.4373,2.4364,2.4372,2.4452,2.454,2.4568,2.4599,2.4642,2.4695,2.4779,2.4938,2.5009,2.506,2.5077,2.5091,2.5103,2.516,2.5171,2.5192,2.5253,2.5273,2.5313,2.535,2.5369,2.5387,2.5448,2.5368,2.5002,2.409,2.2889,2.1876,2.1488,2.0938,2.0488,2.0509,2.051,2.0538,2.0572,2.0591,2.059,2.0581,2.058,2.0583,2.0593,2.0604,2.0605,2.0605,2.078,2.081,2.0839,2.1112,2.1523,2.1836,2.2148,2.2411,2.3158,2.2933,2.3036,2.3199,2.3205,2.3107,2.2851,2.1725,2.1237,2.1072,2.1335,2.1433,2.1299,2.1352,2.1077,2.0991,2.1596,2.2045,2.2252,2.2428,2.2659,2.2911,2.3025,2.3615,2.3792,2.375,2.3704,2.3298,2.3162,2.2985,2.2839,2.2346,2.1841,2.1253,2.0833,2.0642,2.064,2.0904,2.0884,2.0554,2.0771,2.1299,2.1728,2.2101,2.2332,2.4682,2.4682,2.4641,2.4575,2.4515,2.451,2.4452,2.4358,2.4339,2.4302,2.4238,2.4229,2.4238,2.4238,2.4228,2.4247,2.4229,2.4238,2.4266,2.4357,2.4403,2.4437,2.4469,2.4512,2.4587,2.4667,2.4789,2.487,2.4929,2.4932,2.4981,2.5028,2.5053,2.5068,2.5105,2.5128,2.5169,2.5223,2.5243,2.5283,2.5332,2.533,2.5077,2.4258,2.3233,2.2504,2.1727,2.0978,2.0444,2.0477,2.0508,2.0511,2.056,2.0572,2.0616,2.0531,2.0525,2.0551,2.0578,2.0635,2.0615,2.075,2.1228,2.1577,2.1752,2.2164,2.2514,2.2813,2.3023,2.3299,2.4072,2.374,2.3613,2.3779,2.3701,2.331,2.3191,2.2955,2.2669,2.2662,2.2666,2.2467,2.2227,2.2102,2.2055,2.2106,2.2535,2.2847,2.2984,2.3091,2.3216,2.3468,2.3708,2.4482,2.5196,2.512,2.4977,2.4311,2.4007,2.3715,2.3466,2.3004,2.2508,2.2388,2.2106,2.1904,2.1941,2.19,2.1842,2.1652,2.1983,2.2372,2.2612,2.2882,2.3162,2.4666,2.4589,2.4549,2.4507,2.4465,2.4409,2.4338,2.4256,2.4253,2.4186,2.4104,2.4077,2.4086,2.4094,2.4103,2.4094,2.4084,2.4105,2.4135,2.42,2.4228,2.4275,2.4284,2.4338,2.4419,2.4498,2.4564,2.4673,2.4784,2.4847,2.4865,2.4884,2.4921,2.4961,2.4994,2.5028,2.5065,2.5101,2.5134,2.5168,2.5212,2.5253,2.5005,2.4647,2.3959,2.3354,2.2837,2.1611,2.1078,2.1004,2.0686,2.0502,2.0633,2.0968,2.1076,2.0692,2.0574,2.055,2.0684,2.0876,2.1237,2.1334,2.1984,2.2413,2.2543,2.2841,2.3354,2.3757,2.4329,2.4596,2.5026,2.4588,2.4717,2.4874,2.4632,2.4419,2.4401,2.4394,2.4316,2.4128,2.35,2.3107,2.294,2.2912,2.303,2.3265,2.3559,2.3685,2.3763,2.3938,2.4064,2.4294,2.4573,2.4905,2.558,2.5603,2.5631,2.5138,2.4797,2.4498,2.4384,2.4057,2.4135,2.4207,2.385,2.3084,2.2642,2.2402,2.2563,2.2792,2.3051,2.328,2.3433,2.3653,2.3925,2.4599,2.4513,2.4481,2.4438,2.4367,2.4303,2.4257,2.4189,2.4155,2.4087,2.3996,2.3958,2.3967,2.3965,2.3944,2.3944,2.3953,2.3955,2.4014,2.4016,2.4074,2.4104,2.4135,2.4192,2.4247,2.4349,2.4366,2.4462,2.4626,2.4707,2.4729,2.4783,2.4832,2.4861,2.4879,2.4916,2.4957,2.4974,2.5013,2.506,2.5091,2.5138,2.5221,2.5206,2.4505,2.4023,2.3742,2.2601,2.1929,2.1661,2.1266,2.0849,2.1064,2.1855,2.1942,2.1201,2.1021,2.1009,2.1214,2.1593,2.2037,2.2067,2.2859,2.3227,2.3445,2.3653,2.4005,2.4612,2.5105,2.5502,2.5512,2.5597,2.5619,2.5612,2.561,2.5634,2.5494,2.541,2.5326,2.4911,2.415,2.3915,2.3924,2.403,2.4226,2.4256,2.4539,2.4597,2.4705,2.5008,2.5173,2.5323,2.5465,2.5461,2.5666,2.5665,2.5671,2.5506,2.5338,2.5186,2.5255,2.5286,2.5306,2.5085,2.4621,2.3859,2.3371,2.318,2.3571,2.3877,2.4033,2.4157,2.4261,2.4423,2.465,2.4523,2.45,2.4447,2.4339,2.4238,2.422,2.4173,2.4103,2.4065,2.3976,2.3905,2.3846,2.3822,2.3828,2.3786,2.3743,2.3765,2.3807,2.385,2.3864,2.3905,2.3967,2.4018,2.4084,2.4124,2.4219,2.421,2.4348,2.4478,2.4528,2.4606,2.4673,2.4698,2.4723,2.4729,2.4802,2.4822,2.4832,2.4898,2.4957,2.5006,2.5072,2.5141,2.4977,2.453,2.411,2.4063,2.3188,2.2686,2.2588,2.2101,2.2086,2.2593,2.3153,2.3149,2.2824,2.2664,2.2707,2.2586,2.2722,2.2863,2.3009,2.3679,2.4054,2.4287,2.4704,2.5102,2.5399,2.5592,2.5605,2.5621,2.5625,2.5648,2.5671,2.5678,2.5687,2.5693,2.5698,2.5695,2.566,2.4887,2.5047,2.5185,2.5312,2.543,2.5449,2.5449,2.5449,2.5478,2.5625,2.5693,2.57,2.5696,2.5693,2.5695,2.5696,2.5697,2.57,2.5691,2.5668,2.5633,2.5605,2.5557,2.529,2.4894,2.4767,2.4503,2.4495,2.4772,2.4772,2.4696,2.4849,2.5049,2.5212,2.522,2.4446,2.4447,2.433,2.4247,2.42,2.4163,2.4077,2.3985,2.3916,2.3874,2.3828,2.3768,2.3747,2.3721,2.3721,2.3709,2.3709,2.3721,2.3734,2.3747,2.378,2.3822,2.3867,2.3908,2.3958,2.4065,2.4104,2.4153,2.4293,2.4409,2.4487,2.4524,2.4551,2.4582,2.4596,2.4698,2.4736,2.4757,2.4802,2.488,2.494,2.498,2.5019,2.5082,2.4715,2.4576,2.439,2.3857,2.3447,2.3295,2.2805,2.2496,2.2898,2.3397,2.3722,2.3699,2.4107,2.3865,2.314,2.345,2.3626,2.3879,2.4434,2.4954,2.5082,2.5297,2.56,2.559,2.5595,2.56,2.56,2.561,2.5629,2.5648,2.5642,2.565,2.5671,2.5691,2.5697,2.5693,2.5701,2.5701,2.5699,2.5653,2.5595,2.5586,2.5576,2.5576,2.5586,2.5654,2.5693,2.5693,2.5702,2.5699,2.5693,2.5693,2.5698,2.5697,2.5693,2.5677,2.5673,2.5639,2.5595,2.5557,2.5319,2.5292,2.5415,2.5302,2.513,2.5178,2.5253,2.5263,2.5253,2.5252,2.5262,2.4376,2.434,2.4229,2.419,2.4161,2.4063,2.3985,2.3885,2.3825,2.3792,2.3752,2.37,2.3634,2.3611,2.3589,2.3576,2.3598,2.3603,2.3634,2.3634,2.3656,2.3703,2.3759,2.3813,2.3846,2.3946,2.3996,2.4056,2.4144,2.4238,2.4329,2.4367,2.443,2.4429,2.4489,2.4566,2.4641,2.4673,2.4745,2.4796,2.4837,2.4884,2.4898,2.4944,2.4974,2.499,2.493,2.4548,2.4192,2.4043,2.3749,2.3513,2.3669,2.4082,2.437,2.4447,2.4869,2.4722,2.4165,2.4174,2.4438,2.4716,2.4981,2.5392,2.5451,2.5544,2.556,2.5566,2.557,2.5566,2.5572,2.5578,2.5579,2.558,2.5581,2.56,2.561,2.5642,2.5677,2.5697,2.5697,2.5696,2.5699,2.5698,2.5692,2.5693,2.5693,2.5693,2.5693,2.5693,2.5693,2.5693,2.5693,2.5693,2.5699,2.5693,2.5699,2.5701,2.5691,2.5693,2.5681,2.5663,2.5624,2.5589,2.5567,2.5515,2.5458,2.5424,2.5389,2.5351,2.5322,2.5322,2.5312,2.5312,2.5302,2.4275,2.4209,2.4199,2.4151,2.4094,2.3976,2.3867,2.3813,2.3804,2.3757,2.3665,2.3576,2.3485,2.343,2.3407,2.3351,2.3327,2.3327,2.3415,2.3485,2.3522,2.358,2.3669,2.3734,2.3789,2.3825,2.3885,2.3955,2.3998,2.4087,2.4192,2.4303,2.4312,2.4331,2.4358,2.4446,2.4551,2.4601,2.4666,2.4682,2.472,2.4766,2.4817,2.4827,2.4884,2.4916,2.4906,2.4799,2.4762,2.4749,2.4634,2.4602,2.4581,2.4776,2.4892,2.501,2.5109,2.5053,2.4889,2.4923,2.5179,2.5331,2.5405,2.5493,2.5478,2.5489,2.5496,2.5502,2.5514,2.5531,2.5528,2.5525,2.5538,2.5541,2.5549,2.5564,2.5575,2.561,2.5649,2.5685,2.5687,2.5678,2.57,2.5695,2.5696,2.5699,2.5693,2.5693,2.5693,2.5693,2.5693,2.5693,2.5693,2.5693,2.5693,2.5701,2.5696,2.5697,2.5696,2.5701,2.5697,2.5671,2.5649,2.5624,2.5599,2.555,2.5515,2.5466,2.5433,2.5398,2.5379,2.5351,2.5322,2.5303,2.5303,2.4228,2.4199,2.4065,2.3996,2.3976,2.3876,2.3834,2.3798,2.3727,2.3607,2.3522,2.3462,2.3392,2.3354,2.3313,2.328,2.328,2.328,2.3345,2.3369,2.3407,2.3476,2.3576,2.3643,2.3718,2.3798,2.3841,2.3873,2.3937,2.3967,2.4056,2.4142,2.4226,2.4228,2.4284,2.4339,2.4438,2.4524,2.4558,2.4575,2.4631,2.4657,2.4704,2.4751,2.4742,2.4802,2.4837,2.4861,2.4908,2.4949,2.5008,2.5051,2.5091,2.5125,2.5158,2.5191,2.5217,2.5231,2.5263,2.5332,2.5387,2.5394,2.5421,2.5448,2.5434,2.5434,2.5434,2.5445,2.548,2.5497,2.5495,2.5503,2.5524,2.5509,2.5522,2.5538,2.555,2.5578,2.5594,2.5625,2.5643,2.565,2.5671,2.5691,2.5698,2.5701,2.5699,2.5693,2.5693,2.5693,2.5693,2.5693,2.5693,2.5693,2.5693,2.5693,2.5693,2.5694,2.5697,2.5696,2.5691,2.5693,2.5677,2.5654,2.5633,2.5589,2.5547,2.5495,2.5456,2.5433,2.5398,2.5361,2.5332,2.5303,2.5303,2.4153,2.4094,2.3955,2.3876,2.3867,2.3804,2.3759,2.373,2.3629,2.3508,2.3392,2.3351,2.3289,2.325,2.3217,2.3193,2.3168,2.3193,2.3226,2.3265,2.3304,2.3383,2.3453,2.3553,2.3652,2.3752,2.3795,2.3819,2.3867,2.388,2.3983,2.4074,2.4142,2.4172,2.42,2.4238,2.433,2.4411,2.4446,2.4464,2.4523,2.4566,2.4582,2.4641,2.4657,2.4689,2.4736,2.4766,2.4811,2.4856,2.4899,2.4954,2.4999,2.5047,2.5101,2.5139,2.5177,2.5174,2.5201,2.5273,2.537,2.5397,2.5387,2.5396,2.5387,2.5386,2.5403,2.5404,2.5432,2.545,2.5458,2.5474,2.5463,2.5466,2.551,2.5527,2.5528,2.5538,2.555,2.5562,2.559,2.563,2.5648,2.5674,2.57,2.5693,2.5693,2.5698,2.5693,2.5693,2.5693,2.5693,2.5693,2.5693,2.5693,2.5693,2.5693,2.57,2.5696,2.5697,2.5696,2.5701,2.5693,2.5677,2.5659,2.5614,2.5585,2.5547,2.5505,2.545,2.5406,2.537,2.5361,2.5332,2.5303,2.4103,2.3896,2.3846,2.3795,2.3783,2.3807,2.373,2.3607,2.3585,2.3494,2.336,2.3265,2.3201,2.3128,2.307,2.302,2.2995,2.3011,2.3061,2.3144,2.3184,2.3289,2.3392,2.3494,2.3562,2.3678,2.3743,2.3798,2.3795,2.3861,2.3933,2.4005,2.4095,2.4153,2.419,2.4191,2.4238,2.4303,2.4312,2.4348,2.442,2.4473,2.4489,2.4513,2.4556,2.4582,2.4615,2.4663,2.4695,2.4732,2.4787,2.4856,2.495,2.4968,2.5004,2.5027,2.5141,2.516,2.5126,2.5232,2.5312,2.5379,2.5379,2.5369,2.5387,2.5387,2.5377,2.5359,2.536,2.5379,2.5388,2.5415,2.5412,2.5429,2.5474,2.549,2.5483,2.5517,2.5521,2.5531,2.557,2.5607,2.5624,2.5649,2.5688,2.5696,2.5693,2.5699,2.5694,2.5693,2.5693,2.5693,2.5693,2.5693,2.5693,2.5693,2.5693,2.5693,2.57,2.5696,2.5697,2.5698,2.5694,2.5697,2.5681,2.5649,2.5624,2.5595,2.5541,2.5482,2.5423,2.5388,2.537,2.5361,2.5341,2.3967,2.3825,2.3759,2.3682,2.3616,2.3643,2.3607,2.3548,2.3439,2.3327,2.3256,2.316,2.3086,2.3045,2.297,2.2919,2.291,2.2919,2.297,2.3036,2.3111,2.3217,2.3313,2.3415,2.3526,2.362,2.3709,2.3774,2.3798,2.3841,2.3873,2.3946,2.4056,2.4133,2.419,2.42,2.4228,2.4229,2.4238,2.4257,2.433,2.4358,2.4384,2.4383,2.4437,2.4481,2.4532,2.4556,2.4589,2.4629,2.4686,2.4772,2.4832,2.4851,2.495,2.5,2.5092,2.5156,2.5164,2.5231,2.5273,2.5322,2.5351,2.5332,2.5341,2.5332,2.5332,2.5332,2.5313,2.5341,2.5398,2.5406,2.5395,2.5404,2.5422,2.5421,2.5427,2.549,2.5515,2.5517,2.5547,2.5573,2.5603,2.5629,2.567,2.5691,2.57,2.5693,2.5699,2.5702,2.5693,2.5693,2.5693,2.5693,2.5693,2.5693,2.5693,2.5693,2.5693,2.57,2.5696,2.5699,2.5701,2.5697,2.5691,2.5695,2.5659,2.5624,2.5567,2.5519,2.5447,2.5405,2.5387,2.5379,2.5379,2.3876,2.375,2.3678,2.3562,2.3462,2.3517,2.3508,2.3415,2.3289,2.3208,2.3144,2.3061,2.2986,2.2936,2.2885,2.2833,2.2833,2.2868,2.2893,2.2927,2.3045,2.3119,2.3208,2.3327,2.3439,2.3553,2.3665,2.373,2.3795,2.3801,2.3867,2.3967,2.4054,2.4133,2.4181,2.4209,2.4209,2.4209,2.4219,2.422,2.4247,2.4284,2.4275,2.4312,2.4358,2.4403,2.4456,2.449,2.4506,2.4564,2.4613,2.466,2.4723,2.4793,2.4899,2.4964,2.5053,2.5132,2.5185,2.521,2.5242,2.5302,2.5303,2.5293,2.5303,2.5313,2.5303,2.5303,2.5303,2.5322,2.5361,2.536,2.5378,2.5369,2.5387,2.5395,2.5403,2.5458,2.5474,2.547,2.551,2.5544,2.5576,2.5614,2.5649,2.567,2.5694,2.569,2.5693,2.5697,2.5701,2.5693,2.5693,2.5693,2.5693,2.5693,2.5693,2.5693,2.5693,2.5693,2.57,2.5694,2.5699,2.5693,2.57,2.5694,2.5671,2.5644,2.5591,2.5538,2.5485,2.5445,2.5403,2.5387,2.5388,2.3822,2.366,2.3544,2.3415,2.3345,2.3401,2.3383,2.328,2.316,2.3086,2.3077,2.297,2.2893,2.2825,2.2782,2.2756,2.2712,2.2764,2.2808,2.2842,2.2944,2.3045,2.3135,2.3256,2.3392,2.3499,2.3611,2.373,2.3804,2.3801,2.3867,2.3969,2.4045,2.4113,2.4161,2.419,2.419,2.4209,2.42,2.42,2.4219,2.422,2.4229,2.4275,2.4294,2.4321,2.4385,2.4403,2.4437,2.4479,2.4521,2.4596,2.467,2.4776,2.4836,2.4922,2.505,2.5132,2.5185,2.521,2.5232,2.5282,2.5293,2.5303,2.5303,2.5303,2.5303,2.5303,2.5303,2.5303,2.5303,2.5322,2.5341,2.5361,2.5389,2.5388,2.5387,2.5404,2.5403,2.5427,2.5478,2.5507,2.5564,2.5603,2.5624,2.5634,2.5656,2.5684,2.568,2.5693,2.5697,2.5693,2.5693,2.5693,2.5693,2.5693,2.5693,2.5693,2.5693,2.5693,2.5693,2.5698,2.5701,2.5695,2.5701,2.569,2.5683,2.5654,2.5608,2.5564,2.5521,2.5485,2.5455,2.5394,2.5387,2.3678,2.3539,2.336,2.3232,2.3168,2.3095,2.3102,2.3135,2.3061,2.3003,2.2961,2.2859,2.2799,2.2729,2.2685,2.2632,2.2632,2.2659,2.2738,2.279,2.2902,2.2986,2.3111,2.3232,2.3336,2.3453,2.3589,2.37,2.3734,2.3771,2.3846,2.3937,2.4016,2.4074,2.4122,2.417,2.419,2.4199,2.4199,2.42,2.42,2.4209,2.4219,2.4228,2.4229,2.4266,2.4303,2.4367,2.4411,2.4438,2.4497,2.4547,2.461,2.4729,2.485,2.5027,2.5101,2.5129,2.5195,2.521,2.5232,2.5282,2.5302,2.5293,2.5303,2.5303,2.5303,2.5303,2.5303,2.5303,2.5303,2.5313,2.5313,2.5332,2.5361,2.5361,2.5369,2.5387,2.5395,2.5419,2.5453,2.5503,2.5554,2.5579,2.5593,2.5605,2.5615,2.5646,2.5675,2.5693,2.5693,2.5697,2.5693,2.57,2.5693,2.5693,2.5693,2.5693,2.5693,2.5693,2.5693,2.57,2.5693,2.5697,2.5693,2.57,2.5693,2.5658,2.5639,2.5613,2.5573,2.5541,2.5495,2.5455,2.5394,2.3598,2.3407,2.3232,2.3102,2.302,2.2927,2.2944,2.2952,2.2936,2.291,2.2877,2.2764,2.2694,2.2667,2.2614,2.256,2.256,2.2614,2.2667,2.2712,2.2851,2.2944,2.3061,2.3208,2.3313,2.343,2.3553,2.3665,2.3712,2.3771,2.3837,2.3896,2.3976,2.4034,2.4103,2.4161,2.419,2.4199,2.4199,2.4199,2.4199,2.4199,2.4199,2.4209,2.42,2.4219,2.4247,2.433,2.4385,2.443,2.4506,2.453,2.4592,2.4726,2.4884,2.5053,2.5092,2.5132,2.5185,2.521,2.5241,2.5282,2.5302,2.5303,2.5303,2.5303,2.5303,2.5303,2.5303,2.5303,2.5303,2.5303,2.5303,2.5303,2.5313,2.5332,2.5361,2.5389,2.5397,2.5421,2.5455,2.5495,2.5534,2.5561,2.5579,2.5593,2.5615,2.5639,2.5664,2.5694,2.5696,2.5693,2.5697,2.5694,2.57,2.5693,2.5693,2.5693,2.5693,2.5693,2.5693,2.5692,2.5698,2.5693,2.5695,2.5693,2.5697,2.5693,2.5673,2.5649,2.5613,2.5573,2.5541,2.5503,2.5445,2.3522,2.3265,2.3135,2.297,2.2885,2.2859,2.2816,2.279,2.2764,2.2773,2.2764,2.2641,2.2579,2.256,2.2506,2.2479,2.2506,2.2542,2.2587,2.2605,2.279,2.291,2.2986,2.3135,2.3265,2.336,2.3485,2.3634,2.3721,2.378,2.3816,2.3887,2.3967,2.4016,2.4065,2.417,2.4199,2.4199,2.4199,2.4199,2.4199,2.4199,2.4199,2.4199,2.4218,2.4237,2.4284,2.4312,2.4358,2.4446,2.4506,2.4521,2.4645,2.4729,2.4894,2.5031,2.507,2.5125,2.5176,2.521,2.5241,2.5282,2.5302,2.5303,2.5303,2.5303,2.5303,2.5303,2.5303,2.5303,2.5303,2.5303,2.5303,2.5303,2.5313,2.5313,2.5332,2.5361,2.5397,2.5412,2.5456,2.5507,2.5512,2.5541,2.5557,2.5585,2.5608,2.5625,2.5648,2.5684,2.5697,2.5698,2.5695,2.5701,2.5697,2.5693,2.5693,2.5693,2.5693,2.5693,2.5693,2.5693,2.5692,2.5699,2.5693,2.5695,2.5696,2.5694,2.5697,2.5687,2.5654,2.5618,2.5579,2.5538,2.5495,2.3304,2.3119,2.2885,2.2712,2.2614,2.2587,2.2596,2.2552,2.2587,2.2614,2.2649,2.256,2.2506,2.2451,2.2432,2.2424,2.2441,2.2515,2.2533,2.2605,2.2756,2.2868,2.291,2.3095,2.3193,2.3321,2.3462,2.3611,2.3721,2.378,2.3816,2.3846,2.3917,2.4007,2.4045,2.4132,2.4199,2.4199,2.4199,2.4199,2.4199,2.4199,2.4199,2.4199,2.4218,2.4219,2.4247,2.4284,2.4339,2.442,2.447,2.4571,2.4751,2.4774,2.4908,2.5063,2.5082,2.5127,2.5177,2.5212,2.5242,2.5283,2.5303,2.5293,2.5303,2.5303,2.5303,2.5303,2.5303,2.5303,2.5303,2.5303,2.5303,2.5303,2.5303,2.5303,2.5303,2.5351,2.5387,2.5423,2.5468,2.5492,2.5515,2.5527,2.5538,2.5564,2.5587,2.5615,2.5634,2.5656,2.5688,2.57,2.5693,2.5699,2.5696,2.5693,2.5693,2.5693,2.5693,2.5693,2.5693,2.5693,2.5693,2.5693,2.5698,2.5693,2.5697,2.5698,2.5697,2.57,2.5691,2.5654,2.5618,2.5579,2.5534,2.3193,2.2986,2.2738,2.256,2.2506,2.2487,2.2487,2.2487,2.246,2.2468,2.2506,2.246,2.2441,2.2386,2.2349,2.2358,2.2394,2.246,2.2496,2.2596,2.2703,2.2816,2.2919,2.3045,2.3177,2.3321,2.3462,2.362,2.3752,2.3786,2.381,2.3834,2.3908,2.3987,2.4016,2.4122,2.4199,2.4199,2.4199,2.4199,2.4199,2.4199,2.4199,2.4199,2.42,2.421,2.4247,2.4303,2.4366,2.4464,2.4538,2.4642,2.4778,2.4842,2.4959,2.5066,2.512,2.5151,2.519,2.5222,2.5243,2.5283,2.5303,2.5303,2.5303,2.5303,2.5303,2.5303,2.5303,2.5303,2.5303,2.5303,2.5303,2.5303,2.5313,2.5322,2.5341,2.5369,2.5387,2.5403,2.5448,2.5503,2.5517,2.5522,2.5524,2.5525,2.556,2.5604,2.5625,2.5634,2.5668,2.5694,2.5698,2.5695,2.5701,2.5698,2.5693,2.5693,2.5693,2.5693,2.5693,2.5693,2.5693,2.5693,2.5693,2.5698,2.5693,2.5695,2.5701,2.5697,2.57,2.5687,2.5654,2.5608,2.5573,2.3111,2.2833,2.2579,2.2487,2.2487,2.2451,2.2487,2.2496,2.2432,2.2396,2.2441,2.2441,2.2413,2.2358,2.2338,2.2319,2.2347,2.2441,2.2477,2.2559,2.2659,2.2799,2.2893,2.3011,2.3144,2.3321,2.3462,2.3598,2.3709,2.3774,2.3819,2.3825,2.3896,2.3987,2.4016,2.4094,2.417,2.419,2.4199,2.4199,2.4199,2.419,2.4209,2.42,2.42,2.4229,2.4303,2.4366,2.4437,2.4513,2.4603,2.4747,2.4846,2.4917,2.4985,2.5082,2.5154,2.5184,2.522,2.5252,2.5283,2.5303,2.5293,2.5303,2.5303,2.5303,2.5303,2.5303,2.5303,2.5303,2.5303,2.5303,2.5303,2.5313,2.5322,2.5341,2.537,2.5387,2.5394,2.5392,2.5439,2.5503,2.5519,2.5507,2.551,2.5511,2.5538,2.5578,2.5605,2.5625,2.5646,2.5678,2.5693,2.5701,2.5695,2.5696,2.5702,2.5693,2.5693,2.5693,2.5693,2.5693,2.5693,2.5693,2.5693,2.5693,2.5696,2.5699,2.5695,2.5698,2.5694,2.5697,2.5677,2.5629,2.5618,2.291,2.2569,2.246,2.2386,2.2366,2.2321,2.2358,2.2405,2.2405,2.2424,2.2451,2.2451,2.2424,2.2321,2.231,2.2319,2.2338,2.2413,2.2449,2.2513,2.2623,2.2755,2.2859,2.297,2.3086,2.3265,2.3448,2.3585,2.3687,2.3761,2.3807,2.3804,2.3867,2.3946,2.4025,2.4094,2.4151,2.417,2.4199,2.4199,2.4199,2.4209,2.4209,2.4191,2.4201,2.4275,2.4367,2.4438,2.4472,2.4547,2.4626,2.4802,2.4899,2.4977,2.5034,2.5088,2.5158,2.5197,2.5231,2.5272,2.5292,2.5303,2.5303,2.5303,2.5303,2.5303,2.5303,2.5303,2.5303,2.5303,2.5303,2.5303,2.5303,2.5332,2.5351,2.5361,2.5388,2.5395,2.5383,2.5419,2.5466,2.5503,2.5511,2.5517,2.551,2.5521,2.5551,2.5591,2.56,2.5615,2.5638,2.5661,2.569,2.5698,2.5695,2.5694,2.5693,2.5693,2.5693,2.5693,2.5693,2.5693,2.5693,2.5693,2.5693,2.5693,2.5699,2.5693,2.5697,2.5701,2.5693,2.5691,2.5674,2.5649,2.5615]},{"header":{"parameterUnit":"m.s-1","parameterCategory":1,"la1":31.0,"la2":29.5877,"lo1":-88.7671,"lo2":-86.6584,"dy":0.0162,"dx":0.0185,"nx":115,"ny":88,"refTime":"2025-02-22T18:00:00:Z","depth":0,"parameterNumber":3,"parameterNumberName":"V-component_of_WINDS"},"data":[0.0,0.0,0.0,0.0,0.0,0.0,0.0,0.0,0.0,0.0,0.0,0.0,0.0,0.0,0.0,0.0,0.0,0.0,0.0,0.0,0.0,0.0,0.0,0.0,0.0,0.0,0.0,0.0,0.0,0.0,0.0,0.0,0.0,0.0,0.0,0.0,0.0,0.0,0.0,0.0,0.0,0.0,0.0,0.0,0.0,0.0,0.0,0.0,0.0,0.0,0.0,0.0,0.0,0.0,0.0,0.0,0.0,0.0,0.0,0.0,0.0,0.0,0.0,0.0,0.0,0.0,0.0,0.0,0.0,0.0,0.0,0.0,0.0,0.0,0.0,0.0,0.0,0.0,0.0,0.0,0.0,0.0,0.0,0.0,0.0,0.0,0.0,0.0,0.0,0.0,0.0,0.0,0.0,0.0,0.0,0.0,0.0,0.0,0.0,0.0,0.0,0.0,0.0,0.0,0.0,0.0,0.0,0.0,0.0,0.0,0.0,0.0,0.0,0.0,0.0,0.0,0.0,0.0,0.0,0.0,0.0,0.0,0.0,0.0,0.0,0.0,0.0,0.0,0.0,0.0,0.0,0.0,0.0,0.0,0.0,0.0,0.0,0.0,0.0,0.0,0.0,0.0,0.0,0.0,0.0,0.0,0.0,0.0,0.0,0.0,0.0,0.0,0.0,0.0,0.0,0.0,0.0,0.0,0.0,0.0,0.0,0.0,0.0,0.0,0.0,0.0,0.0,0.0,0.0,0.0,0.0,0.0,0.0,0.0,0.0,0.0,0.0,0.0,0.0,0.0,0.0,0.0,0.0,0.0,0.0,0.0,0.0,0.0,0.0,0.0,0.0,0.0,0.0,0.0,0.0,0.0,0.0,0.0,0.0,0.0,0.0,0.0,0.0,0.0,0.0,0.0,0.0,0.0,0.0,0.0,0.0,0.0,0.0,0.0,0.0,0.0,0.0,0.0,0.0,0.0,0.0,0.0,0.0,0.0,0.0,0.0,0.0,0.0,0.0,0.0,0.0,0.0,0.0,0.0,0.0,0.0,0.0,0.0,0.0,0.0,0.0,0.0,0.0,0.0,0.0,0.0,0.0,0.0,0.0,0.0,0.0,0.0,0.0,0.0,0.0,0.0,0.0,0.0,0.0,0.0,0.0,0.0,0.0,0.0,0.0,0.0,0.0,0.0,0.0,0.0,0.0,0.0,0.0,0.0,0.0,0.0,0.0,0.0,0.0,0.0,0.0,0.0,0.0,0.0,0.0,0.0,0.0,0.0,0.0,0.0,0.0,0.0,0.0,0.0,0.0,0.0,0.0,0.0,0.0,0.0,0.0,0.0,0.0,0.0,0.0,0.0,0.0,0.0,0.0,0.0,0.0,0.0,0.0,0.0,0.0,0.0,0.0,0.0,0.0,0.0,0.0,0.0,0.0,0.0,0.0,0.0,0.0,0.0,0.0,0.0,0.0,0.0,0.0,0.0,0.0,0.0,0.0,0.0,0.0,0.0,0.0,0.0,0.0,0.0,0.0,0.0,0.0,0.0,0.0,0.0,0.0,0.0,0.0,0.0,0.0,0.0,0.0,0.0,0.0,0.0,0.0,0.0,0.0,0.0,0.0,0.0,0.0,0.0,0.0,0.0,0.0,0.0,0.0,0.0,0.0,0.0,0.0,0.0,0.0,0.0,0.0,0.0,0.0,0.0,0.0,0.0,0.0,0.0,0.0,0.0,0.0,0.0,0.0,0.0,0.0,0.0,0.0,0.0,0.0,0.0,0.0,0.0,0.0,0.0,0.0,0.0,0.0,0.0,0.0,0.0,0.0,0.0,0.0,0.0,0.0,0.0,0.0,0.0,0.0,0.0,0.0,0.0,0.0,0.0,0.0,0.0,0.0,0.0,0.0,0.0,0.0,0.0,0.0,0.0,0.0,0.0,0.0,0.0,0.0,0.0,0.0,0.0,0.0,0.0,0.0,0.0,0.0,0.0,0.0,0.0,0.0,0.0,0.0,0.0,0.0,0.0,0.0,0.0,0.0,0.0,0.0,0.0,0.0,0.0,0.0,0.0,0.0,0.0,0.0,0.0,0.0,0.0,0.0,0.0,0.0,0.0,0.0,0.0,0.0,0.0,0.0,0.0,0.0,0.0,0.0,0.0,0.0,0.0,0.0,0.0,0.0,0.0,0.0,0.0,0.0,0.0,0.0,0.0,0.0,0.0,0.0,0.0,0.0,0.0,0.0,0.0,0.0,0.0,0.0,0.0,0.0,0.0,0.0,0.0,0.0,0.0,0.0,0.0,0.0,0.0,0.0,0.0,0.0,0.0,0.0,0.0,0.0,0.0,0.0,0.0,0.0,0.0,0.0,0.0,0.0,0.0,0.0,0.0,0.0,0.0,0.0,0.0,0.0,0.0,0.0,0.0,0.0,0.0,0.0,0.0,0.0,0.0,0.0,0.0,0.0,0.0,0.0,0.0,0.0,0.0,0.0,0.0,0.0,0.0,0.0,0.0,0.0,0.0,0.0,0.0,0.0,0.0,0.0,0.0,0.0,0.0,0.0,0.0,0.0,0.0,0.0,0.0,0.0,0.0,0.0,0.0,0.0,0.0,0.0,0.0,0.0,0.0,0.0,0.0,0.0,0.0,0.0,0.0,0.0,0.0,0.0,0.0,0.0,0.0,0.0,0.0,0.0,0.0,0.0,0.0,0.0,0.0,0.0,0.0,0.0,0.0,0.0,0.0,0.0,0.0,0.0,0.0,0.0,0.0,0.0,0.0,0.0,0.0,0.0,0.0,0.0,0.0,0.0,0.0,0.0,0.0,0.0,0.0,0.0,0.0,0.0,0.0,0.0,0.0,0.0,0.0,0.0,0.0,0.0,0.0,0.0,0.0,0.0,0.0,0.0,0.0,0.0,0.0,0.0,0.0,0.0,0.0,0.0,0.0,0.0,0.0,0.0,0.0,0.0,0.0,0.0,0.0,0.0,0.0,0.0,0.0,0.0,0.0,0.0,0.0,0.0,0.0,0.0,0.0,0.0,0.0,0.0,0.0,0.0,0.0,0.0,0.0,0.0,0.0,0.0,0.0,0.0,0.0,0.0,0.0,0.0,0.0,0.0,0.0,0.0,0.0,0.0,0.0,0.0,0.0,0.0,0.0,0.0,0.0,0.0,0.0,0.0,0.0,0.0,0.0,0.0,0.0,0.0,0.0,0.0,0.0,0.0,0.0,0.0,0.0,0.0,0.0,0.0,0.0,0.0,0.0,0.0,0.0,0.0,0.0,0.0,0.0,0.0,0.0,0.0,0.0,0.0,0.0,0.0,0.0,0.0,0.0,0.0,0.0,0.0,0.0,0.0,0.0,0.0,0.0,0.0,0.0,0.0,0.0,0.0,0.0,0.0,0.0,0.0,0.0,0.0,0.0,0.0,0.0,0.0,0.0,0.0,0.0,0.0,0.0,0.0,0.0,0.0,0.0,0.0,0.0,0.0,0.0,0.0,0.0,0.0,0.0,0.0,0.0,0.0,0.0,0.0,0.0,0.0,0.0,0.0,0.0,0.0,0.0,0.0,0.0,0.0,0.0,0.0,0.0,0.0,0.0,0.0,0.0,0.0,0.0,0.0,0.0,0.0,0.0,0.0,0.0,0.0,0.0,0.0,0.0,0.0,0.0,0.0,0.0,0.0,0.0,0.0,0.0,0.0,0.0,0.0,0.0,0.0,0.0,0.0,0.0,0.0,0.0,0.0,0.0,0.0,0.0,0.0,0.0,0.0,0.0,0.0,0.0,0.0,0.0,0.0,0.0,0.0,0.0,0.0,0.0,0.0,0.0,0.0,0.0,0.0,0.0,0.0,0.0,0.0,0.0,0.0,0.0,0.0,0.0,0.0,0.0,0.0,0.0,0.0,0.0,0.0,0.0,0.0,0.0,0.0,0.0,0.0,0.0,0.0,0.0,0.0,0.0,0.0,0.0,0.0,0.0,0.0,0.0,0.0,0.0,0.0,0.0,0.0,0.0,0.0,0.0,0.0,0.0,0.0,0.0,0.0,0.0,0.0,0.0,0.0,0.0,0.0,0.0,0.0,0.0,0.0,0.0,0.0,0.0,0.0,0.0,0.0,0.0,0.0,0.0,0.0,0.0,0.0,0.0,0.0,0.0,0.0,0.0,0.0,0.0,0.0,0.0,0.0,0.0,0.0,0.0,0.0,0.0,0.0,0.0,0.0,0.0,0.0,0.0,0.0,0.0,0.0,0.0,0.0,0.0,0.0,0.0,0.0,0.0,-0.4187,0.0,0.0,0.0,0.0,0.0,0.0,0.0,0.0,0.0,0.0,0.0,0.0,0.0,0.0,0.0,0.0,0.0,0.0,0.0,0.0,0.0,0.0,0.0,0.0,0.0,0.0,0.0,0.0,0.0,0.0,0.0,0.0,0.0,0.0,0.0,0.0,0.0,0.0,0.0,0.0,0.0,0.0,0.0,0.0,0.0,0.0,0.0,0.0,0.0,0.0,0.0,0.0,0.0,0.0,0.0,0.0,0.0,0.0,0.0,0.0,0.0,0.0,0.0,0.0,0.0,0.0,0.0,0.0,0.0,0.0,0.0,0.0,0.0,0.0,0.0,0.0,0.0,0.0,0.0,0.0,0.0,0.0,0.0,0.0,0.0,0.0,0.0,0.0,0.0,0.0,0.0,0.0,0.0,0.0,0.0,0.0,0.0,0.0,0.0,0.0,0.0,0.0,0.0,0.0,0.0,0.0,0.0,0.0,0.0,0.0,-0.5402,-0.4546,-0.3928,-0.3474,-0.3277,0.0,0.0,0.0,0.0,0.0,0.0,0.0,0.0,0.0,0.0,0.0,0.0,0.0,0.0,0.0,0.0,0.0,0.0,0.0,0.0,0.0,0.0,0.0,0.0,0.0,0.0,0.0,0.0,0.0,0.0,0.0,0.0,0.0,0.0,0.0,0.0,0.0,0.0,0.0,0.0,0.0,0.0,0.0,0.0,0.0,0.0,0.0,0.0,0.0,0.0,0.0,0.0,0.0,0.0,0.0,0.0,0.0,0.0,0.0,0.0,0.0,0.0,0.0,0.0,0.0,0.0,0.0,0.0,0.0,0.0,0.0,0.0,0.0,0.0,0.0,0.0,0.0,0.0,0.0,0.0,0.0,0.0,0.0,0.0,0.0,0.0,0.0,0.0,0.0,0.0,0.0,0.0,0.0,0.0,0.0,0.0,0.0,0.0,0.0,0.0,0.0,0.0,0.0,0.0,0.0,0.0,0.0,0.0,0.0,0.0,0.0,0.0,-0.3024,-0.2703,-0.2567,0.0,0.0,0.0,0.0,0.0,0.0,0.0,0.0,0.0,0.0,0.0,0.0,0.0,0.0,0.0,0.0,0.0,0.0,0.0,0.0,0.0,0.0,0.0,0.0,0.0,0.0,0.0,0.0,0.0,0.0,0.0,0.0,0.0,0.0,0.0,0.0,0.0,0.0,0.0,0.0,0.0,0.0,0.0,0.0,0.0,0.0,0.0,0.0,0.0,0.0,0.0,0.0,0.0,0.0,0.0,0.0,0.0,0.0,0.0,0.0,0.0,0.0,0.0,0.0,0.0,0.0,0.0,0.0,0.0,0.0,0.0,0.0,0.0,0.0,0.0,0.0,0.0,0.0,0.0,0.0,0.0,0.0,0.0,0.0,0.0,0.0,0.0,0.0,0.0,0.0,0.0,0.0,0.0,0.0,0.0,0.0,0.0,0.0,0.0,0.0,0.0,0.0,0.0,0.0,0.0,0.0,0.0,0.0,0.0,0.0,-0.315,-0.2732,-0.2326,0.0,-0.2096,0.0,0.0,0.0,0.0,0.0,0.0,0.0,0.0,0.0,0.0,0.0,0.0,0.0,0.0,0.0,0.0,0.0,0.0,0.0,0.0,0.0,0.0,0.0,0.0,0.0,0.0,0.0,0.0,0.0,0.0,0.0,0.0,0.0,0.0,0.0,0.0,0.0,0.0,0.0,0.0,0.0,0.0,0.0,0.0,0.0,0.0,0.0,0.0,0.0,0.0,0.0,0.0,0.0,0.0,0.0,0.0,0.0,0.0,0.0,0.0,0.0,0.0,0.0,0.0,0.0,0.0,0.0,0.0,0.0,0.0,0.0,0.0,0.0,0.0,0.0,0.0,0.0,0.0,0.0,0.0,0.0,0.0,0.0,0.0,0.0,0.0,0.0,0.0,0.0,0.0,0.0,0.0,0.0,0.0,0.0,0.0,0.0,0.0,0.0,0.0,0.0,0.0,0.0,0.0,0.0,0.0,0.0,0.0,0.0,0.0,-0.2399,-0.2062,-0.176,-0.1586,0.0,0.0,0.0,0.0,0.0,0.0,0.0,0.0,0.0,0.0,0.0,0.0,0.0,0.0,0.0,0.0,0.0,0.0,0.0,0.0,0.0,0.0,0.0,0.0,0.0,0.0,0.0,0.0,0.0,0.0,0.0,0.0,0.0,0.0,0.0,0.0,0.0,0.0,0.0,0.0,0.0,0.0,0.0,0.0,0.0,0.0,0.0,0.0,0.0,0.0,0.0,0.0,0.0,0.0,0.0,0.0,0.0,0.0,0.0,0.0,0.0,0.0,0.0,0.0,0.0,0.0,0.0,0.0,0.0,0.0,0.0,0.0,0.0,0.0,0.0,0.0,0.0,0.0,0.0,0.0,0.0,0.0,0.0,0.0,0.0,0.0,0.0,0.0,0.0,0.0,0.0,0.0,0.0,0.0,0.0,0.0,0.0,0.0,0.0,0.0,0.0,0.0,0.0,0.0,0.0,0.0,0.0,0.0,0.0,0.0,-0.2104,0.0,-0.1469,-0.1227,-0.1116,-0.1094,0.0,0.0,0.0,0.0,0.0,0.0,0.0,0.0,0.0,0.0,0.0,0.0,0.0,0.0,0.0,0.0,0.0,0.0,0.0,0.0,0.0,0.0,0.0,0.0,0.0,0.0,0.0,0.0,0.0,0.0,0.0,0.0,0.0,0.0,0.0,0.0,0.0,0.0,0.0,0.0,0.0,0.0,0.0,0.0,0.0,0.0,0.0,0.0,0.0,0.0,0.0,0.0,0.0,0.0,0.0,0.0,0.0,0.0,0.0,0.0,0.0,0.0,0.0,0.0,0.0,0.0,0.0,0.0,0.0,0.0,0.0,0.0,0.0,0.0,0.0,0.0,0.0,0.0,0.0,0.0,0.0,0.0,0.0,0.0,0.0,0.0,0.0,0.0,0.0,0.0,0.0,0.0,0.0,0.0,0.0,0.0,0.0,0.0,0.0,0.0,0.0,0.0,0.0,0.0,0.0,0.0,0.0,0.0,0.0,-0.1539,-0.1183,-0.0824,-0.069,-0.0601,0.0,0.0,0.0,0.0,0.0,0.0,0.0,0.0,0.0,0.0,0.0,0.0,0.0,0.0,0.0,0.0,0.0,0.0,0.0,0.0,0.0,0.0,0.0,0.0,0.0,0.0,0.0,0.0,0.0,0.0,0.0,0.0,0.0,0.0,0.0,0.0,0.0,0.0,0.0,0.0,0.0,0.0,0.0,0.0,0.0,0.0,0.0,0.0,0.0,0.0,0.0,0.0,0.0,0.0,0.0,0.0,0.0,0.0,0.0,0.0,0.0,0.0,0.0,0.0,0.0,0.0,0.0,0.0,0.0,0.0,0.0,0.0,0.0,0.0,0.0,0.0,0.0,0.0,0.0,0.0,0.0,0.0,0.0,0.0,0.0,0.0,0.0,0.0,0.0,0.0,0.0,0.0,0.0,0.0,0.0,0.0,0.0,0.0,0.0,0.0,0.0,0.0,0.0,0.0,0.0,0.0,0.0,0.0,0.0,-0.1247,-0.0824,-0.0467,-0.0156,-0.0067,0.0,0.0,0.0,0.0,0.0,0.0,0.0,0.0,0.0,0.0,0.0,0.0,0.0,0.0,0.0,0.0,0.0,0.0,0.0,0.0,0.0,0.0,0.0,0.0,0.0,0.0,0.0,0.0,0.0,0.0,0.0,0.0,0.0,0.0,0.0,0.0,0.0,0.0,0.0,0.0,0.0,0.0,0.0,0.0,0.0,0.0,0.0,0.0,0.0,0.0,0.0,0.0,0.0,0.0,0.0,0.0,0.0,0.0,0.0,0.0,0.0,0.0,0.0,0.0,0.0,0.0,0.0,0.0,0.0,0.0,0.0,0.0,0.0,0.0,0.0,0.0,0.0,0.0,0.0,0.0,0.0,0.0,0.0,0.0,0.0,0.0,0.0,0.0,0.0,0.0,0.0,0.0,0.0,0.0,0.0,0.0,0.0,0.0,0.0,0.0,0.0,0.0,0.0,0.0,0.0,0.0,0.0,0.0,0.0,0.0,-0.049,0.0,0.0333,0.0,0.0798,0.0909,0.0,0.0,0.0,0.0,0.0,0.0,0.0,0.0,0.0,0.0,0.0,0.0,0.0,0.0,0.0,0.0,0.0,0.0,0.0,0.0,0.0,0.0,0.0,0.0,0.0,0.0,0.0,0.0,0.0,0.0,0.0,0.0,0.0,0.0,0.0,0.0,0.0,0.0,0.0,0.0,0.0,0.0,0.0,0.0,0.0,0.0,0.0,0.0,0.0,0.0,0.0,0.0,0.0,0.0,0.0,0.0,0.0,0.0,0.0,0.0,0.0,0.0,0.0,0.0,0.0,0.0,0.0,0.0,0.0,0.0,0.0,0.0,0.0,0.0,0.0,0.0,0.0,0.0,0.0,0.0,0.0,0.0,0.0,0.0,0.0,0.0,0.0,0.0,0.0,0.0,0.0,0.0,0.0,0.0,0.0,0.0,0.0,0.0,0.0,0.0,0.0,0.0,0.0,0.0,0.0,0.0,0.0,0.0,-0.0311,0.0401,0.0864,0.1195,0.1419,0.1905,0.2078,0.0,0.0,0.0,0.0,0.0,0.0,0.0,0.0,0.0,0.0,0.0,0.0,0.0,0.0,0.0,0.0,0.0,0.0,0.0,0.0,0.0,0.0,0.0,0.0,0.0,0.0,0.0,0.0,0.0,0.0,0.0,0.0,0.0,0.0,0.0,0.0,0.0,0.0,0.0,0.0,0.0,0.0,0.0,0.0,0.0,0.0,0.0,0.0,0.0,0.0,0.0,0.0,0.0,0.0,0.0,0.0,0.0,0.0,0.0,0.0,0.0,0.0,0.0,0.0,0.0,0.0,0.0,0.0,0.0,0.0,0.0,0.0,0.0,0.0,0.0,0.0,0.0,0.0,0.0,0.0,0.0,0.0,0.0,0.0,0.0,0.0,0.0,0.0,0.0,0.0,0.0,0.0,0.0,0.0,0.0,0.0,0.0,0.0,0.0,0.0,0.0,0.0,0.0,0.0,0.0,0.0,0.0,0.0,0.0,0.1088,0.1506,0.1878,0.2211,0.2385,0.2558,0.0,0.0,0.0,0.0,0.0,0.0,0.0,0.0,0.0,0.0,0.0,0.0,0.0,0.0,0.0,0.0,0.0,0.0,0.0,0.0,0.0,0.0,0.0,0.0,0.0,0.0,0.0,0.0,0.0,0.0,0.0,0.0,0.0,0.0,0.0,0.0,0.0,0.0,0.0,0.0,0.0,0.0,0.0,0.0,0.0,0.0,0.0,0.0,0.0,0.0,0.0,0.0,0.0,0.0,0.0,0.0,0.0,0.0,0.0,0.0,0.0,0.0,0.0,0.0,0.0,0.0,0.0,0.0,0.0,0.0,0.0,0.0,0.0,0.0,0.0,0.0,0.0,0.0,0.0,0.0,0.0,0.0,0.0,0.0,0.0,0.0,0.0,0.0,0.0,0.0,0.0,0.0,0.0,0.0,0.0,0.0,0.0,0.0,0.0,0.0,0.0,0.0,0.0,0.0,0.0,0.0,0.0,0.0,0.0,0.1774,0.2141,0.2514,0.2864,0.2947,0.3114,0.3421,0.0,0.0,0.0,0.0,0.0,0.0,0.0,0.0,0.0,0.0,0.0,0.0,0.0,0.0,0.0,0.0,0.0,0.0,0.0,0.0,0.0,0.0,0.0,0.0,0.0,0.0,0.0,0.0,0.0,0.0,0.0,0.0,0.0,0.0,0.0,0.0,0.0,0.0,0.0,0.0,0.0,0.0,0.0,0.0,0.0,0.0,0.0,0.0,0.0,0.0,0.0,0.0,0.0,0.0,0.0,0.0,0.0,0.0,0.0,0.0,0.0,0.0,0.0,0.0,0.0,0.0,0.0,0.0,0.0,0.0,0.0,0.0,0.0,0.0,0.0,0.0,0.0,0.0,0.0,0.0,0.0,0.0,0.0,0.0,0.0,0.0,0.0,0.0,0.0,0.0,0.0,0.0,0.0,0.0,0.0,0.0,0.0,0.0,0.0,0.0,0.0,0.0,0.0,0.0,0.0,0.0,0.0,0.0,0.2403,0.274,0.3035,0.3296,0.35,0.3727,0.0,0.0,0.0,0.0,0.0,0.0,0.0,0.0,0.0,0.0,0.0,0.0,0.0,0.0,0.0,0.0,0.0,0.0,0.0,0.0,0.0,0.0,0.0,0.0,0.0,0.0,0.0,0.0,0.0,0.0,0.0,0.0,0.0,0.0,0.0,0.0,0.0,0.0,0.0,0.0,0.0,0.0,0.0,0.0,0.0,0.0,0.0,0.0,0.0,0.0,0.0,0.0,0.0,0.0,0.0,0.0,0.0,0.0,0.0,0.0,0.0,0.0,0.0,0.0,0.0,0.0,0.0,0.0,0.0,0.0,0.0,0.0,0.0,0.0,0.0,0.0,0.0,0.0,0.0,0.0,0.0,0.0,0.0,0.0,0.0,0.0,0.0,0.0,0.0,0.0,0.0,0.0,0.0,0.0,0.0,0.0,0.0,0.0,0.0,0.0,0.0,0.0,0.0,0.0,0.0,0.0,0.0,0.0,0.0,0.2422,0.2783,0.312,0.3434,0.3647,0.3937,0.0,0.0,0.0,0.0,0.0,0.0,0.0,0.0,0.0,0.0,0.0,0.0,0.0,0.0,0.0,0.0,0.0,0.0,0.0,0.0,0.0,0.0,0.0,0.0,0.0,0.0,0.0,0.0,0.0,0.0,0.0,0.0,0.0,0.0,0.0,0.0,0.0,0.0,0.0,0.0,0.0,0.0,0.0,0.0,0.0,0.0,0.0,0.0,0.0,0.0,0.0,0.0,0.0,0.0,0.0,0.0,0.0,0.0,0.0,0.0,0.0,0.0,0.0,0.0,0.0,0.0,0.0,0.0,0.0,0.0,0.0,0.0,0.0,0.0,0.0,0.0,0.0,0.0,0.0,0.0,0.0,0.0,0.0,0.0,0.0,0.0,0.0,0.0,0.0,0.0,0.0,0.0,0.0,0.0,0.0,0.0,0.0,0.0,0.0,0.0,0.0,0.0,0.0,0.0,0.0,0.0,0.0,0.0,0.2265,0.2449,0.2764,0.3038,0.3311,0.3647,0.4044,0.0,0.0,0.0,0.0,0.0,0.0,0.0,0.0,0.0,0.0,0.0,0.0,0.0,0.0,0.0,0.0,0.0,0.0,0.0,0.0,0.0,0.0,0.0,0.0,0.0,0.0,0.0,0.0,0.0,0.0,0.0,0.0,0.0,0.0,0.0,0.0,0.0,0.0,0.0,0.0,0.0,0.0,0.0,0.0,0.0,0.0,0.0,0.0,0.0,0.0,0.0,0.0,0.0,0.0,0.0,0.0,0.0,0.0,0.0,0.0,0.0,0.0,0.0,0.0,0.0,0.0,0.0,0.0,0.0,0.0,0.0,0.0,0.0,0.0,0.0,0.0,0.0,0.0,0.0,0.0,0.0,0.0,0.0,0.0,0.0,0.0,0.0,0.0,0.0,0.0,0.0,0.0,0.0,0.0,0.0,0.0,0.0,0.0,0.0,0.0,0.0,0.0,0.0,0.0,0.0,0.0,0.0,0.0,0.2381,0.2536,0.2707,0.2896,0.3111,0.3619,0.4035,0.0,0.0,0.0,0.0,0.0,0.0,0.0,0.0,0.0,0.0,0.0,0.0,0.0,0.0,0.0,0.0,0.0,0.0,0.0,0.0,0.0,0.0,0.0,0.0,0.0,0.0,0.0,0.0,0.0,0.0,0.0,0.0,0.0,0.0,0.0,0.0,0.0,0.0,0.0,0.0,0.0,0.0,0.0,0.0,0.0,0.0,0.0,0.0,0.0,0.0,0.0,0.0,0.0,0.0,0.0,0.0,0.0,0.0,0.0,0.0,0.0,0.0,0.0,0.0,0.0,0.0,0.0,0.0,0.0,0.0,0.0,0.0,0.0,0.0,0.0,0.0,0.0,0.0,0.0,0.0,0.0,0.0,0.0,0.0,0.0,0.0,0.0,0.0,0.0,0.0,0.0,0.0,0.0,0.0,0.0,0.0,0.0,0.0,0.0,0.0,0.0,0.0,0.0,0.0,0.0,0.0,0.0,0.0,0.2466,0.2637,0.2702,0.2851,0.3092,0.3517,0.3894,0.0,0.0,0.0,0.0,0.0,0.0,0.0,0.0,0.0,0.0,0.0,0.0,0.0,0.0,0.0,0.0,0.0,0.0,0.0,0.0,0.0,0.0,0.0,0.0,0.0,0.0,0.0,0.0,0.0,0.0,0.0,0.0,0.0,0.0,0.0,0.0,0.0,0.0,0.0,0.0,0.0,0.0,0.0,0.0,0.0,0.0,0.0,0.0,0.332,0.0,0.0,0.0,0.0,0.0,0.0,0.0,0.0,0.0,0.0,0.0,0.0,0.0,0.0,0.0,0.0,0.0,0.0,0.0,0.0,0.0,0.0,0.0,0.0,0.0,0.0,0.0,0.0,0.0,0.0,0.0,0.0,0.0,0.0,0.0,0.0,0.0,0.0,0.0,0.0,0.0,0.0,0.0,0.0,0.0,0.0,0.0,0.0,0.0,0.0,0.0,0.0,0.0,0.0,0.0,0.0,0.0,0.0,0.0,0.274,0.2802,0.2984,0.3124,0.3196,0.3496,0.38,0.0,0.0,0.0,0.0,0.0,0.0,0.0,0.0,0.0,0.0,0.0,0.0,0.0,0.0,0.0,0.0,0.0,0.0,0.0,0.0,0.0,0.0,0.0,0.0,0.0,0.0,0.0,0.0,0.0,0.0,0.0,0.0,0.0,0.0,0.0,0.0,0.0,0.0,0.0,0.0,0.0,0.0,0.0,0.0,0.0,0.0,0.0,0.0,0.0,0.0,0.0,0.0,0.0,0.0,0.0,0.0,0.0,0.0,0.0,0.0,0.0,0.0,0.0,0.0,0.0,0.0,0.0,0.0,0.0,0.0,0.0,0.0,0.0,0.0,0.0,0.0,0.0,0.0,0.0,0.0,0.0,0.0,0.0,0.0,0.0,0.0,0.0,0.0,0.0,0.0,0.0,0.0,0.0,0.0,0.0,0.0,0.0,0.0,0.0,0.0,0.0,0.0,0.0,0.0,0.0,0.0,0.0,0.2897,0.3061,0.2979,0.3293,0.3438,0.3368,0.354,0.3762,0.4012,0.0,0.0,0.0,0.0,0.0,0.0,0.0,0.0,0.0,0.0,0.0,0.0,0.0,0.0,0.0,0.0,0.0,0.0,0.0,0.0,0.0,0.0,0.0,0.0,0.0,0.0,0.0,0.0,0.0,0.0,0.0,0.0,0.0,0.0,0.0,0.0,0.0,0.0,0.2608,0.3024,0.0,0.0,0.0,0.0,0.0,0.0,0.0,0.0,0.3531,0.0,0.0,0.0,0.0,0.0,0.0,0.0,0.0,0.0,0.0,0.0,0.0,0.0,0.0,0.0,0.0,0.0,0.0,0.0,0.0,0.0,0.0,0.0,0.0,0.0,0.0,0.0,0.0,0.0,0.0,0.0,0.0,0.0,0.0,0.0,0.0,0.0,0.0,0.0,0.0,0.0,0.0,0.0,0.0,0.0,0.0,0.0,0.0,0.0,0.0,0.0,0.0,0.0,0.0,0.0,0.0,0.2659,0.2944,0.3163,0.3311,0.3322,0.3442,0.3638,0.3738,0.3877,0.4093,0.0,0.0,0.0,0.0,0.0,0.0,0.0,0.0,0.0,0.0,0.0,0.0,0.0,0.0,0.0,0.0,0.0,0.0,0.0,0.0,0.0,0.0,0.0,0.0,0.0,0.0,0.0,0.0,0.0,0.0,0.0,0.0,0.0,0.0,0.0,0.0,0.0,0.0,0.0,0.3111,0.3297,0.0,0.0,0.0,0.0,0.0,0.0,0.0,0.0,0.3692,0.0,0.0,0.0,0.0,0.0,0.0,0.0,0.0,0.0,0.0,0.0,0.0,0.0,0.0,0.0,0.0,0.0,0.0,0.0,0.0,0.0,0.0,0.0,0.0,0.0,0.0,0.0,0.0,0.0,0.0,0.0,0.0,0.0,0.0,0.0,0.0,0.0,0.0,0.0,0.0,0.0,0.0,0.0,0.0,0.0,0.0,0.0,0.0,0.0,0.0,0.0,0.0,0.0,0.0,0.0,0.2718,0.3133,0.3384,0.3409,0.3735,0.3893,0.3795,0.397,0.4089,0.0,0.0,0.0,0.0,0.0,0.0,0.0,0.0,0.0,0.0,0.0,0.0,0.0,0.0,0.0,0.0,0.0,0.0,0.0,0.0,0.0,0.0,0.0,0.0,0.0,0.0,0.0,0.0,0.0,0.0,0.0,0.0,0.0,0.0,0.0,0.0,0.0,0.0,0.0,0.0,0.3171,0.3205,0.3229,0.0,0.0,0.0,0.0,0.0,0.0,0.3559,0.3717,0.0,0.0,0.0,0.0,0.0,0.0,0.0,0.0,0.0,0.0,0.0,0.0,0.0,0.0,0.0,0.0,0.0,0.0,0.0,0.0,0.0,0.0,0.0,0.0,0.0,0.0,0.0,0.0,0.0,0.0,0.0,0.0,0.0,0.0,0.0,0.0,0.0,0.0,0.0,0.0,0.0,0.0,0.0,0.0,0.0,0.0,0.0,0.0,0.0,0.0,0.0,0.0,0.0,0.0,0.0,0.2807,0.3324,0.3557,0.351,0.4071,0.4226,0.394,0.4116,0.4197,0.0,0.0,0.0,0.0,0.0,0.0,0.0,0.0,0.0,0.0,0.0,0.0,0.0,0.0,0.0,0.0,0.0,0.0,0.0,0.0,0.0,0.0,0.0,0.0,0.0,0.0,0.0,0.0,0.0,0.0,0.0,0.0,0.0,0.0,0.0,0.0,0.0,0.0,0.0,0.0,0.0,0.3114,0.3205,0.3254,0.0,0.0,0.0,0.0,0.3521,0.3647,0.0,0.0,0.0,0.0,0.0,0.0,0.0,0.0,0.0,0.0,0.0,0.0,0.0,0.0,0.0,0.0,0.0,0.0,0.0,0.0,0.0,0.0,0.0,0.0,0.0,0.0,0.0,0.0,0.0,0.0,0.0,0.0,0.0,0.0,0.0,0.0,0.0,0.0,0.0,0.0,0.0,0.0,0.0,0.0,0.0,0.0,0.0,0.0,0.0,0.0,0.0,0.0,0.0,0.0,0.0,0.0,0.304,0.334,0.3639,0.3827,0.3861,0.3939,0.4058,0.3943,0.3963,0.0,0.0,0.0,0.0,0.0,0.0,0.0,0.0,0.0,0.0,0.0,0.0,0.0,0.0,0.0,0.0,0.0,0.0,0.0,0.0,0.0,0.0,0.0,0.0,0.0,0.0,0.0,0.0,0.0,0.0,0.0,0.0,0.0,0.0,0.0,0.0,0.0,0.0,0.0,0.0,0.0,0.3135,0.3184,0.3254,0.3425,0.0,0.0,0.0,0.3941,0.3951,0.0,0.0,0.0,0.0,0.0,0.0,0.0,0.0,0.0,0.0,0.0,0.0,0.0,0.0,0.0,0.0,0.0,0.0,0.0,0.0,0.0,0.0,0.0,0.0,0.0,0.0,0.0,0.0,0.0,0.0,0.0,0.0,0.0,0.0,0.0,0.0,0.0,0.0,0.0,0.0,0.0,0.0,0.0,0.0,0.0,0.0,0.0,0.0,0.0,0.0,0.0,0.0,0.0,0.0,0.0,0.2778,0.3052,0.3299,0.358,0.3822,0.3971,0.4014,0.3995,0.3937,0.3966,0.0,0.0,0.0,0.0,0.0,0.0,0.0,0.0,0.0,0.0,0.0,0.0,0.0,0.0,0.0,0.0,0.0,0.0,0.0,0.0,0.0,0.0,0.0,0.0,0.0,0.0,0.0,0.0,0.0,0.0,0.0,0.0,0.0,0.0,0.0,0.0,0.0,0.0,0.0,0.0,0.0,0.0,0.3433,0.3649,0.0,0.0,0.0,0.4247,0.4218,0.0,0.0,0.0,0.0,0.0,0.0,0.0,0.0,0.0,0.0,0.0,0.0,0.0,0.0,0.0,0.0,0.0,0.0,0.0,0.0,0.0,0.0,0.0,0.0,0.0,0.0,0.0,0.0,0.0,0.0,0.0,0.0,0.0,0.0,0.0,0.0,0.0,0.0,0.0,0.0,0.0,0.0,0.0,0.0,0.0,0.0,0.0,0.0,0.0,0.0,0.0,0.0,0.0,0.0,0.0,0.0,0.0,0.3076,0.3269,0.3545,0.3849,0.3954,0.3977,0.3859,0.3837,0.0,0.0,0.0,0.0,0.0,0.0,0.0,0.0,0.0,0.0,0.0,0.0,0.0,0.0,0.0,0.0,0.0,0.0,0.0,0.0,0.0,0.0,0.0,0.0,0.0,0.0,0.0,0.4044,0.0,0.0,0.0,0.0,0.0,0.0,0.0,0.0,0.0,0.0,0.0,0.0,0.0,0.0,0.3621,0.3716,0.3942,0.4167,0.0,0.0,0.4482,0.4512,0.4316,0.4231,0.0,0.0,0.0,0.0,0.0,0.0,0.0,0.0,0.0,0.0,0.0,0.0,0.0,0.0,0.0,0.0,0.0,0.0,0.0,0.0,0.0,0.0,0.0,0.0,0.0,0.0,0.0,0.0,0.0,0.0,0.0,0.0,0.0,0.0,0.0,0.0,0.0,0.0,0.0,0.0,0.0,0.0,0.0,0.0,0.0,0.0,0.0,0.0,0.0,0.0,0.0,0.0,0.0,0.0,0.0,0.3254,0.3287,0.3531,0.3972,0.3682,0.3618,0.3693,0.3485,0.3465,0.0,0.0,0.0,0.0,0.0,0.0,0.0,0.0,0.0,0.0,0.0,0.0,0.0,0.0,0.0,0.0,0.0,0.0,0.0,0.0,0.0,0.0,0.0,0.0,0.0,0.0,0.0,0.0,0.0,0.0,0.0,0.0,0.0,0.0,0.0,0.0,0.0,0.0,0.0,0.0,0.0,0.3639,0.4019,0.3924,0.4047,0.0,0.0,0.4681,0.4745,0.46,0.4442,0.441,0.0,0.0,0.0,0.0,0.0,0.0,0.0,0.0,0.0,0.0,0.0,0.0,0.0,0.0,0.0,0.0,0.0,0.0,0.0,0.0,0.0,0.0,0.0,0.0,0.0,0.0,0.0,0.0,0.0,0.0,0.0,0.0,0.0,0.0,0.0,0.0,0.0,0.0,0.0,0.0,0.0,0.0,0.0,0.0,0.0,0.0,0.0,0.0,0.0,0.0,0.0,0.0,0.0,0.2952,0.3282,0.3378,0.3604,0.3953,0.3677,0.3523,0.3575,0.3325,0.3266,0.0,0.0,0.0,0.0,0.0,0.0,0.0,0.0,0.0,0.0,0.0,0.0,0.0,0.0,0.0,0.0,0.0,0.0,0.0,0.0,0.0,0.0,0.0,0.0,0.0,0.0,0.0,0.0,0.4033,0.4031,0.4041,0.0,0.0,0.0,0.0,0.0,0.0,0.0,0.0,0.0,0.0,0.4015,0.4313,0.4523,0.0,0.0,0.5076,0.5076,0.5107,0.5019,0.4853,0.4679,0.4665,0.0,0.0,0.0,0.0,0.0,0.0,0.0,0.0,0.0,0.0,0.0,0.0,0.0,0.0,0.0,0.0,0.0,0.0,0.0,0.0,0.0,0.0,0.0,0.0,0.0,0.0,0.0,0.0,0.0,0.0,0.0,0.0,0.0,0.0,0.0,0.0,0.0,0.0,0.0,0.0,0.0,0.0,0.0,0.0,0.0,0.0,0.0,0.0,0.0,0.0,0.0,0.0,0.2975,0.3287,0.3407,0.3633,0.3981,0.3646,0.3467,0.351,0.3222,0.3129,0.0,0.0,0.0,0.0,0.0,0.0,0.0,0.0,0.0,0.0,0.0,0.0,0.0,0.0,0.0,0.0,0.0,0.0,0.0,0.0,0.0,0.0,0.0,0.0,0.0,0.0,0.0,0.0,0.412,0.4107,0.392,0.0,0.0,0.0,0.0,0.0,0.0,0.0,0.0,0.0,0.0,0.4255,0.4538,0.493,0.5182,0.5277,0.5312,0.5312,0.5312,0.5251,0.515,0.5051,0.0,0.0,0.0,0.0,0.0,0.0,0.0,0.0,0.0,0.0,0.0,0.0,0.0,0.0,0.0,0.0,0.0,0.0,0.0,0.0,0.0,0.0,0.0,0.0,0.0,0.0,0.0,0.0,0.0,0.0,0.1696,0.0,0.0,0.0,0.0,0.0,0.0,0.0,0.0,0.0,0.0,0.0,0.0,0.0,0.0,0.0,0.0,0.0,0.0,0.0,0.0,0.0,0.0,0.0,0.3284,0.3319,0.3541,0.4001,0.3617,0.3442,0.3494,0.3176,0.3068,0.3205,0.0,0.0,0.0,0.0,0.0,0.0,0.0,0.0,0.0,0.0,0.0,0.0,0.0,0.0,0.0,0.0,0.0,0.0,0.0,0.0,0.0,0.0,0.0,0.0,0.0,0.0,0.4078,0.4087,0.3995,0.0,0.0,0.0,0.0,0.0,0.0,0.0,0.0,0.0,0.0,0.3781,0.4201,0.4726,0.4963,0.5157,0.5277,0.5312,0.5312,0.5386,0.5292,0.5283,0.0,0.0,0.0,0.0,0.0,0.0,0.0,0.0,0.0,0.0,0.0,0.0,0.0,0.0,0.0,0.0,0.0,0.0,0.0,0.0,0.0,0.0,0.0,0.0,0.0,0.0,0.0,0.0672,0.0646,0.0,0.0,0.0,0.0,0.0,0.0,0.0,0.0,0.0,0.0,0.0,0.2565,0.2589,0.0,0.0,0.0,0.0,0.0,0.0,0.0,0.0,0.0,0.0,0.0,0.0,0.3027,0.3328,0.3407,0.3633,0.404,0.3856,0.375,0.3748,0.3392,0.3223,0.3266,0.0,0.0,0.0,0.0,0.0,0.0,0.0,0.0,0.0,0.0,0.0,0.0,0.0,0.0,0.0,0.0,0.0,0.0,0.0,0.0,0.0,0.0,0.0,0.0,0.0,0.3976,0.0,0.0,0.0,0.0,0.0,0.0,0.0,0.0,0.0,0.0,0.0,0.3515,0.3812,0.4135,0.4471,0.4817,0.5052,0.5182,0.0,0.0,0.0,0.0,0.0,0.0,0.0,0.0,0.0,0.0,0.0,0.0,0.0,0.0,0.7233,0.7023,0.7282,0.7497,0.733,0.0,0.0,0.0,0.0,0.0,0.0,0.0,0.0,0.0,0.0,0.0,0.0,0.0,0.0,0.0975,0.0,0.1336,0.0,0.0,0.0,0.0,0.0,0.0,0.0,0.0,0.2555,0.2601,0.2623,0.2626,0.2724,0.0,0.2883,0.2883,0.0,0.0,0.0,0.0,0.0,0.0,0.0,0.0,0.3104,0.3397,0.3546,0.3772,0.4068,0.3994,0.3903,0.3892,0.3492,0.3306,0.3327,0.3467,0.365,0.0,0.0,0.0,0.0,0.0,0.0,0.0,0.0,0.0,0.0,0.0,0.0,0.0,0.0,0.0,0.0,0.0,0.0,0.0,0.0,0.0,0.0,0.0,0.389,0.0,0.0,0.0,0.0,0.0,0.0,0.0,0.0,0.0,0.3375,0.357,0.3785,0.3997,0.4382,0.4698,0.4922,0.0,0.0,0.0,0.0,0.0,0.0,0.0,0.5803,0.5827,0.617,0.6427,0.6425,0.6587,0.6857,0.7291,0.0,0.0,0.7373,0.7666,0.7892,0.7741,0.7908,0.8063,0.8058,0.8106,0.8253,0.0,0.0,0.0,0.0,0.0,0.0,0.0,0.0,0.1088,0.1452,0.0,0.1696,0.0,0.0,0.0,0.0,0.0,0.0,0.0,0.0,0.2733,0.272,0.2728,0.2733,0.2904,0.3211,0.3222,0.3195,0.3187,0.2924,0.0,0.0,0.0,0.0,0.0,0.0,0.3205,0.342,0.369,0.3919,0.4081,0.3974,0.3911,0.389,0.3532,0.3344,0.3382,0.3342,0.3379,0.357,0.3782,0.0,0.0,0.0,0.0,0.0,0.0,0.0,0.0,0.0,0.0,0.0,0.0,0.0,0.0,0.0,0.0,0.0,0.0,0.0,0.0,0.3863,0.0,0.0,0.0,0.0,0.0,0.0,0.0,0.0,0.0,0.0,0.3403,0.3807,0.4096,0.411,0.0,0.0,0.0,0.0,0.5256,0.5297,0.5339,0.5378,0.5501,0.5726,0.5938,0.6265,0.0,0.0,0.7322,0.7426,0.7462,0.7515,0.7661,0.7806,0.7834,0.8285,0.8579,0.8259,0.8517,0.885,0.8923,0.89,0.8923,-0.1295,0.0,0.0,0.0,0.0,-0.0761,-0.033,0.0474,0.1485,0.1794,0.1647,0.19,0.0,0.0,0.0,0.0,0.0,0.0,0.2985,0.3211,0.3185,0.3239,0.3264,0.3269,0.3329,0.3419,0.3422,0.3419,0.3388,0.2998,0.281,0.2848,0.0,0.0,0.0,0.0,0.3504,0.3727,0.3836,0.3983,0.4248,0.4215,0.4098,0.3906,0.3654,0.3459,0.3335,0.3258,0.329,0.3377,0.3517,0.0,0.0,0.0,0.0,0.0,0.0,0.0,0.0,0.0,0.0,0.0,0.0,0.0,0.0,0.0,0.0,0.0,0.0,0.0,0.3671,0.3514,0.3426,0.0,0.0,0.0,0.0,0.0,0.0,0.0,0.0,0.0,0.4219,0.424,0.4326,0.0,0.0,0.4992,0.5112,0.5382,0.5554,0.5591,0.0,0.0,0.0,0.63,0.6395,0.648,0.6663,0.6868,0.7129,0.7189,0.7273,0.7372,0.7466,0.7666,0.8233,0.8698,0.9012,0.8994,0.9453,0.9847,0.9827,0.9852,0.9878,-0.1421,-0.1174,-0.1115,-0.0937,-0.0698,-0.0698,-0.0236,0.0573,0.1636,0.2001,0.1839,0.2083,0.226,0.2427,0.2625,0.0,0.0,0.0,0.3179,0.3351,0.3378,0.3407,0.3467,0.3467,0.3544,0.3657,0.366,0.3662,0.366,0.3478,0.3271,0.304,0.0,0.0,0.3307,0.3463,0.3643,0.3865,0.3934,0.4079,0.4312,0.4312,0.4212,0.4068,0.374,0.3501,0.3383,0.3215,0.3175,0.3293,0.3472,0.3703,0.0,0.0,0.0,0.0,0.0,0.0,0.0,0.0,0.0,0.0,0.0,0.475,0.0,0.0,0.0,0.0,0.3984,0.378,0.3618,0.351,0.0,0.0,0.0,0.0,0.0,0.0,0.0,0.4353,0.44,0.458,0.4957,0.4913,0.491,0.5141,0.5323,0.549,0.5588,0.0,0.5892,0.5892,0.6075,0.6266,0.642,0.6537,0.6611,0.6683,0.6856,0.6966,0.6971,0.7039,0.7125,0.7271,0.7484,0.7835,0.8296,0.8996,0.9472,0.9462,0.9956,1.0316,1.0119,1.0283,1.0449,-0.1749,-0.1268,-0.1047,-0.0854,-0.0713,-0.062,-0.016,0.0571,0.1616,0.2055,0.2013,0.2217,0.2347,0.2461,0.2719,0.0,0.0,0.3207,0.3287,0.3347,0.3407,0.3464,0.3434,0.3527,0.3692,0.3927,0.393,0.3927,0.393,0.4156,0.4008,0.3439,0.3377,0.3369,0.3419,0.355,0.3663,0.3775,0.3985,0.4156,0.428,0.428,0.4312,0.4307,0.3767,0.3523,0.3507,0.3179,0.3102,0.3272,0.3486,0.372,0.3988,0.0,0.0,0.0,0.0,0.0,0.0,0.0,0.0,0.0,0.0,0.0,0.0,0.0,0.0,0.0,0.3769,0.0,0.3815,0.3782,0.0,0.0,0.0,0.4088,0.4028,0.4062,0.4284,0.4753,0.0,0.0,0.0,0.0,0.5723,0.5744,0.5966,0.6156,0.6196,0.6166,0.6196,0.6192,0.6253,0.6311,0.644,0.6596,0.6731,0.6873,0.7103,0.7123,0.6936,0.6937,0.7074,0.7129,0.7662,0.8142,0.8215,0.9189,0.9894,0.9708,1.0186,1.0524,1.0186,1.0504,1.0742,-0.1782,-0.1444,-0.121,-0.101,-0.0758,-0.0593,-0.0133,0.0571,0.1377,0.1814,0.1945,0.2183,0.2461,0.2801,0.2894,0.3164,0.355,0.3453,0.3583,0.3827,0.3899,0.3936,0.3936,0.405,0.4139,0.4196,0.4199,0.4167,0.4045,0.4111,0.4019,0.3772,0.3613,0.3504,0.3479,0.362,0.3694,0.3728,0.3866,0.4026,0.4161,0.4158,0.4194,0.4309,0.3769,0.3523,0.3515,0.3199,0.3065,0.322,0.3472,0.3678,0.3907,0.4117,0.0,0.0,0.0,0.0,0.0,0.0,0.0,0.0,0.0,0.4483,0.4342,0.0,0.4076,0.0,0.3822,0.3852,0.4066,0.4011,0.0,0.0,0.422,0.4314,0.4323,0.4672,0.4934,0.4968,0.5113,0.5322,0.5561,0.5788,0.6022,0.6179,0.6052,0.5924,0.5897,0.6159,0.6334,0.6393,0.6587,0.6861,0.6963,0.704,0.7128,0.7382,0.7158,0.6975,0.7164,0.6983,0.6924,0.7087,0.7597,0.8117,0.8584,0.9242,0.9785,1.0126,1.0618,1.0962,1.0903,1.1088,1.1252,-0.213,-0.1808,-0.1589,-0.1336,-0.1009,-0.0652,-0.0134,0.047,0.1108,0.1512,0.1749,0.2085,0.2412,0.2699,0.2847,0.3113,0.3467,0.351,0.3693,0.3945,0.411,0.4262,0.4367,0.4469,0.448,0.4376,0.4376,0.4256,0.4029,0.3991,0.3896,0.3728,0.3597,0.3478,0.3348,0.3513,0.3639,0.3667,0.3828,0.3956,0.4094,0.4094,0.4131,0.4178,0.3772,0.3467,0.3407,0.3082,0.2982,0.3159,0.3384,0.3594,0.3811,0.3956,0.4104,0.0,0.0,0.0,0.0,0.0,0.0,0.0,0.0,0.0,0.0,0.0,0.4182,0.0,0.4132,0.0,0.4331,0.4242,0.4198,0.4248,0.4397,0.4496,0.4443,0.4823,0.5074,0.5123,0.536,0.5576,0.574,0.5893,0.6065,0.6221,0.6023,0.5948,0.6168,0.6378,0.6555,0.6568,0.6764,0.6989,0.7171,0.7268,0.7339,0.7401,0.721,0.7063,0.7153,0.6962,0.6893,0.7191,0.7761,0.8368,0.8864,0.9378,0.9896,1.0267,1.0544,1.0822,1.1012,1.119,1.1341,-0.2584,-0.2196,-0.1998,-0.1689,-0.1288,-0.075,-0.0206,0.0309,0.0824,0.1203,0.1548,0.1922,0.2262,0.253,0.2739,0.2974,0.3222,0.3471,0.3726,0.3886,0.4162,0.4435,0.4666,0.4742,0.4674,0.4515,0.4478,0.4297,0.39,0.3871,0.3728,0.3467,0.3434,0.3335,0.3107,0.3335,0.3501,0.3569,0.373,0.3896,0.4031,0.4061,0.4061,0.4043,0.3682,0.3413,0.3287,0.2967,0.2878,0.3074,0.3266,0.3472,0.3643,0.3765,0.3869,0.0,0.3939,0.0,0.0,0.0,0.0,0.0,0.0,0.0,0.0,0.4159,0.4298,0.4432,0.451,0.454,0.4557,0.446,0.446,0.4576,0.4599,0.4625,0.4544,0.482,0.5074,0.5288,0.55,0.5702,0.5893,0.5979,0.5979,0.5976,0.6002,0.6098,0.6483,0.6601,0.6647,0.6764,0.6842,0.6953,0.7125,0.7314,0.7416,0.7345,0.7269,0.7206,0.7075,0.6873,0.6892,0.7312,0.7921,0.8538,0.9014,0.9572,0.9996,1.0205,1.0283,1.0428,1.0774,1.1012,1.1142,-0.2623,-0.2347,-0.2117,-0.1804,-0.1369,-0.0924,-0.042,0.0153,0.0535,0.107,0.1677,0.1946,0.2288,0.2588,0.2926,0.315,0.327,0.356,0.3729,0.3807,0.4152,0.4321,0.4399,0.4547,0.4641,0.4548,0.438,0.4164,0.3974,0.3708,0.3467,0.3272,0.3204,0.3136,0.3107,0.0,0.0,0.0,0.3377,0.3543,0.3773,0.3861,0.3921,0.3911,0.3493,0.0,0.3213,0.2899,0.2789,0.2929,0.3144,0.0,0.0,0.0,0.0,0.0,0.0,0.0,0.0,0.0,0.0,0.0,0.4063,0.4063,0.4083,0.4063,0.4207,0.4583,0.4407,0.4405,0.4703,0.4607,0.45,0.4517,0.47,0.4822,0.4837,0.5185,0.5449,0.54,0.5619,0.5743,0.575,0.5798,0.5838,0.5841,0.5933,0.6022,0.611,0.6233,0.6322,0.6456,0.6627,0.6787,0.6982,0.7059,0.7255,0.7428,0.7157,0.7019,0.7127,0.682,0.6684,0.7232,0.7705,0.8264,0.8949,0.9433,0.9827,1.0015,1.0093,1.0239,1.0577,1.0812,1.0964,-0.2931,0.0,-0.2304,-0.197,0.0,-0.1176,-0.0672,-0.0168,0.0321,0.0903,0.1528,0.1764,0.2078,0.2389,0.2657,0.2851,0.3013,0.3319,0.3553,0.3759,0.4008,0.4172,0.4334,0.4459,0.4441,0.4341,0.4204,0.3996,0.3752,0.3591,0.3405,0.3254,0.3176,0.3098,0.2996,0.2952,0.3045,0.328,0.328,0.3445,0.367,0.3728,0.3763,0.3788,0.0,0.0,0.0,0.0,0.0,0.0,0.0,0.0,0.0,0.0,0.0,0.3345,0.3466,0.3619,0.3751,0.3917,0.4015,0.4058,0.4075,0.4154,0.4251,0.4195,0.4275,0.4599,0.4469,0.4482,0.4801,0.4736,0.472,0.4772,0.4936,0.4971,0.49,0.514,0.5314,0.5251,0.5397,0.5542,0.5501,0.5545,0.5537,0.5539,0.5626,0.5631,0.5677,0.5933,0.6193,0.6367,0.6459,0.6627,0.6823,0.695,0.707,0.7318,0.7191,0.7074,0.7139,0.6828,0.6775,0.7281,0.767,0.8137,0.8878,0.9292,0.9581,0.9793,0.9867,0.998,1.0244,1.0472,1.0654,-0.322,-0.2865,-0.2549,-0.2149,-0.184,-0.1434,-0.0987,-0.0447,0.0,0.0,0.0,0.1526,0.1807,0.2052,0.2368,0.2566,0.2694,0.3039,0.3301,0.3598,0.3774,0.4012,0.4274,0.432,0.4242,0.4053,0.402,0.3812,0.3484,0.3418,0.3326,0.3231,0.3152,0.305,0.2902,0.2796,0.289,0.3225,0.3226,0.3342,0.3604,0.3569,0.3569,0.3607,0.3382,0.314,0.2916,0.2828,0.2749,0.2689,0.2805,0.2925,0.3079,0.3073,0.3051,0.3104,0.3339,0.3566,0.3707,0.3973,0.409,0.4032,0.4185,0.4316,0.437,0.4348,0.4428,0.4628,0.462,0.4706,0.4907,0.4889,0.4934,0.5028,0.508,0.5031,0.4891,0.4999,0.5145,0.5065,0.5219,0.5285,0.5285,0.529,0.5244,0.5244,0.5244,0.5285,0.5331,0.5674,0.6022,0.6196,0.6285,0.6413,0.6627,0.6741,0.695,0.7157,0.7152,0.7102,0.7022,0.6927,0.7001,0.7464,0.7746,0.8177,0.8809,0.9128,0.9332,0.959,0.9634,0.9669,0.9858,1.0083,1.0269,-0.335,-0.2991,-0.2728,-0.2465,-0.211,-0.1704,-0.1166,-0.0449,0.0222,0.0617,0.0835,0.1363,0.1673,0.1851,0.2285,0.2504,0.2549,0.2868,0.3096,0.0,0.351,0.3699,0.3787,0.3922,0.3957,0.3923,0.3709,0.3551,0.3476,0.3159,0.2975,0.294,0.2877,0.2868,0.2897,0.2879,0.2913,0.2945,0.2944,0.3072,0.3276,0.3309,0.3311,0.3268,0.3062,0.2926,0.2893,0.2785,0.2816,0.3033,0.3111,0.3133,0.3111,0.3177,0.3195,0.3058,0.3327,0.355,0.3703,0.3797,0.394,0.4101,0.4441,0.4528,0.4269,0.4367,0.4564,0.4811,0.4884,0.4954,0.5067,0.4923,0.4867,0.4841,0.4953,0.5019,0.4984,0.5131,0.5224,0.5219,0.5216,0.5193,0.5152,0.5113,0.5029,0.5029,0.5026,0.5074,0.5198,0.5504,0.5723,0.5809,0.5936,0.615,0.6367,0.6456,0.666,0.6985,0.6882,0.688,0.706,0.6959,0.7053,0.7614,0.7755,0.8102,0.8755,0.8988,0.9096,0.9226,0.9341,0.9408,0.9562,0.9642,0.976,-0.3529,-0.3307,-0.2953,-0.2642,-0.2329,-0.1747,-0.1164,-0.0583,-0.0225,0.0224,0.0628,0.0985,0.1299,0.1614,0.197,0.215,0.2195,0.2416,0.2594,0.2815,0.2947,0.3083,0.3263,0.3352,0.3353,0.335,0.3248,0.3172,0.3167,0.2982,0.2914,0.2909,0.2761,0.269,0.262,0.2639,0.2649,0.2758,0.2795,0.2907,0.3039,0.3074,0.3107,0.3142,0.2989,0.2874,0.2853,0.2833,0.2861,0.2932,0.2948,0.3029,0.3079,0.313,0.3205,0.3365,0.3486,0.3576,0.3641,0.3982,0.4262,0.4437,0.4697,0.4749,0.4566,0.4441,0.454,0.4918,0.5089,0.5136,0.5095,0.4958,0.497,0.5058,0.5121,0.5127,0.5015,0.5086,0.5065,0.4973,0.4886,0.4881,0.4881,0.4799,0.4799,0.4799,0.4799,0.4801,0.484,0.5062,0.5328,0.5539,0.5717,0.5887,0.6056,0.6282,0.6453,0.6653,0.6799,0.6851,0.6921,0.6887,0.7132,0.7417,0.761,0.7949,0.8517,0.8696,0.8814,0.8984,0.9065,0.9136,0.9288,0.9364,0.9518,-0.3851,-0.3678,-0.3266,-0.2854,-0.2439,-0.1842,-0.1335,-0.0921,-0.0693,-0.0323,0.023,0.0543,0.0851,0.1255,0.1524,0.1659,0.1794,0.1885,0.2061,0.2327,0.2328,0.2462,0.269,0.2735,0.2733,0.2734,0.2735,0.2733,0.2733,0.2734,0.2733,0.2724,0.2556,0.2467,0.2382,0.2355,0.2385,0.2529,0.2625,0.2745,0.2911,0.2911,0.2933,0.3034,0.2961,0.2885,0.2804,0.2845,0.2876,0.2901,0.2876,0.2988,0.3165,0.3139,0.3278,0.3651,0.3651,0.3677,0.3779,0.4207,0.4577,0.4651,0.4902,0.4965,0.4829,0.4656,0.4653,0.4954,0.5166,0.5245,0.5142,0.5063,0.5094,0.5221,0.5203,0.5096,0.4934,0.4893,0.4847,0.4622,0.4532,0.4532,0.4489,0.4489,0.4445,0.4445,0.4445,0.4445,0.4443,0.4581,0.4842,0.5188,0.5453,0.5631,0.5752,0.6016,0.6242,0.637,0.6647,0.6754,0.6764,0.698,0.7173,0.7313,0.7547,0.7809,0.8191,0.8369,0.8537,0.8708,0.8785,0.8858,0.9052,0.9132,0.9328,-0.4513,-0.4031,-0.3767,-0.3183,-0.2535,-0.2287,-0.1988,-0.1544,-0.1197,-0.0899,-0.0543,0.0186,0.0585,0.0764,0.0988,0.1169,0.1347,0.1434,0.1614,0.1838,0.1884,0.1972,0.2154,0.2155,0.2153,0.2155,0.22,0.2154,0.2199,0.22,0.2198,0.2155,0.2144,0.2219,0.2286,0.2212,0.2213,0.2328,0.2344,0.2516,0.286,0.2898,0.2913,0.2925,0.292,0.2886,0.2812,0.2794,0.292,0.3129,0.3159,0.3254,0.3437,0.3476,0.3531,0.3688,0.3698,0.3851,0.418,0.4457,0.4588,0.4643,0.4869,0.4999,0.4967,0.5098,0.5116,0.5053,0.5184,0.5262,0.5255,0.5194,0.5115,0.5012,0.4939,0.4797,0.4663,0.4659,0.4581,0.4541,0.4364,0.4274,0.419,0.4102,0.4012,0.4056,0.4056,0.41,0.4272,0.432,0.4447,0.4707,0.4975,0.5325,0.5588,0.5723,0.5941,0.6285,0.641,0.6583,0.6784,0.6944,0.7099,0.7271,0.7538,0.7732,0.7923,0.8085,0.8254,0.8418,0.8488,0.8598,0.872,0.8854,0.906,-0.4713,-0.4368,-0.4069,-0.3568,-0.302,-0.2766,-0.2415,-0.2015,-0.1813,-0.1461,-0.1106,-0.0635,-0.0096,0.053,0.0626,0.076,0.0976,0.1115,0.1237,0.1346,0.1434,0.1524,0.1659,0.1659,0.1704,0.1659,0.1704,0.1704,0.1704,0.1794,0.1794,0.1794,0.1885,0.1928,0.2012,0.1938,0.201,0.2095,0.2105,0.2253,0.2529,0.2658,0.2716,0.2741,0.2775,0.29,0.2951,0.298,0.3088,0.3309,0.3309,0.3322,0.3317,0.3506,0.3649,0.3713,0.3811,0.4004,0.4271,0.4541,0.4697,0.4811,0.506,0.5144,0.5147,0.5234,0.5196,0.4966,0.5017,0.5116,0.5116,0.5024,0.493,0.4755,0.4672,0.4585,0.4449,0.4362,0.428,0.4146,0.41,0.4056,0.3972,0.3928,0.3926,0.3926,0.3926,0.3968,0.4058,0.4104,0.4234,0.4403,0.4624,0.4891,0.5244,0.555,0.5766,0.5936,0.6147,0.6398,0.6575,0.6771,0.6894,0.7147,0.7325,0.7499,0.7742,0.7836,0.7961,0.8122,0.825,0.8324,0.841,0.8496,0.8696,-0.5011,-0.476,-0.4349,-0.3938,-0.3472,-0.3212,-0.285,-0.2541,-0.2336,-0.2026,-0.1612,-0.1455,-0.0883,-0.0155,0.0051,0.0198,0.0485,0.0677,0.0805,0.0868,0.0956,0.1132,0.1302,0.13,0.13,0.1346,0.1299,0.1299,0.1344,0.1389,0.1479,0.1479,0.1569,0.1614,0.1659,0.1659,0.1704,0.1838,0.1885,0.1972,0.2128,0.2315,0.2467,0.2558,0.2712,0.2816,0.2967,0.3006,0.3085,0.3245,0.3282,0.3292,0.3286,0.3493,0.3612,0.3649,0.3883,0.4105,0.4254,0.4511,0.4744,0.488,0.5026,0.5108,0.5062,0.5154,0.507,0.4792,0.4762,0.4808,0.4891,0.4799,0.4668,0.4532,0.4453,0.4412,0.4234,0.4104,0.3974,0.3838,0.3842,0.3794,0.3706,0.3704,0.3748,0.3748,0.3796,0.3838,0.3838,0.3928,0.4016,0.419,0.4322,0.4589,0.4941,0.5246,0.5507,0.5677,0.5887,0.6102,0.6285,0.6486,0.6647,0.6859,0.7031,0.7202,0.7412,0.7499,0.767,0.787,0.8036,0.8126,0.8156,0.8242,0.8283,-0.5553,-0.521,-0.4716,-0.4318,-0.3944,-0.3664,-0.339,-0.3041,-0.2778,-0.2505,-0.2163,-0.1999,-0.1726,-0.1329,-0.0888,-0.0454,-0.0101,-0.005,0.0098,0.038,0.0426,0.0698,0.1081,0.1124,0.1079,0.1034,0.0987,0.103,0.1075,0.112,0.112,0.112,0.1164,0.121,0.1344,0.1344,0.1344,0.1434,0.1569,0.1614,0.1657,0.1872,0.2174,0.2434,0.2592,0.2626,0.2651,0.2745,0.2867,0.2943,0.3068,0.3201,0.3381,0.3399,0.347,0.3568,0.3884,0.408,0.4135,0.4403,0.4587,0.4598,0.4644,0.4659,0.4703,0.4849,0.4849,0.4615,0.4447,0.4405,0.4576,0.4574,0.4532,0.4316,0.4318,0.4188,0.3926,0.3924,0.384,0.3665,0.3622,0.353,0.3304,0.335,0.344,0.3485,0.3532,0.3621,0.3704,0.37,0.3788,0.3922,0.4144,0.4453,0.4895,0.507,0.52,0.5415,0.5588,0.5804,0.6022,0.6236,0.6358,0.6568,0.6774,0.6943,0.7073,0.7245,0.7458,0.7666,0.7787,0.7867,0.7908,0.7987,0.8024,-0.5679,-0.5299,-0.5018,-0.4684,-0.4298,-0.4242,-0.391,-0.3576,-0.3359,-0.3078,-0.2796,-0.2628,-0.235,-0.1958,-0.1748,-0.1386,-0.0889,-0.0888,-0.0615,-0.0197,-0.0193,-0.0,0.0374,0.041,0.0405,0.0405,0.0449,0.0628,0.0808,0.0853,0.0853,0.0898,0.1033,0.1122,0.1167,0.112,0.112,0.1164,0.1254,0.1344,0.1389,0.1524,0.1689,0.1928,0.223,0.2475,0.2651,0.2692,0.2818,0.2942,0.3024,0.3197,0.3459,0.337,0.3365,0.3621,0.3751,0.3919,0.4101,0.4194,0.4366,0.4541,0.4539,0.4539,0.4576,0.4578,0.4497,0.4362,0.4138,0.4051,0.4142,0.4316,0.4318,0.41,0.3963,0.3878,0.3751,0.3617,0.3529,0.3396,0.335,0.3306,0.326,0.326,0.326,0.326,0.3306,0.3394,0.3483,0.3575,0.3661,0.379,0.3924,0.4146,0.4497,0.476,0.4934,0.5111,0.5285,0.5545,0.5761,0.5893,0.6019,0.6322,0.6568,0.6735,0.6868,0.708,0.7293,0.7458,0.7579,0.7576,0.7617,0.7701,0.7693,-0.5786,-0.5462,-0.524,-0.5014,-0.4739,-0.4631,-0.4408,-0.4076,-0.3858,-0.3635,-0.3409,-0.3188,-0.2909,-0.2517,-0.2463,-0.2215,-0.1736,-0.157,-0.1222,-0.077,-0.08,-0.0737,-0.0581,-0.042,-0.0321,-0.0183,-0.0,0.0225,0.045,0.045,0.0494,0.0494,0.0675,0.0764,0.0809,0.0763,0.0807,0.0897,0.0941,0.1031,0.1121,0.1165,0.1254,0.1433,0.179,0.2147,0.2463,0.2552,0.2639,0.2769,0.2857,0.3038,0.3311,0.3174,0.3216,0.3434,0.3565,0.3658,0.384,0.3928,0.406,0.4236,0.4282,0.4322,0.4358,0.4274,0.419,0.41,0.3924,0.3748,0.384,0.3926,0.3924,0.384,0.3706,0.3615,0.3488,0.3396,0.326,0.3168,0.3129,0.3086,0.3083,0.3124,0.3124,0.3124,0.3168,0.326,0.3306,0.3396,0.353,0.3568,0.3704,0.388,0.41,0.4318,0.4622,0.4799,0.5024,0.5241,0.5458,0.5593,0.5769,0.607,0.6325,0.6535,0.6705,0.6917,0.7083,0.7248,0.7283,0.7318,0.7363,0.7412,0.7447,-0.595,-0.5738,-0.5466,-0.5297,-0.5187,-0.4908,-0.4745,-0.4575,-0.4189,-0.4021,-0.3965,-0.3748,-0.3412,-0.3187,-0.313,-0.2962,-0.2622,-0.2171,-0.17,-0.1333,-0.1271,-0.1403,-0.1615,-0.1262,-0.0905,-0.0665,-0.0367,-0.0181,-0.0091,-0.0091,-0.0091,-0.0045,-0.0045,0.0046,0.018,0.0181,0.0361,0.0585,0.0629,0.0675,0.0719,0.0852,0.0986,0.103,0.1209,0.1523,0.1972,0.2192,0.2279,0.2325,0.255,0.2775,0.2868,0.2868,0.2909,0.3037,0.3262,0.3396,0.344,0.357,0.37,0.3744,0.3836,0.3922,0.3924,0.3972,0.3928,0.388,0.3707,0.3578,0.3576,0.353,0.3483,0.3578,0.3576,0.3442,0.3304,0.3214,0.3168,0.3034,0.2951,0.2909,0.2909,0.2905,0.2946,0.2991,0.3081,0.3126,0.3171,0.3216,0.326,0.3396,0.3485,0.3617,0.3704,0.3834,0.4182,0.4489,0.4714,0.498,0.5157,0.5333,0.555,0.5852,0.6156,0.6367,0.6584,0.6751,0.6829,0.695,0.6985,0.707,0.7118,0.7209,0.7286,-0.5948,-0.5896,-0.5736,-0.5572,-0.5513,-0.5348,-0.5183,-0.4963,-0.4684,-0.4574,-0.4467,-0.4298,-0.4019,-0.3799,-0.3745,-0.358,-0.3304,-0.3077,-0.2614,-0.2033,-0.1884,-0.1962,-0.1984,-0.1666,-0.1339,-0.099,-0.0882,-0.0828,-0.0875,-0.0875,-0.0926,-0.0877,-0.0876,-0.072,-0.0421,-0.0374,-0.0231,0.0045,0.018,0.027,0.0315,0.0404,0.0539,0.0763,0.0853,0.1032,0.1299,0.1656,0.1836,0.197,0.2107,0.2285,0.2462,0.2463,0.2511,0.273,0.2864,0.2994,0.3126,0.3168,0.33,0.3437,0.3529,0.3621,0.3665,0.3617,0.3571,0.3527,0.3394,0.335,0.3306,0.3304,0.3262,0.3306,0.3306,0.326,0.308,0.3038,0.2909,0.2818,0.2773,0.2729,0.2639,0.2681,0.2681,0.2726,0.2772,0.2905,0.2996,0.3037,0.3124,0.326,0.3306,0.3398,0.3529,0.3615,0.3836,0.414,0.4451,0.4675,0.4895,0.5159,0.5376,0.568,0.5941,0.6199,0.6413,0.6541,0.6575,0.6702,0.6784,0.6829,0.6921,0.6963,0.7041,-0.6059,-0.6059,-0.5955,-0.5843,-0.5729,-0.5675,-0.5513,-0.5348,-0.5234,-0.5124,-0.5016,-0.4846,-0.4625,-0.4353,-0.4351,-0.4189,-0.3968,-0.3914,-0.3577,-0.2902,-0.2577,-0.2551,-0.2489,-0.2095,-0.1785,-0.1514,-0.1361,-0.1363,-0.1463,-0.1463,-0.1463,-0.1463,-0.1413,-0.1247,-0.0974,-0.0827,-0.072,-0.0611,-0.0463,-0.0322,-0.0183,-0.0091,0.009,0.036,0.045,0.0584,0.0718,0.1077,0.139,0.1614,0.1794,0.1972,0.206,0.2062,0.2154,0.233,0.2465,0.2552,0.2722,0.2769,0.2903,0.3086,0.3176,0.3222,0.3312,0.3265,0.3219,0.3219,0.3084,0.3038,0.2994,0.295,0.295,0.295,0.304,0.2993,0.2858,0.2772,0.2729,0.2639,0.2594,0.2549,0.2503,0.2503,0.2503,0.2503,0.2593,0.2639,0.2729,0.2771,0.2904,0.3038,0.3087,0.322,0.3398,0.3486,0.3532,0.384,0.4146,0.441,0.4629,0.4939,0.5203,0.555,0.5855,0.5984,0.6153,0.6239,0.6276,0.645,0.6581,0.6669,0.6712,0.6754,0.6836,-0.623,-0.623,-0.6114,-0.6057,-0.6003,-0.5837,-0.5789,-0.5793,-0.5679,-0.562,-0.5561,-0.5445,-0.5226,-0.5007,-0.4954,-0.4791,-0.457,-0.4517,-0.4349,-0.3907,-0.3503,-0.3228,-0.3052,-0.254,-0.2262,-0.2157,-0.1893,-0.1789,-0.1801,-0.1799,-0.1778,-0.1794,-0.1695,-0.1523,-0.1418,-0.1265,-0.1209,-0.1244,-0.1164,-0.0955,-0.0714,-0.0553,-0.0452,-0.0226,-0.0,0.0135,0.0225,0.0539,0.0898,0.1255,0.1569,0.1748,0.1704,0.1749,0.1794,0.1883,0.202,0.2151,0.2281,0.237,0.2505,0.2641,0.2777,0.2866,0.2866,0.2823,0.2822,0.2822,0.2732,0.2641,0.264,0.2594,0.2505,0.2506,0.273,0.2775,0.2549,0.2503,0.2503,0.2505,0.2505,0.246,0.2415,0.2415,0.2414,0.2415,0.2415,0.246,0.2504,0.255,0.2639,0.273,0.2866,0.3,0.3174,0.322,0.3311,0.3529,0.3838,0.4146,0.4453,0.4764,0.5031,0.5376,0.568,0.5766,0.5893,0.5976,0.6105,0.6282,0.6413,0.6502,0.6502,0.6499,0.6584,-0.6601,-0.6544,-0.6544,-0.649,-0.6487,-0.632,-0.627,-0.6223,-0.628,-0.6168,-0.605,-0.5991,-0.5828,-0.5611,-0.5557,-0.5389,-0.5169,-0.5115,-0.495,-0.4679,-0.4513,-0.4018,-0.3526,-0.3051,-0.2852,-0.2823,-0.2545,-0.2457,-0.2456,-0.2443,-0.2391,-0.2293,-0.2224,-0.2094,-0.1896,-0.1782,-0.1706,-0.1571,-0.1453,-0.1342,-0.1136,-0.0957,-0.0892,-0.0842,-0.0594,-0.0406,-0.027,0.009,0.0583,0.103,0.1344,0.1479,0.1479,0.1344,0.1344,0.1479,0.1569,0.1704,0.1882,0.1971,0.2062,0.2242,0.2287,0.2333,0.2331,0.2334,0.2334,0.2333,0.2287,0.2243,0.2242,0.2242,0.2195,0.2151,0.2418,0.255,0.2504,0.2503,0.2458,0.2369,0.2285,0.224,0.2151,0.2105,0.2015,0.2017,0.2106,0.215,0.2239,0.2327,0.2416,0.2506,0.2641,0.2776,0.2909,0.2955,0.3087,0.3262,0.3571,0.393,0.428,0.4718,0.4898,0.5162,0.5415,0.5545,0.5715,0.5798,0.5976,0.6065,0.6107,0.6147,0.6153,0.6153,0.6236,-0.6707,-0.6707,-0.6707,-0.6707,-0.6707,-0.6647,-0.6537,-0.6601,-0.6779,-0.6776,-0.6544,-0.6485,-0.6379,-0.6211,-0.6102,-0.5934,-0.5716,-0.5662,-0.5498,-0.534,-0.5289,-0.4796,-0.4078,-0.363,-0.3463,-0.3465,-0.3192,-0.3077,-0.3077,-0.3081,-0.297,-0.2905,-0.2798,-0.2655,-0.2393,-0.2335,-0.221,-0.2062,-0.1928,-0.1805,-0.1594,-0.1443,-0.1306,-0.1241,-0.1023,-0.0871,-0.0723,-0.036,0.009,0.0583,0.0941,0.1122,0.1122,0.0987,0.0987,0.1121,0.1165,0.1299,0.1434,0.1524,0.1659,0.1794,0.1794,0.1794,0.1794,0.1794,0.1794,0.1794,0.1794,0.1794,0.1794,0.184,0.1885,0.1929,0.2061,0.2192,0.2195,0.2193,0.2149,0.2104,0.2061,0.202,0.1929,0.184,0.1794,0.1839,0.1885,0.1974,0.2019,0.2106,0.215,0.2239,0.2381,0.2475,0.2615,0.2707,0.2892,0.3111,0.3382,0.3691,0.4104,0.4543,0.4764,0.4939,0.5152,0.5323,0.5496,0.5583,0.5628,0.5715,0.5755,0.5841,0.5844,0.5847,0.593,-0.6756,-0.6756,-0.6756,-0.6758,-0.6761,-0.6756,-0.6812,-0.6874,-0.7223,-0.7277,-0.699,-0.6985,-0.6874,-0.6763,-0.6596,-0.6433,-0.6317,-0.6315,-0.6152,-0.5996,-0.5839,-0.546,-0.4791,-0.4296,-0.413,-0.4076,-0.3803,-0.3694,-0.3694,-0.3694,-0.3583,-0.3469,-0.3299,-0.313,-0.2945,-0.2846,-0.2745,-0.2602,-0.249,-0.2352,-0.2124,-0.2017,-0.1858,-0.1567,-0.1335,-0.1209,-0.1044,-0.0853,-0.0494,0.0045,0.045,0.0629,0.0629,0.0629,0.0584,0.0629,0.0763,0.0896,0.0986,0.1165,0.13,0.1391,0.1391,0.1389,0.1389,0.1435,0.1435,0.1435,0.1389,0.1395,0.1404,0.1489,0.1578,0.1673,0.1717,0.1704,0.1749,0.1749,0.1794,0.1794,0.1794,0.1749,0.1749,0.1749,0.1704,0.1524,0.1614,0.1659,0.1704,0.1748,0.1837,0.1928,0.2072,0.2175,0.2317,0.2414,0.2691,0.2921,0.32,0.3551,0.3937,0.4322,0.4541,0.476,0.4975,0.5108,0.5241,0.5328,0.5369,0.5455,0.5542,0.5623,0.5663,0.5666,0.5709,-0.7028,-0.7028,-0.7028,-0.709,-0.7147,-0.7087,-0.7141,-0.7303,-0.7416,-0.7475,-0.7359,-0.7359,-0.7308,-0.7201,-0.7144,-0.7036,-0.692,-0.6864,-0.6758,-0.6539,-0.6502,-0.628,-0.5775,-0.5228,-0.4847,-0.4682,-0.452,-0.4411,-0.4354,-0.4298,-0.4133,-0.3913,-0.3855,-0.3688,-0.347,-0.3414,-0.3361,-0.3186,-0.3048,-0.287,-0.2686,-0.2518,-0.2356,-0.2109,-0.1767,-0.1497,-0.1267,-0.1165,-0.0985,-0.0672,-0.018,0.018,0.027,0.0045,-0.0,0.0135,0.0314,0.0494,0.0718,0.0808,0.0943,0.1078,0.1078,0.1168,0.1168,0.1123,0.1168,0.1169,0.117,0.1096,0.1121,0.1141,0.1238,0.1301,0.1286,0.1308,0.1302,0.157,0.1749,0.1704,0.1614,0.1479,0.1479,0.1389,0.1344,0.1254,0.1302,0.1301,0.135,0.1446,0.1552,0.1659,0.1767,0.188,0.2076,0.2269,0.2552,0.2827,0.3102,0.3325,0.3727,0.412,0.4367,0.4555,0.476,0.4891,0.5021,0.5154,0.5239,0.5282,0.5338,0.5368,0.5427,0.5402,0.5556,-0.7139,-0.7195,-0.7195,-0.7255,-0.7365,-0.7306,-0.7408,-0.7625,-0.7857,-0.791,-0.7848,-0.7845,-0.7788,-0.7687,-0.7625,-0.7563,-0.7509,-0.7453,-0.7351,-0.7139,-0.7098,-0.6987,-0.6647,-0.6211,-0.583,-0.5395,-0.5179,-0.5071,-0.4903,-0.4844,-0.4734,-0.4462,-0.4406,-0.4294,-0.4079,-0.4022,-0.3858,-0.369,-0.3576,-0.3409,-0.323,-0.3084,-0.2802,-0.2582,-0.2186,-0.1879,-0.1756,-0.1581,-0.1437,-0.121,-0.0807,-0.0449,-0.0315,-0.045,-0.045,-0.036,-0.009,0.0045,0.0225,0.036,0.045,0.0584,0.0584,0.0584,0.0584,0.0584,0.0591,0.0598,0.065,0.0705,0.0826,0.0917,0.0963,0.1065,0.1105,0.1091,0.1131,0.1332,0.1479,0.1434,0.1344,0.1299,0.121,0.1132,0.1126,0.1174,0.1159,0.1161,0.1172,0.1226,0.1291,0.14,0.1459,0.1616,0.1867,0.2118,0.2415,0.27,0.2982,0.3166,0.3428,0.3799,0.4212,0.4377,0.4572,0.4629,0.4753,0.493,0.5057,0.5004,0.4988,0.5129,0.5207,0.5288,0.5458,-0.7198,-0.7311,-0.7314,-0.7416,-0.7521,-0.7515,-0.7619,-0.7889,-0.8253,-0.8353,-0.8278,-0.8271,-0.8212,-0.8268,-0.8153,-0.8037,-0.8034,-0.7978,-0.7827,-0.7678,-0.7687,-0.7521,-0.7241,-0.7023,-0.6756,-0.6102,-0.5889,-0.567,-0.5502,-0.5391,-0.5336,-0.5062,-0.5007,-0.4897,-0.468,-0.4627,-0.4463,-0.4185,-0.4132,-0.4021,-0.3747,-0.3622,-0.3347,-0.3011,-0.2608,-0.2348,-0.2211,-0.2016,-0.1792,-0.1659,-0.1389,-0.1256,-0.1168,-0.0989,-0.0809,-0.0764,-0.0494,-0.0359,-0.0315,-0.027,-0.018,-0.0135,-0.0181,-0.0182,-0.0182,-0.0184,-0.0188,-0.0048,0.0048,0.0244,0.0505,0.055,0.0704,0.081,0.0912,0.0908,0.0948,0.0996,0.0974,0.115,0.1165,0.117,0.1116,0.1026,0.1058,0.1008,0.1037,0.1059,0.102,0.1028,0.1088,0.1151,0.1207,0.1496,0.1768,0.1921,0.223,0.2552,0.2793,0.3026,0.3159,0.3489,0.3851,0.4179,0.4381,0.4482,0.467,0.4874,0.4918,0.4698,0.4843,0.5113,0.5166,0.5204,0.5413,-0.7311,-0.7311,-0.7416,-0.7631,-0.7788,-0.761,-0.7827,-0.8268,-0.8619,-0.8665,-0.8583,-0.8521,-0.8583,-0.8643,-0.8699,-0.8646,-0.858,-0.8464,-0.8355,-0.8209,-0.8165,-0.7999,-0.7774,-0.767,-0.7458,-0.719,-0.6758,-0.6374,-0.61,-0.6043,-0.5882,-0.5721,-0.5611,-0.55,-0.5279,-0.5169,-0.5064,-0.4789,-0.4736,-0.4572,-0.4353,-0.4125,-0.3916,-0.3517,-0.3162,-0.2863,-0.262,-0.239,-0.2149,-0.2017,-0.1794,-0.1749,-0.1754,-0.1484,-0.1261,-0.1031,-0.0941,-0.0807,-0.0853,-0.0901,-0.09,-0.0951,-0.0973,-0.1036,-0.1045,-0.1016,-0.0835,-0.0647,-0.0452,-0.0254,-0.0158,-0.0052,0.0052,0.0156,0.0155,0.0203,0.0304,0.0401,0.0544,0.0791,0.094,0.103,0.0922,0.0868,0.0818,0.0772,0.0787,0.0798,0.0803,0.0806,0.0861,0.0922,0.1035,0.139,0.1707,0.1812,0.2021,0.2341,0.2629,0.2859,0.3037,0.3182,0.3464,0.3897,0.4297,0.4556,0.4714,0.4855,0.4892,0.48,0.4974,0.5114,0.5117,0.5073,0.5294,-0.7365,-0.7518,-0.7681,-0.7845,-0.8008,-0.799,-0.8203,-0.859,-0.8887,-0.8983,-0.8952,-0.8942,-0.8945,-0.9008,-0.9012,-0.9008,-0.9005,-0.8893,-0.8784,-0.8689,-0.8639,-0.8477,-0.8302,-0.8203,-0.8052,-0.7842,-0.7568,-0.7133,-0.6699,-0.6542,-0.6431,-0.632,-0.6213,-0.605,-0.5828,-0.5721,-0.5557,-0.5393,-0.5285,-0.512,-0.4901,-0.468,-0.4409,-0.4069,-0.3795,-0.349,-0.3311,-0.2989,-0.2775,-0.2579,-0.2357,-0.2245,-0.2214,-0.2111,-0.1798,-0.1447,-0.1303,-0.1212,-0.1265,-0.1323,-0.1345,-0.1352,-0.1441,-0.1469,-0.1428,-0.1347,-0.1275,-0.1037,-0.0903,-0.0805,-0.0819,-0.0751,-0.0701,-0.0651,-0.0591,-0.048,-0.0373,-0.0213,0.0053,0.0369,0.0513,0.0605,0.0651,0.06,0.0553,0.0558,0.0514,0.0568,0.057,0.0575,0.063,0.0795,0.0912,0.1142,0.1509,0.1622,0.1792,0.2089,0.2388,0.2629,0.294,0.3114,0.3338,0.3726,0.4098,0.4435,0.4555,0.4609,0.4745,0.4844,0.4847,0.4895,0.4927,0.4974,0.5195,-0.7521,-0.7729,-0.7895,-0.8058,-0.8271,-0.8368,-0.853,-0.8864,-0.9151,-0.9246,-0.9211,-0.9256,-0.926,-0.9319,-0.9372,-0.9372,-0.9375,-0.9316,-0.9218,-0.9159,-0.9061,-0.8952,-0.8784,-0.8626,-0.8527,-0.8325,-0.8212,-0.7889,-0.7295,-0.7085,-0.6974,-0.6815,-0.6712,-0.6603,-0.6376,-0.627,-0.6107,-0.5996,-0.5832,-0.567,-0.5391,-0.5171,-0.4903,-0.4615,-0.4376,-0.4128,-0.3973,-0.363,-0.3375,-0.3189,-0.2989,-0.2791,-0.2726,-0.278,-0.2549,-0.2041,-0.1747,-0.1653,-0.167,-0.1699,-0.1783,-0.1785,-0.1799,-0.1726,-0.1691,-0.1654,-0.1521,-0.1344,-0.1261,-0.1337,-0.1337,-0.1397,-0.1343,-0.1286,-0.1118,-0.1007,-0.0835,-0.0721,-0.0553,-0.0272,-0.0053,0.0157,0.0261,0.0367,0.0317,0.0318,0.0321,0.0322,0.0323,0.0327,0.0384,0.0663,0.0834,0.0945,0.1177,0.1401,0.1626,0.1895,0.2161,0.2425,0.271,0.3049,0.3276,0.3526,0.3735,0.4046,0.4226,0.4453,0.4689,0.4804,0.4671,0.4696,0.4826,0.4913,0.5071,-0.7732,-0.7901,-0.8062,-0.8321,-0.8524,-0.8458,-0.862,-0.9012,-0.9358,-0.9505,-0.9417,-0.9514,-0.9625,-0.9688,-0.9792,-0.9895,-0.9844,-0.974,-0.9636,-0.9521,-0.9417,-0.926,-0.9099,-0.9005,-0.89,-0.8695,-0.8633,-0.8206,-0.7777,-0.7616,-0.7464,-0.7308,-0.7257,-0.7206,-0.6974,-0.682,-0.6709,-0.6596,-0.6381,-0.6107,-0.5773,-0.5616,-0.5344,-0.5082,-0.4824,-0.4632,-0.446,-0.4193,-0.3949,-0.3831,-0.3599,-0.3449,-0.3427,-0.3512,-0.3408,-0.3055,-0.2682,-0.2387,-0.2324,-0.2238,-0.2201,-0.2215,-0.2176,-0.2157,-0.2071,-0.1999,-0.1921,-0.1887,-0.179,-0.1734,-0.1792,-0.1736,-0.1681,-0.1626,-0.1514,-0.1346,-0.1234,-0.1122,-0.0953,-0.084,-0.0543,-0.0273,-0.011,-0.0,0.0055,0.0056,0.0,0.0,0.0,0.0,0.0,0.0393,0.0617,0.0729,0.0953,0.1178,0.1347,0.1628,0.1909,0.2189,0.2468,0.2748,0.3081,0.3329,0.3554,0.3812,0.41,0.4374,0.4703,0.4759,0.4689,0.4718,0.4869,0.4901,0.4959,-0.8002,-0.8062,-0.8318,-0.8527,-0.8689,-0.8735,-0.8942,-0.9267,-0.9602,-0.9706,-0.9688,-0.9784,-0.9836,-0.9947,-0.9947,-1.0003,-1.0003,-0.9947,-0.9892,-0.9836,-0.9729,-0.9625,-0.9462,-0.9357,-0.9256,-0.9057,-0.8952,-0.8791,-0.8365,-0.799,-0.778,-0.7791,-0.7741,-0.7574,-0.7461,-0.7257,-0.7093,-0.6982,-0.682,-0.6492,-0.6218,-0.6055,-0.5891,-0.5618,-0.5423,-0.528,-0.5073,-0.4854,-0.4611,-0.4475,-0.4227,-0.4068,-0.3986,-0.402,-0.3916,-0.3754,-0.3603,-0.3301,-0.2893,-0.2775,-0.2692,-0.2721,-0.2676,-0.2678,-0.2581,-0.2492,-0.2409,-0.2408,-0.2352,-0.2296,-0.2183,-0.2184,-0.2073,-0.1962,-0.1906,-0.1794,-0.1626,-0.1459,-0.1347,-0.1234,-0.1066,-0.0785,-0.0449,-0.0224,-0.0112,-0.0,0.0,0.0,0.0,0.0,0.0,0.0168,0.028,0.0449,0.0729,0.1009,0.1122,0.1347,0.174,0.1964,0.2133,0.2412,0.2747,0.3081,0.3333,0.3667,0.3968,0.4234,0.4431,0.4553,0.468,0.4682,0.4737,0.4794,0.4796,-0.8275,-0.8381,-0.858,-0.8745,-0.8854,-0.9117,-0.9267,-0.9469,-0.9747,-0.9855,-0.9899,-0.9999,-1.0154,-1.0205,-1.0257,-1.0312,-1.0261,-1.0201,-1.0154,-1.0154,-1.0102,-0.994,-0.9781,-0.9621,-0.9514,-0.9312,-0.9211,-0.9054,-0.8788,-0.8464,-0.82,-0.8271,-0.8174,-0.8055,-0.7839,-0.7628,-0.7416,-0.7308,-0.7095,-0.6877,-0.6655,-0.6552,-0.6381,-0.6161,-0.5996,-0.5884,-0.5756,-0.5498,-0.5253,-0.511,-0.494,-0.473,-0.4547,-0.4518,-0.4462,-0.4366,-0.4218,-0.3971,-0.3612,-0.3344,-0.3217,-0.3199,-0.3123,-0.3062,-0.29,-0.2854,-0.2799,-0.2744,-0.28,-0.2744,-0.2688,-0.2632,-0.2519,-0.2407,-0.2294,-0.2183,-0.2072,-0.1906,-0.1683,-0.1515,-0.1347,-0.1178,-0.0841,-0.0505,-0.028,-0.0112,0.0,0.0,0.0,0.0,0.0,0.0,0.0,0.0,0.0449,0.0729,0.0841,0.1066,0.1459,0.174,0.1908,0.2132,0.2467,0.2802,0.3083,0.3416,0.3748,0.397,0.4192,0.4356,0.4465,0.4465,0.452,0.4577,0.4632,-0.8537,-0.8752,-0.8808,-0.891,-0.9008,-0.9263,-0.9462,-0.9621,-0.9799,-0.9962,-1.0106,-1.0312,-1.0518,-1.0616,-1.0667,-1.0765,-1.0816,-1.0816,-1.0671,-1.0518,-1.0411,-1.0253,-1.0047,-0.9892,-0.9732,-0.9566,-0.9469,-0.9316,-0.9152,-0.8886,-0.8626,-0.8427,-0.855,-0.8497,-0.8328,-0.8002,-0.7741,-0.758,-0.7365,-0.7311,-0.7147,-0.6985,-0.6766,-0.6652,-0.6436,-0.627,-0.6152,-0.6011,-0.5831,-0.5714,-0.5518,-0.5342,-0.5113,-0.5041,-0.5008,-0.4862,-0.4654,-0.4474,-0.4221,-0.3892,-0.3763,-0.3673,-0.357,-0.3356,-0.3241,-0.3073,-0.3018,-0.3131,-0.3189,-0.3135,-0.3078,-0.3021,-0.291,-0.2797,-0.2629,-0.2574,-0.2463,-0.2297,-0.2075,-0.1852,-0.1684,-0.1514,-0.1291,-0.0953,-0.0617,-0.0449,-0.0168,0.0,0.0,0.0,0.0,0.0,0.0,0.0,0.0,0.0336,0.0617,0.0897,0.1178,0.1459,0.1684,0.1908,0.2188,0.2467,0.2804,0.3137,0.3416,0.3692,0.3914,0.4136,0.4247,0.4356,0.4465,0.4519,0.4519,-0.8639,-0.8808,-0.9057,-0.9211,-0.9263,-0.9465,-0.9569,-0.9736,-1.001,-1.0265,-1.0411,-1.0569,-1.0722,-1.0828,-1.0871,-1.0918,-1.0918,-1.0918,-1.0824,-1.0773,-1.0667,-1.0514,-1.0312,-1.0158,-1.0007,-0.9736,-0.9632,-0.9524,-0.9309,-0.926,-0.9054,-0.8906,-0.8818,-0.8699,-0.848,-0.8321,-0.8058,-0.7791,-0.7684,-0.7631,-0.7413,-0.7362,-0.7201,-0.7039,-0.7036,-0.682,-0.6655,-0.6603,-0.6384,-0.622,-0.6062,-0.5841,-0.562,-0.5513,-0.5405,-0.5297,-0.5073,-0.4904,-0.4682,-0.4353,-0.4021,-0.3909,-0.3799,-0.3747,-0.3574,-0.3574,-0.3574,-0.3633,-0.3524,-0.347,-0.3413,-0.3357,-0.319,-0.3076,-0.2964,-0.291,-0.2798,-0.2632,-0.2464,-0.2242,-0.2018,-0.1794,-0.1626,-0.1459,-0.1122,-0.0785,-0.0449,0.0,0.0,0.0,0.0,0.0,0.0,0.0,0.0,0.0,0.0,0.0673,0.0897,0.1178,0.1459,0.174,0.1964,0.2244,0.2468,0.2802,0.308,0.3413,0.3691,0.3914,0.4136,0.4301,0.441,0.4462,0.4462,-0.8791,-0.9008,-0.9316,-0.9465,-0.9462,-0.9618,-0.9781,-0.9951,-1.0213,-1.0466,-1.0722,-1.0765,-1.0922,-1.1027,-1.1074,-1.1124,-1.1175,-1.1124,-1.1078,-1.0972,-1.0867,-1.0718,-1.0565,-1.0364,-1.0162,-0.9899,-0.9795,-0.9684,-0.9462,-0.9587,-0.9326,-0.9061,-0.8906,-0.8738,-0.8689,-0.8524,-0.8318,-0.8109,-0.8002,-0.7949,-0.7732,-0.7628,-0.7574,-0.7416,-0.7362,-0.7255,-0.7093,-0.6985,-0.6823,-0.666,-0.6497,-0.628,-0.6059,-0.5898,-0.5795,-0.5631,-0.5409,-0.5236,-0.4956,-0.4627,-0.4245,-0.4079,-0.4078,-0.4022,-0.4021,-0.3964,-0.3853,-0.391,-0.3858,-0.3803,-0.3748,-0.3637,-0.3579,-0.3409,-0.3302,-0.3247,-0.3078,-0.291,-0.2798,-0.2687,-0.2408,-0.2186,-0.1962,-0.1739,-0.1291,-0.1009,-0.0729,-0.0505,0.0,0.0,0.0,0.0,0.0,0.0,0.0,0.0,0.0,0.0393,0.0617,0.0897,0.1178,0.1459,0.174,0.1964,0.2188,0.2466,0.2746,0.308,0.3414,0.3803,0.4024,0.4245,0.4301,0.441,0.4462,-0.9012,-0.9413,-0.9514,-0.9614,-0.9669,-0.974,-0.9951,-1.0265,-1.0316,-1.0522,-1.0769,-1.0972,-1.1129,-1.128,-1.1377,-1.1477,-1.1528,-1.1473,-1.1372,-1.1226,-1.112,-1.0922,-1.0722,-1.0522,-1.0368,-1.0051,-0.9895,-0.9736,-0.9614,-0.958,-0.9427,-0.9215,-0.8949,-0.8791,-0.8804,-0.8685,-0.8524,-0.8368,-0.8371,-0.8265,-0.8112,-0.7952,-0.7839,-0.7729,-0.7625,-0.7574,-0.7467,-0.7306,-0.7198,-0.7033,-0.6874,-0.666,-0.6337,-0.6225,-0.6119,-0.6066,-0.5574,-0.5348,-0.5226,-0.4847,-0.452,-0.4247,-0.4247,-0.4189,-0.4078,-0.4021,-0.4019,-0.413,-0.4187,-0.419,-0.4135,-0.3968,-0.3855,-0.3744,-0.3637,-0.3526,-0.3355,-0.3246,-0.3134,-0.2965,-0.28,-0.2635,-0.2355,-0.2075,-0.1515,-0.1178,-0.1009,-0.0841,-0.0673,0.0,0.0,0.0,0.0,0.0,0.0,0.0,0.0,0.0,0.0393,0.0617,0.0897,0.1122,0.1403,0.1684,0.1908,0.2188,0.2467,0.2747,0.3136,0.3581,0.3913,0.4135,0.4245,0.4301,0.4354,-0.926,-0.9566,-0.9781,-0.9991,-1.0146,-1.0158,-1.0265,-1.0423,-1.062,-1.0816,-1.0968,-1.1171,-1.1322,-1.1427,-1.1578,-1.1678,-1.1673,-1.1678,-1.1578,-1.1423,-1.1272,-1.1074,-1.0871,-1.0671,-1.0474,-1.0209,-1.0003,-0.9847,-0.9736,-0.9632,-0.9524,-0.9312,-0.9054,-0.8903,-0.8804,-0.8748,-0.8639,-0.858,-0.8524,-0.8471,-0.8378,-0.8268,-0.8159,-0.8099,-0.7999,-0.7895,-0.7735,-0.7625,-0.7518,-0.7354,-0.7195,-0.6928,-0.6712,-0.6601,-0.6337,-0.6175,-0.5793,-0.5462,-0.5234,-0.4904,-0.4684,-0.4522,-0.4356,-0.4353,-0.4298,-0.4353,-0.4353,-0.4296,-0.4406,-0.4354,-0.4193,-0.4024,-0.3965,-0.391,-0.3856,-0.3799,-0.3687,-0.3526,-0.3416,-0.3246,-0.308,-0.2857,-0.2578,-0.2299,-0.1795,-0.1459,-0.1291,-0.1009,-0.0841,-0.0729,0.0,0.0,0.0,0.0,0.0,0.0,0.0,0.0,0.0,0.0393,0.0617,0.0841,0.1066,0.1347,0.1628,0.1853,0.2188,0.2467,0.2913,0.3303,0.369,0.3967,0.4078,0.419,0.4247,-0.9465,-0.9777,-1.0051,-1.0368,-1.0569,-1.047,-1.0466,-1.0671,-1.0922,-1.107,-1.1226,-1.1372,-1.1523,-1.1623,-1.1723,-1.1823,-1.1823,-1.1778,-1.1728,-1.1619,-1.1427,-1.1276,-1.107,-1.0816,-1.062,-1.0364,-1.0106,-0.9951,-0.9795,-0.9677,-0.9462,-0.926,-0.9113,-0.8903,-0.8801,-0.8752,-0.8752,-0.8692,-0.8636,-0.8577,-0.8527,-0.8421,-0.8418,-0.8371,-0.8268,-0.8165,-0.8005,-0.7898,-0.7785,-0.7568,-0.7408,-0.7246,-0.7031,-0.6817,-0.6497,-0.6282,-0.5957,-0.5572,-0.5181,-0.4958,-0.4792,-0.4575,-0.4519,-0.4517,-0.4462,-0.4463,-0.4462,-0.4462,-0.4462,-0.4408,-0.4301,-0.4187,-0.4133,-0.4132,-0.4078,-0.3965,-0.3853,-0.3748,-0.3637,-0.3523,-0.3302,-0.3023,-0.2745,-0.2466,-0.2075,-0.1795,-0.1572,-0.129,-0.1009,-0.0897,-0.0785,0.0,0.0,0.0,0.0,0.0,0.0,0.0,0.0,0.0,0.0393,0.0673,0.0841,0.1009,0.1291,0.1572,0.1908,0.2244,0.269,0.3079,0.3412,0.3633,0.3853,0.4021,0.4135,-0.9625,-1.0043,-1.036,-1.0671,-1.0824,-1.0726,-1.0718,-1.0918,-1.1171,-1.1322,-1.1318,-1.1578,-1.1728,-1.1882,-1.1923,-1.1972,-1.2076,-1.1977,-1.1873,-1.1828,-1.1628,-1.1427,-1.1221,-1.0968,-1.0722,-1.0462,-1.0205,-0.9951,-0.9799,-0.9677,-0.9462,-0.9201,-0.911,-0.8956,-0.8854,-0.8804,-0.8804,-0.8752,-0.8748,-0.8689,-0.8636,-0.8577,-0.858,-0.8477,-0.8424,-0.8374,-0.8218,-0.8165,-0.7999,-0.7836,-0.7673,-0.7461,-0.7249,-0.6987,-0.6771,-0.6445,-0.6014,-0.5572,-0.5181,-0.4958,-0.4847,-0.4686,-0.4574,-0.4519,-0.4462,-0.4462,-0.4462,-0.4462,-0.4462,-0.4462,-0.4462,-0.4408,-0.4354,-0.4301,-0.4249,-0.4135,-0.4021,-0.391,-0.3853,-0.3687,-0.3467,-0.3245,-0.2856,-0.2578,-0.2355,-0.213,-0.185,-0.1571,-0.129,-0.1009,-0.0897,0.0,0.0,0.0,0.0,0.0,0.0,0.0,0.0,0.0,0.0,0.0505,0.0785,0.0953,0.1066,0.129,0.174,0.2132,0.2522,0.2856,0.3134,0.3412,0.3634,0.3909,0.4021,-1.0051,-1.0419,-1.0769,-1.1019,-1.1175,-1.1326,-1.1267,-1.1221,-1.1372,-1.1469,-1.1573,-1.1773,-1.1932,-1.2022,-1.2126,-1.2224,-1.2224,-1.2175,-1.2026,-1.1927,-1.1732,-1.1523,-1.1272,-1.1019,-1.082,-1.0565,-1.0257,-0.9999,-0.9892,-0.9725,-0.9514,-0.9309,-0.9159,-0.9061,-0.8959,-0.8857,-0.8804,-0.8808,-0.8808,-0.8748,-0.8748,-0.8692,-0.8695,-0.8639,-0.858,-0.8533,-0.8427,-0.8271,-0.8109,-0.8058,-0.7783,-0.7622,-0.7583,-0.7149,-0.6717,-0.6066,-0.5795,-0.5629,-0.5183,-0.4958,-0.4847,-0.4686,-0.4575,-0.4517,-0.4462,-0.4462,-0.4462,-0.4462,-0.4462,-0.4462,-0.4462,-0.4463,-0.4463,-0.441,-0.4358,-0.4301,-0.4189,-0.4078,-0.3965,-0.3742,-0.3577,-0.3357,-0.3025,-0.2801,-0.2577,-0.2353,-0.2128,-0.185,-0.157,-0.1234,-0.1009,-0.0897,-0.0729,-0.0393,-0.0112,0.0,0.0,0.0,0.0,0.0,0.0,0.0393,0.0729,0.0897,0.1009,0.1291,0.174,0.2076,0.23,0.2579,0.2857,0.3136,0.3413,0.3634,0.3909,-1.0261,-1.0667,-1.1019,-1.1267,-1.1477,-1.1619,-1.1628,-1.1569,-1.1623,-1.1673,-1.1782,-1.1977,-1.213,-1.218,-1.2278,-1.2377,-1.2377,-1.2278,-1.218,-1.2076,-1.1832,-1.1628,-1.1372,-1.107,-1.0871,-1.0616,-1.0364,-1.0106,-0.9943,-0.9725,-0.951,-0.9413,-0.9263,-0.9166,-0.9012,-0.8854,-0.8804,-0.8808,-0.8808,-0.8808,-0.8808,-0.8808,-0.8808,-0.8752,-0.8689,-0.8636,-0.8527,-0.8318,-0.8218,-0.8115,-0.7785,-0.7676,-0.7577,-0.709,-0.6552,-0.5957,-0.5793,-0.5572,-0.5181,-0.4958,-0.4849,-0.4686,-0.4575,-0.4519,-0.4462,-0.4462,-0.4462,-0.4462,-0.4462,-0.4462,-0.4462,-0.4462,-0.4462,-0.4462,-0.4463,-0.4467,-0.4358,-0.4249,-0.4079,-0.3799,-0.3634,-0.3413,-0.3192,-0.2969,-0.2801,-0.2577,-0.2354,-0.2074,-0.1738,-0.1403,-0.1178,-0.1009,-0.0897,-0.0673,-0.0393,0.0,0.0,0.0,0.0,0.0,0.0,0.0224,0.0505,0.0729,0.0953,0.1234,0.1515,0.174,0.202,0.23,0.2579,0.2857,0.3136,0.3357,0.3633,-1.0411,-1.0972,-1.1221,-1.1578,-1.1723,-1.1773,-1.1877,-1.1927,-1.1977,-1.1918,-1.1977,-1.2229,-1.2323,-1.2377,-1.2475,-1.2524,-1.2475,-1.2431,-1.2328,-1.2274,-1.1927,-1.1673,-1.1523,-1.1221,-1.0972,-1.0769,-1.0518,-1.0154,-0.9947,-0.9729,-0.9562,-0.9409,-0.926,-0.9159,-0.9057,-0.8857,-0.8808,-0.8808,-0.8808,-0.8808,-0.8808,-0.8808,-0.8808,-0.8808,-0.8755,-0.8702,-0.848,-0.8371,-0.8268,-0.8002,-0.7785,-0.7673,-0.73,-0.6974,-0.6438,-0.6009,-0.5845,-0.5513,-0.5179,-0.4958,-0.4849,-0.4686,-0.4575,-0.4519,-0.4462,-0.4462,-0.4462,-0.4462,-0.4462,-0.4462,-0.4462,-0.4462,-0.4462,-0.4462,-0.4463,-0.4463,-0.441,-0.4301,-0.4079,-0.3855,-0.3691,-0.3471,-0.3359,-0.3136,-0.2912,-0.2746,-0.2522,-0.2242,-0.1962,-0.1571,-0.1347,-0.1122,-0.0953,-0.0785,-0.0561,0.0,0.0,0.0,0.0,0.0,0.0,0.0,0.0224,0.0449,0.0729,0.0953,0.1178,0.1403,0.1684,0.1965,0.2244,0.2523,0.2801,0.3079,0.3413,-1.0867,-1.1276,-1.1723,-1.2076,-1.2278,-1.2328,-1.2332,-1.2372,-1.2328,-1.2278,-1.2234,-1.2377,-1.2475,-1.2573,-1.2627,-1.2622,-1.2632,-1.248,-1.2426,-1.2274,-1.1972,-1.1778,-1.1673,-1.1326,-1.1124,-1.0875,-1.0569,-1.0205,-0.9947,-0.9729,-0.9562,-0.9514,-0.9361,-0.9155,-0.911,-0.8962,-0.8808,-0.8808,-0.8808,-0.8808,-0.8808,-0.8808,-0.8808,-0.8808,-0.8755,-0.8695,-0.8527,-0.8421,-0.8321,-0.8112,-0.7833,-0.7512,-0.7039,-0.6812,-0.6384,-0.5959,-0.5791,-0.5456,-0.5122,-0.4901,-0.4792,-0.4629,-0.4519,-0.4517,-0.4462,-0.4462,-0.4462,-0.4462,-0.4462,-0.4462,-0.4462,-0.4462,-0.4462,-0.4462,-0.4462,-0.4462,-0.4462,-0.4242,-0.4078,-0.3913,-0.3749,-0.3583,-0.3416,-0.3247,-0.3079,-0.2856,-0.2633,-0.2354,-0.213,-0.185,-0.1515,-0.1291,-0.1009,-0.0841,-0.0617,0.0,0.0,0.0,0.0,0.0,0.0,0.0,0.0,0.0,0.0505,0.0729,0.0897,0.1122,0.1347,0.1628,0.1909,0.2244,0.2523,0.2801,0.3192,-1.1124,-1.1523,-1.2026,-1.2377,-1.2475,-1.2529,-1.2529,-1.2529,-1.2578,-1.2583,-1.2475,-1.2578,-1.2632,-1.273,-1.2774,-1.2779,-1.2735,-1.2578,-1.2534,-1.2332,-1.2071,-1.1877,-1.1678,-1.1427,-1.1179,-1.0875,-1.0569,-1.0209,-0.9899,-0.9792,-0.9681,-0.9569,-0.9357,-0.9208,-0.9159,-0.8959,-0.8808,-0.8808,-0.8808,-0.8808,-0.8808,-0.8808,-0.8808,-0.8808,-0.8748,-0.8633,-0.8527,-0.8368,-0.8212,-0.7949,-0.7619,-0.7241,-0.6871,-0.6598,-0.6223,-0.5902,-0.5626,-0.5346,-0.5011,-0.4846,-0.4736,-0.4572,-0.4462,-0.4462,-0.4462,-0.4462,-0.4462,-0.4462,-0.4462,-0.4462,-0.4462,-0.4462,-0.4462,-0.4462,-0.4463,-0.4465,-0.4354,-0.4189,-0.4021,-0.3853,-0.3747,-0.3641,-0.3473,-0.336,-0.319,-0.3021,-0.2799,-0.2465,-0.2242,-0.2017,-0.1682,-0.1403,-0.1122,-0.0953,-0.0785,-0.0505,0.0,0.0,0.0,0.0,0.0,0.0,0.0,0.0,0.0,0.0505,0.0729,0.0953,0.1066,0.1347,0.1628,0.1965,0.2244,0.2522,0.2857,-1.1272,-1.1823,-1.2323,-1.2529,-1.2529,-1.2573,-1.2529,-1.2534,-1.2627,-1.2671,-1.2632,-1.2632,-1.2681,-1.2779,-1.2832,-1.2886,-1.2837,-1.2632,-1.2588,-1.244,-1.2175,-1.1932,-1.1728,-1.1473,-1.1226,-1.0875,-1.0569,-1.0261,-1.0003,-0.9847,-0.9684,-0.9566,-0.9413,-0.9208,-0.9159,-0.9008,-0.8857,-0.8804,-0.8808,-0.8808,-0.8808,-0.8804,-0.8752,-0.8748,-0.8689,-0.8521,-0.8368,-0.8212,-0.7999,-0.7729,-0.7405,-0.698,-0.6657,-0.6386,-0.6114,-0.5791,-0.5519,-0.5238,-0.4959,-0.4794,-0.4629,-0.4519,-0.4517,-0.4462,-0.4462,-0.4462,-0.4462,-0.4462,-0.4462,-0.4462,-0.4462,-0.4462,-0.4462,-0.4463,-0.4465,-0.4411,-0.4245,-0.4078,-0.3909,-0.3795,-0.3745,-0.3641,-0.353,-0.3471,-0.3302,-0.3132,-0.291,-0.2632,-0.2353,-0.2129,-0.185,-0.1514,-0.1234,-0.1066,-0.0953,-0.0617,-0.028,0.0,0.0,0.0,0.0,0.0,0.0,0.0,0.0,0.0,0.0617,0.0841,0.0953,0.1122,0.1403,0.1684,0.1964,0.2299,0.2523,-1.1673,-1.2382,-1.2578,-1.273,-1.2783,-1.2822,-1.2779,-1.2676,-1.2676,-1.2622,-1.2573,-1.2573,-1.2622,-1.2822,-1.2881,-1.2886,-1.2832,-1.2681,-1.2637,-1.2543,-1.2283,-1.2036,-1.1837,-1.1578,-1.1322,-1.0972,-1.0624,-1.0316,-1.0054,-0.9903,-0.974,-0.9618,-0.9462,-0.9312,-0.9162,-0.9008,-0.891,-0.8857,-0.8808,-0.8808,-0.8808,-0.8752,-0.8692,-0.8685,-0.8629,-0.8477,-0.8271,-0.8058,-0.7892,-0.7622,-0.7295,-0.682,-0.6497,-0.6228,-0.5952,-0.5677,-0.5405,-0.5126,-0.4904,-0.4741,-0.4631,-0.4519,-0.4462,-0.4462,-0.4462,-0.4462,-0.4462,-0.4462,-0.4462,-0.4462,-0.4462,-0.4462,-0.4462,-0.441,-0.4413,-0.4301,-0.4135,-0.3965,-0.385,-0.3742,-0.3692,-0.3641,-0.3585,-0.3473,-0.3302,-0.3134,-0.2968,-0.269,-0.2296,-0.2128,-0.1961,-0.1626,-0.129,-0.1122,-0.0953,-0.0673,0.0,0.0,0.0,0.0,0.0,0.0,0.0,0.0,0.0,0.0,0.0449,0.0729,0.0897,0.1066,0.1234,0.1459,0.1739,0.2075,0.2354]}]]